<?xml version='1.0' encoding='UTF-8'?><gpx version="1.1" creator="JPX - https://github.com/jenetics/jpx" xmlns="http://www.topografix.com/GPX/1/1"><trk><trkseg><trkpt lat="45.3969817" lon="7.6582967"><ele>380.0</ele><time>2026-03-24T14:33:26.443Z</time></trkpt><trkpt lat="45.397045" lon="7.658245"><ele>380.0</ele><time>2026-03-24T14:33:30.44Z</time></trkpt><trkpt lat="45.3971083" lon="7.6581867"><ele>380.0</ele><time>2026-03-24T14:33:33.441Z</time></trkpt><trkpt lat="45.3971617" lon="7.658135"><ele>380.0</ele><time>2026-03-24T14:33:35.44Z</time></trkpt><trkpt lat="45.3972133" lon="7.658075"><ele>380.0</ele><time>2026-03-24T14:33:37.443Z</time></trkpt><trkpt lat="45.3972683" lon="7.65801"><ele>380.0</ele><time>2026-03-24T14:33:39.442Z</time></trkpt><trkpt lat="45.3973267" lon="7.6579433"><ele>380.0</ele><time>2026-03-24T14:33:41.442Z</time></trkpt><trkpt lat="45.3973833" lon="7.65788"><ele>380.1666666666667</ele><time>2026-03-24T14:33:43.441Z</time></trkpt><trkpt lat="45.3974467" lon="7.65782"><ele>380.33333333333337</ele><time>2026-03-24T14:33:45.441Z</time></trkpt><trkpt lat="45.3974983" lon="7.6577433"><ele>380.5</ele><time>2026-03-24T14:33:47.441Z</time></trkpt><trkpt lat="45.3975483" lon="7.657655"><ele>380.6666666666667</ele><time>2026-03-24T14:33:49.444Z</time></trkpt><trkpt lat="45.397595" lon="7.65755"><ele>380.8333333333333</ele><time>2026-03-24T14:33:51.446Z</time></trkpt><trkpt lat="45.39764" lon="7.6574367"><ele>381.0</ele><time>2026-03-24T14:33:53.441Z</time></trkpt><trkpt lat="45.3976883" lon="7.6573267"><ele>381.0</ele><time>2026-03-24T14:33:55.44Z</time></trkpt><trkpt lat="45.3977333" lon="7.6572183"><ele>381.0</ele><time>2026-03-24T14:33:57.44Z</time></trkpt><trkpt lat="45.3977783" lon="7.6571067"><ele>381.0</ele><time>2026-03-24T14:33:59.442Z</time></trkpt><trkpt lat="45.39782" lon="7.656995"><ele>381.0</ele><time>2026-03-24T14:34:01.441Z</time></trkpt><trkpt lat="45.3978617" lon="7.6568883"><ele>381.0</ele><time>2026-03-24T14:34:03.441Z</time></trkpt><trkpt lat="45.3979083" lon="7.6567733"><ele>381.0</ele><time>2026-03-24T14:34:05.442Z</time></trkpt><trkpt lat="45.397955" lon="7.6566583"><ele>381.4</ele><time>2026-03-24T14:34:07.445Z</time></trkpt><trkpt lat="45.398005" lon="7.6565417"><ele>381.8</ele><time>2026-03-24T14:34:09.437Z</time></trkpt><trkpt lat="45.3980583" lon="7.6564217"><ele>382.2</ele><time>2026-03-24T14:34:11.442Z</time></trkpt><trkpt lat="45.39811" lon="7.6563033"><ele>382.59999999999997</ele><time>2026-03-24T14:34:13.442Z</time></trkpt><trkpt lat="45.398155" lon="7.6561733"><ele>383.0</ele><time>2026-03-24T14:34:15.446Z</time></trkpt><trkpt lat="45.3981983" lon="7.656045"><ele>383.1666666666667</ele><time>2026-03-24T14:34:17.439Z</time></trkpt><trkpt lat="45.3982433" lon="7.6559167"><ele>383.33333333333337</ele><time>2026-03-24T14:34:19.442Z</time></trkpt><trkpt lat="45.3982917" lon="7.6558117"><ele>383.5</ele><time>2026-03-24T14:34:21.441Z</time></trkpt><trkpt lat="45.3983433" lon="7.6557067"><ele>383.6666666666667</ele><time>2026-03-24T14:34:23.438Z</time></trkpt><trkpt lat="45.398385" lon="7.6556083"><ele>383.8333333333333</ele><time>2026-03-24T14:34:25.44Z</time></trkpt><trkpt lat="45.3984433" lon="7.65552"><ele>384.0</ele><time>2026-03-24T14:34:28.442Z</time></trkpt><trkpt lat="45.3984433" lon="7.6554033"><ele>384.0</ele><time>2026-03-24T14:34:32.448Z</time></trkpt><trkpt lat="45.3983833" lon="7.6553183"><ele>384.0</ele><time>2026-03-24T14:34:35.439Z</time></trkpt><trkpt lat="45.3983133" lon="7.65529"><ele>384.0</ele><time>2026-03-24T14:34:55.444Z</time></trkpt><trkpt lat="45.3982467" lon="7.655245"><ele>384.0</ele><time>2026-03-24T14:34:58.44Z</time></trkpt><trkpt lat="45.3981783" lon="7.655205"><ele>384.0</ele><time>2026-03-24T14:35:00.444Z</time></trkpt><trkpt lat="45.3980917" lon="7.6551717"><ele>384.0</ele><time>2026-03-24T14:35:02.446Z</time></trkpt><trkpt lat="45.397995" lon="7.6551667"><ele>384.0</ele><time>2026-03-24T14:35:04.439Z</time></trkpt><trkpt lat="45.39789" lon="7.6551767"><ele>384.0</ele><time>2026-03-24T14:35:06.439Z</time></trkpt><trkpt lat="45.3977883" lon="7.6551933"><ele>384.0</ele><time>2026-03-24T14:35:08.439Z</time></trkpt><trkpt lat="45.3976933" lon="7.655225"><ele>384.0</ele><time>2026-03-24T14:35:10.44Z</time></trkpt><trkpt lat="45.3976017" lon="7.65526"><ele>384.0</ele><time>2026-03-24T14:35:12.444Z</time></trkpt><trkpt lat="45.397505" lon="7.6552983"><ele>384.0</ele><time>2026-03-24T14:35:14.439Z</time></trkpt><trkpt lat="45.3974117" lon="7.6553233"><ele>384.0</ele><time>2026-03-24T14:35:16.438Z</time></trkpt><trkpt lat="45.3973217" lon="7.6553283"><ele>384.0</ele><time>2026-03-24T14:35:18.441Z</time></trkpt><trkpt lat="45.3972333" lon="7.6552783"><ele>384.0</ele><time>2026-03-24T14:35:20.442Z</time></trkpt><trkpt lat="45.3971583" lon="7.6552"><ele>384.0</ele><time>2026-03-24T14:35:22.439Z</time></trkpt><trkpt lat="45.3970817" lon="7.65512"><ele>384.1666666666667</ele><time>2026-03-24T14:35:24.439Z</time></trkpt><trkpt lat="45.39701" lon="7.655045"><ele>384.33333333333337</ele><time>2026-03-24T14:35:26.445Z</time></trkpt><trkpt lat="45.3969417" lon="7.6549717"><ele>384.5</ele><time>2026-03-24T14:35:28.442Z</time></trkpt><trkpt lat="45.3968767" lon="7.6549033"><ele>384.6666666666667</ele><time>2026-03-24T14:35:30.439Z</time></trkpt><trkpt lat="45.3968183" lon="7.6548333"><ele>384.83333333333337</ele><time>2026-03-24T14:35:32.442Z</time></trkpt><trkpt lat="45.39676" lon="7.6547717"><ele>385.0</ele><time>2026-03-24T14:35:35.444Z</time></trkpt><trkpt lat="45.3966833" lon="7.6547433"><ele>385.00000000000006</ele><time>2026-03-24T14:35:46.443Z</time></trkpt><trkpt lat="45.3966117" lon="7.6548367"><ele>385.0</ele><time>2026-03-24T14:35:49.439Z</time></trkpt><trkpt lat="45.3965767" lon="7.65493"><ele>385.0</ele><time>2026-03-24T14:35:51.446Z</time></trkpt><trkpt lat="45.39654" lon="7.6550383"><ele>385.0</ele><time>2026-03-24T14:35:53.444Z</time></trkpt><trkpt lat="45.3964967" lon="7.655145"><ele>385.00000000000006</ele><time>2026-03-24T14:35:55.445Z</time></trkpt><trkpt lat="45.396445" lon="7.6552567"><ele>385.0</ele><time>2026-03-24T14:35:57.445Z</time></trkpt><trkpt lat="45.39638" lon="7.65536"><ele>384.6</ele><time>2026-03-24T14:35:59.448Z</time></trkpt><trkpt lat="45.3963233" lon="7.655455"><ele>384.2</ele><time>2026-03-24T14:36:01.45Z</time></trkpt><trkpt lat="45.3962967" lon="7.6555733"><ele>383.79999999999995</ele><time>2026-03-24T14:36:03.442Z</time></trkpt><trkpt lat="45.3963017" lon="7.6557183"><ele>383.4</ele><time>2026-03-24T14:36:05.441Z</time></trkpt><trkpt lat="45.3962917" lon="7.6558633"><ele>383.0</ele><time>2026-03-24T14:36:07.441Z</time></trkpt><trkpt lat="45.3962583" lon="7.6560133"><ele>382.5</ele><time>2026-03-24T14:36:09.439Z</time></trkpt><trkpt lat="45.39623" lon="7.6561633"><ele>382.0</ele><time>2026-03-24T14:36:11.445Z</time></trkpt><trkpt lat="45.3962" lon="7.6563383"><ele>381.5</ele><time>2026-03-24T14:36:13.441Z</time></trkpt><trkpt lat="45.3961683" lon="7.6565"><ele>381.0</ele><time>2026-03-24T14:36:15.448Z</time></trkpt><trkpt lat="45.3961367" lon="7.6566567"><ele>381.0</ele><time>2026-03-24T14:36:17.445Z</time></trkpt><trkpt lat="45.396105" lon="7.6568167"><ele>381.0</ele><time>2026-03-24T14:36:19.442Z</time></trkpt><trkpt lat="45.3960717" lon="7.6569917"><ele>381.0</ele><time>2026-03-24T14:36:21.435Z</time></trkpt><trkpt lat="45.396045" lon="7.6571617"><ele>381.0</ele><time>2026-03-24T14:36:23.439Z</time></trkpt><trkpt lat="45.3960267" lon="7.6572483"><ele>381.0</ele><time>2026-03-24T14:36:24.444Z</time></trkpt><trkpt lat="45.39601" lon="7.657335"><ele>380.8333333333333</ele><time>2026-03-24T14:36:25.44Z</time></trkpt><trkpt lat="45.3959833" lon="7.65751"><ele>380.6666666666667</ele><time>2026-03-24T14:36:27.438Z</time></trkpt><trkpt lat="45.3959617" lon="7.6576067"><ele>380.5</ele><time>2026-03-24T14:36:28.436Z</time></trkpt><trkpt lat="45.3959433" lon="7.657695"><ele>380.33333333333337</ele><time>2026-03-24T14:36:29.44Z</time></trkpt><trkpt lat="45.39592" lon="7.65779"><ele>380.1666666666667</ele><time>2026-03-24T14:36:30.439Z</time></trkpt><trkpt lat="45.3958983" lon="7.6579533"><ele>380.0</ele><time>2026-03-24T14:36:32.442Z</time></trkpt><trkpt lat="45.39587" lon="7.6581267"><ele>380.0</ele><time>2026-03-24T14:36:34.442Z</time></trkpt><trkpt lat="45.395845" lon="7.6582833"><ele>380.0</ele><time>2026-03-24T14:36:36.44Z</time></trkpt><trkpt lat="45.3958267" lon="7.6583783"><ele>380.0</ele><time>2026-03-24T14:36:37.444Z</time></trkpt><trkpt lat="45.39581" lon="7.6585433"><ele>380.0</ele><time>2026-03-24T14:36:39.445Z</time></trkpt><trkpt lat="45.3957917" lon="7.658705"><ele>380.0</ele><time>2026-03-24T14:36:41.443Z</time></trkpt><trkpt lat="45.39578" lon="7.6587933"><ele>380.0</ele><time>2026-03-24T14:36:42.446Z</time></trkpt><trkpt lat="45.3957483" lon="7.6589667"><ele>380.0</ele><time>2026-03-24T14:36:44.438Z</time></trkpt><trkpt lat="45.3957217" lon="7.65914"><ele>380.0</ele><time>2026-03-24T14:36:46.443Z</time></trkpt><trkpt lat="45.3957083" lon="7.65923"><ele>380.0</ele><time>2026-03-24T14:36:47.443Z</time></trkpt><trkpt lat="45.3956767" lon="7.6594017"><ele>380.0</ele><time>2026-03-24T14:36:49.444Z</time></trkpt><trkpt lat="45.3956433" lon="7.6595633"><ele>379.8</ele><time>2026-03-24T14:36:51.442Z</time></trkpt><trkpt lat="45.39561" lon="7.65972"><ele>379.6</ele><time>2026-03-24T14:36:53.437Z</time></trkpt><trkpt lat="45.39558" lon="7.6598783"><ele>379.4</ele><time>2026-03-24T14:36:55.438Z</time></trkpt><trkpt lat="45.3955383" lon="7.6600167"><ele>379.2</ele><time>2026-03-24T14:36:57.439Z</time></trkpt><trkpt lat="45.3954733" lon="7.66014"><ele>379.0</ele><time>2026-03-24T14:36:59.442Z</time></trkpt><trkpt lat="45.3954067" lon="7.6602517"><ele>379.0</ele><time>2026-03-24T14:37:01.44Z</time></trkpt><trkpt lat="45.395375" lon="7.6604033"><ele>379.0</ele><time>2026-03-24T14:37:03.442Z</time></trkpt><trkpt lat="45.3953617" lon="7.6605617"><ele>379.0</ele><time>2026-03-24T14:37:05.444Z</time></trkpt><trkpt lat="45.3953233" lon="7.6607183"><ele>379.0</ele><time>2026-03-24T14:37:07.442Z</time></trkpt><trkpt lat="45.3952267" lon="7.6608217"><ele>379.0</ele><time>2026-03-24T14:37:09.445Z</time></trkpt><trkpt lat="45.3951683" lon="7.6608617"><ele>379.0</ele><time>2026-03-24T14:37:10.441Z</time></trkpt><trkpt lat="45.3951067" lon="7.6608983"><ele>379.0</ele><time>2026-03-24T14:37:11.441Z</time></trkpt><trkpt lat="45.39505" lon="7.6609417"><ele>379.0</ele><time>2026-03-24T14:37:12.443Z</time></trkpt><trkpt lat="45.39499" lon="7.6609867"><ele>379.0</ele><time>2026-03-24T14:37:13.44Z</time></trkpt><trkpt lat="45.3948783" lon="7.6610667"><ele>379.0</ele><time>2026-03-24T14:37:15.443Z</time></trkpt><trkpt lat="45.3948217" lon="7.6611067"><ele>380.4</ele><time>2026-03-24T14:37:16.436Z</time></trkpt><trkpt lat="45.394715" lon="7.6611783"><ele>381.79999999999995</ele><time>2026-03-24T14:37:18.437Z</time></trkpt><trkpt lat="45.3946083" lon="7.6612417"><ele>383.20000000000005</ele><time>2026-03-24T14:37:20.441Z</time></trkpt><trkpt lat="45.3945067" lon="7.6613217"><ele>384.6</ele><time>2026-03-24T14:37:22.436Z</time></trkpt><trkpt lat="45.3944433" lon="7.6613517"><ele>386.0</ele><time>2026-03-24T14:37:23.435Z</time></trkpt><trkpt lat="45.3943867" lon="7.6613933"><ele>386.0</ele><time>2026-03-24T14:37:24.437Z</time></trkpt><trkpt lat="45.3942767" lon="7.661455"><ele>386.0</ele><time>2026-03-24T14:37:26.441Z</time></trkpt><trkpt lat="45.394165" lon="7.6615183"><ele>386.0</ele><time>2026-03-24T14:37:28.439Z</time></trkpt><trkpt lat="45.394055" lon="7.6615933"><ele>386.0</ele><time>2026-03-24T14:37:30.445Z</time></trkpt><trkpt lat="45.39395" lon="7.6616767"><ele>386.0</ele><time>2026-03-24T14:37:32.444Z</time></trkpt><trkpt lat="45.3938533" lon="7.6617883"><ele>386.0</ele><time>2026-03-24T14:37:34.439Z</time></trkpt><trkpt lat="45.3937533" lon="7.6618883"><ele>386.0</ele><time>2026-03-24T14:37:36.44Z</time></trkpt><trkpt lat="45.3936567" lon="7.661995"><ele>386.0</ele><time>2026-03-24T14:37:38.444Z</time></trkpt><trkpt lat="45.39356" lon="7.6620983"><ele>384.8</ele><time>2026-03-24T14:37:40.438Z</time></trkpt><trkpt lat="45.39351" lon="7.6621533"><ele>383.6</ele><time>2026-03-24T14:37:41.446Z</time></trkpt><trkpt lat="45.393415" lon="7.662265"><ele>382.4</ele><time>2026-03-24T14:37:43.444Z</time></trkpt><trkpt lat="45.3933183" lon="7.6623767"><ele>381.2</ele><time>2026-03-24T14:37:45.437Z</time></trkpt><trkpt lat="45.3932267" lon="7.66249"><ele>380.0</ele><time>2026-03-24T14:37:47.443Z</time></trkpt><trkpt lat="45.39313" lon="7.6625917"><ele>380.0</ele><time>2026-03-24T14:37:49.439Z</time></trkpt><trkpt lat="45.3930367" lon="7.6626933"><ele>380.0</ele><time>2026-03-24T14:37:51.442Z</time></trkpt><trkpt lat="45.3929517" lon="7.662805"><ele>380.0</ele><time>2026-03-24T14:37:53.441Z</time></trkpt><trkpt lat="45.3928617" lon="7.662905"><ele>380.0</ele><time>2026-03-24T14:37:55.441Z</time></trkpt><trkpt lat="45.3927583" lon="7.6629817"><ele>379.2</ele><time>2026-03-24T14:37:57.44Z</time></trkpt><trkpt lat="45.3926617" lon="7.6630567"><ele>378.4</ele><time>2026-03-24T14:37:59.44Z</time></trkpt><trkpt lat="45.3925683" lon="7.6631367"><ele>377.6</ele><time>2026-03-24T14:38:01.439Z</time></trkpt><trkpt lat="45.3924667" lon="7.663225"><ele>376.8</ele><time>2026-03-24T14:38:03.444Z</time></trkpt><trkpt lat="45.3923783" lon="7.6633217"><ele>376.0</ele><time>2026-03-24T14:38:05.444Z</time></trkpt><trkpt lat="45.3922983" lon="7.6634433"><ele>376.0</ele><time>2026-03-24T14:38:07.44Z</time></trkpt><trkpt lat="45.3922317" lon="7.6635767"><ele>376.0</ele><time>2026-03-24T14:38:09.438Z</time></trkpt><trkpt lat="45.3921683" lon="7.6636967"><ele>376.0</ele><time>2026-03-24T14:38:11.439Z</time></trkpt><trkpt lat="45.3921133" lon="7.6638133"><ele>376.0</ele><time>2026-03-24T14:38:13.444Z</time></trkpt><trkpt lat="45.3920683" lon="7.6639517"><ele>376.0</ele><time>2026-03-24T14:38:15.44Z</time></trkpt><trkpt lat="45.392035" lon="7.6640933"><ele>374.8</ele><time>2026-03-24T14:38:17.439Z</time></trkpt><trkpt lat="45.3920133" lon="7.66423"><ele>373.6</ele><time>2026-03-24T14:38:19.443Z</time></trkpt><trkpt lat="45.3919867" lon="7.664385"><ele>372.4</ele><time>2026-03-24T14:38:21.442Z</time></trkpt><trkpt lat="45.3919667" lon="7.6645467"><ele>371.2</ele><time>2026-03-24T14:38:23.437Z</time></trkpt><trkpt lat="45.3919333" lon="7.664705"><ele>370.0</ele><time>2026-03-24T14:38:25.441Z</time></trkpt><trkpt lat="45.3919017" lon="7.6648733"><ele>370.0</ele><time>2026-03-24T14:38:27.442Z</time></trkpt><trkpt lat="45.3918717" lon="7.66503"><ele>370.0</ele><time>2026-03-24T14:38:29.439Z</time></trkpt><trkpt lat="45.39184" lon="7.6651917"><ele>370.0</ele><time>2026-03-24T14:38:31.444Z</time></trkpt><trkpt lat="45.3918033" lon="7.6653533"><ele>370.0</ele><time>2026-03-24T14:38:33.439Z</time></trkpt><trkpt lat="45.39177" lon="7.6655117"><ele>370.5</ele><time>2026-03-24T14:38:35.439Z</time></trkpt><trkpt lat="45.3917267" lon="7.6656683"><ele>371.0</ele><time>2026-03-24T14:38:37.445Z</time></trkpt><trkpt lat="45.39168" lon="7.665815"><ele>371.5</ele><time>2026-03-24T14:38:39.442Z</time></trkpt><trkpt lat="45.39162" lon="7.6659467"><ele>372.0</ele><time>2026-03-24T14:38:41.44Z</time></trkpt><trkpt lat="45.3915617" lon="7.6660783"><ele>371.40000000000003</ele><time>2026-03-24T14:38:43.44Z</time></trkpt><trkpt lat="45.3915033" lon="7.6662167"><ele>370.8</ele><time>2026-03-24T14:38:45.446Z</time></trkpt><trkpt lat="45.3914483" lon="7.666355"><ele>370.2</ele><time>2026-03-24T14:38:47.441Z</time></trkpt><trkpt lat="45.3913917" lon="7.6664917"><ele>369.6</ele><time>2026-03-24T14:38:49.445Z</time></trkpt><trkpt lat="45.3913467" lon="7.6666267"><ele>369.0</ele><time>2026-03-24T14:38:51.444Z</time></trkpt><trkpt lat="45.3912817" lon="7.6667517"><ele>369.0</ele><time>2026-03-24T14:38:53.442Z</time></trkpt><trkpt lat="45.39122" lon="7.6668867"><ele>369.0</ele><time>2026-03-24T14:38:55.438Z</time></trkpt><trkpt lat="45.3911467" lon="7.66702"><ele>369.0</ele><time>2026-03-24T14:38:57.439Z</time></trkpt><trkpt lat="45.3910717" lon="7.6671583"><ele>369.0</ele><time>2026-03-24T14:38:59.442Z</time></trkpt><trkpt lat="45.3909983" lon="7.6672917"><ele>371.0</ele><time>2026-03-24T14:39:01.441Z</time></trkpt><trkpt lat="45.3909233" lon="7.66742"><ele>373.0</ele><time>2026-03-24T14:39:03.44Z</time></trkpt><trkpt lat="45.390845" lon="7.6675483"><ele>375.0</ele><time>2026-03-24T14:39:05.44Z</time></trkpt><trkpt lat="45.3907667" lon="7.6676817"><ele>377.0</ele><time>2026-03-24T14:39:07.441Z</time></trkpt><trkpt lat="45.3906833" lon="7.66781"><ele>375.5</ele><time>2026-03-24T14:39:09.444Z</time></trkpt><trkpt lat="45.3905983" lon="7.6679383"><ele>374.0</ele><time>2026-03-24T14:39:11.437Z</time></trkpt><trkpt lat="45.3905533" lon="7.668005"><ele>372.5</ele><time>2026-03-24T14:39:12.438Z</time></trkpt><trkpt lat="45.3904717" lon="7.66814"><ele>371.0</ele><time>2026-03-24T14:39:14.442Z</time></trkpt><trkpt lat="45.3904267" lon="7.66821"><ele>369.5</ele><time>2026-03-24T14:39:15.445Z</time></trkpt><trkpt lat="45.39038" lon="7.66828"><ele>368.0</ele><time>2026-03-24T14:39:16.44Z</time></trkpt><trkpt lat="45.3903317" lon="7.66835"><ele>368.0</ele><time>2026-03-24T14:39:17.441Z</time></trkpt><trkpt lat="45.3902883" lon="7.6684233"><ele>368.0</ele><time>2026-03-24T14:39:18.445Z</time></trkpt><trkpt lat="45.3902433" lon="7.6684933"><ele>368.0</ele><time>2026-03-24T14:39:19.441Z</time></trkpt><trkpt lat="45.3901983" lon="7.6685667"><ele>368.0</ele><time>2026-03-24T14:39:20.447Z</time></trkpt><trkpt lat="45.3901533" lon="7.66864"><ele>368.0</ele><time>2026-03-24T14:39:21.44Z</time></trkpt><trkpt lat="45.3901083" lon="7.6687117"><ele>368.0</ele><time>2026-03-24T14:39:22.438Z</time></trkpt><trkpt lat="45.3900633" lon="7.6687817"><ele>368.0</ele><time>2026-03-24T14:39:23.444Z</time></trkpt><trkpt lat="45.3900167" lon="7.6688517"><ele>369.8571428571429</ele><time>2026-03-24T14:39:24.442Z</time></trkpt><trkpt lat="45.3899733" lon="7.6689217"><ele>371.71428571428567</ele><time>2026-03-24T14:39:25.442Z</time></trkpt><trkpt lat="45.3899317" lon="7.668995"><ele>373.57142857142856</ele><time>2026-03-24T14:39:26.441Z</time></trkpt><trkpt lat="45.38989" lon="7.66907"><ele>375.42857142857144</ele><time>2026-03-24T14:39:27.439Z</time></trkpt><trkpt lat="45.3898417" lon="7.6691433"><ele>377.28571428571433</ele><time>2026-03-24T14:39:28.44Z</time></trkpt><trkpt lat="45.3898017" lon="7.66922"><ele>379.1428571428571</ele><time>2026-03-24T14:39:29.445Z</time></trkpt><trkpt lat="45.3897633" lon="7.6692967"><ele>381.0</ele><time>2026-03-24T14:39:30.443Z</time></trkpt><trkpt lat="45.3897217" lon="7.6693733"><ele>378.85714285714283</ele><time>2026-03-24T14:39:31.443Z</time></trkpt><trkpt lat="45.3896833" lon="7.6694533"><ele>376.7142857142857</ele><time>2026-03-24T14:39:32.44Z</time></trkpt><trkpt lat="45.38964" lon="7.669535"><ele>374.57142857142856</ele><time>2026-03-24T14:39:33.442Z</time></trkpt><trkpt lat="45.3896" lon="7.669615"><ele>372.42857142857144</ele><time>2026-03-24T14:39:34.445Z</time></trkpt><trkpt lat="45.3895583" lon="7.6696983"><ele>370.28571428571433</ele><time>2026-03-24T14:39:35.439Z</time></trkpt><trkpt lat="45.3895183" lon="7.6697783"><ele>368.14285714285717</ele><time>2026-03-24T14:39:36.438Z</time></trkpt><trkpt lat="45.3894867" lon="7.6698617"><ele>366.0</ele><time>2026-03-24T14:39:37.438Z</time></trkpt><trkpt lat="45.3894483" lon="7.6699483"><ele>366.0</ele><time>2026-03-24T14:39:38.44Z</time></trkpt><trkpt lat="45.3894083" lon="7.6700317"><ele>366.0</ele><time>2026-03-24T14:39:39.439Z</time></trkpt><trkpt lat="45.3893683" lon="7.6701167"><ele>366.0</ele><time>2026-03-24T14:39:40.436Z</time></trkpt><trkpt lat="45.38933" lon="7.6701967"><ele>366.0</ele><time>2026-03-24T14:39:41.437Z</time></trkpt><trkpt lat="45.3892983" lon="7.67028"><ele>366.0</ele><time>2026-03-24T14:39:42.438Z</time></trkpt><trkpt lat="45.3892633" lon="7.6703667"><ele>366.0</ele><time>2026-03-24T14:39:43.442Z</time></trkpt><trkpt lat="45.3892283" lon="7.6704467"><ele>366.0</ele><time>2026-03-24T14:39:44.441Z</time></trkpt><trkpt lat="45.3891917" lon="7.6705283"><ele>368.3333333333333</ele><time>2026-03-24T14:39:45.441Z</time></trkpt><trkpt lat="45.389155" lon="7.6706033"><ele>370.6666666666667</ele><time>2026-03-24T14:39:46.44Z</time></trkpt><trkpt lat="45.3891167" lon="7.6706783"><ele>373.0</ele><time>2026-03-24T14:39:47.441Z</time></trkpt><trkpt lat="45.38908" lon="7.670755"><ele>375.33333333333337</ele><time>2026-03-24T14:39:48.439Z</time></trkpt><trkpt lat="45.3890167" lon="7.670905"><ele>377.6666666666667</ele><time>2026-03-24T14:39:50.442Z</time></trkpt><trkpt lat="45.3889517" lon="7.6710483"><ele>380.0</ele><time>2026-03-24T14:39:52.441Z</time></trkpt><trkpt lat="45.3888967" lon="7.6711933"><ele>376.75</ele><time>2026-03-24T14:39:54.441Z</time></trkpt><trkpt lat="45.38884" lon="7.6713317"><ele>373.5</ele><time>2026-03-24T14:39:56.441Z</time></trkpt><trkpt lat="45.3887783" lon="7.6714717"><ele>370.25</ele><time>2026-03-24T14:39:58.44Z</time></trkpt><trkpt lat="45.3887183" lon="7.6716167"><ele>367.0</ele><time>2026-03-24T14:40:00.442Z</time></trkpt><trkpt lat="45.3886667" lon="7.6717583"><ele>367.0</ele><time>2026-03-24T14:40:02.446Z</time></trkpt><trkpt lat="45.3886117" lon="7.6719"><ele>367.0</ele><time>2026-03-24T14:40:04.437Z</time></trkpt><trkpt lat="45.3885567" lon="7.6720467"><ele>367.0</ele><time>2026-03-24T14:40:06.44Z</time></trkpt><trkpt lat="45.3884883" lon="7.6721883"><ele>367.0</ele><time>2026-03-24T14:40:08.441Z</time></trkpt><trkpt lat="45.38843" lon="7.67234"><ele>367.5</ele><time>2026-03-24T14:40:10.442Z</time></trkpt><trkpt lat="45.3883683" lon="7.672485"><ele>368.0</ele><time>2026-03-24T14:40:12.439Z</time></trkpt><trkpt lat="45.388305" lon="7.672635"><ele>368.5</ele><time>2026-03-24T14:40:14.441Z</time></trkpt><trkpt lat="45.38827" lon="7.6727167"><ele>369.0</ele><time>2026-03-24T14:40:15.441Z</time></trkpt><trkpt lat="45.3882367" lon="7.672795"><ele>369.5</ele><time>2026-03-24T14:40:16.442Z</time></trkpt><trkpt lat="45.388205" lon="7.6728783"><ele>370.0</ele><time>2026-03-24T14:40:17.44Z</time></trkpt><trkpt lat="45.3881717" lon="7.67296"><ele>368.2</ele><time>2026-03-24T14:40:18.447Z</time></trkpt><trkpt lat="45.3881367" lon="7.6730383"><ele>366.4</ele><time>2026-03-24T14:40:19.442Z</time></trkpt><trkpt lat="45.3881033" lon="7.673115"><ele>364.6</ele><time>2026-03-24T14:40:20.445Z</time></trkpt><trkpt lat="45.3880433" lon="7.673265"><ele>362.8</ele><time>2026-03-24T14:40:22.444Z</time></trkpt><trkpt lat="45.387975" lon="7.6734083"><ele>361.0</ele><time>2026-03-24T14:40:24.441Z</time></trkpt><trkpt lat="45.3879167" lon="7.67355"><ele>362.6</ele><time>2026-03-24T14:40:26.439Z</time></trkpt><trkpt lat="45.3878567" lon="7.673705"><ele>364.20000000000005</ele><time>2026-03-24T14:40:28.439Z</time></trkpt><trkpt lat="45.3877883" lon="7.6738433"><ele>365.79999999999995</ele><time>2026-03-24T14:40:30.438Z</time></trkpt><trkpt lat="45.387715" lon="7.6739717"><ele>367.4</ele><time>2026-03-24T14:40:32.438Z</time></trkpt><trkpt lat="45.3876817" lon="7.67405"><ele>369.0</ele><time>2026-03-24T14:40:33.438Z</time></trkpt><trkpt lat="45.3876" lon="7.6741717"><ele>369.0</ele><time>2026-03-24T14:40:35.44Z</time></trkpt><trkpt lat="45.3875217" lon="7.674295"><ele>369.0</ele><time>2026-03-24T14:40:37.439Z</time></trkpt><trkpt lat="45.38745" lon="7.6744283"><ele>369.0</ele><time>2026-03-24T14:40:39.44Z</time></trkpt><trkpt lat="45.3873883" lon="7.6745683"><ele>369.0</ele><time>2026-03-24T14:40:41.437Z</time></trkpt><trkpt lat="45.3873317" lon="7.6747167"><ele>369.5</ele><time>2026-03-24T14:40:43.44Z</time></trkpt><trkpt lat="45.3872883" lon="7.6748783"><ele>370.0</ele><time>2026-03-24T14:40:45.44Z</time></trkpt><trkpt lat="45.387235" lon="7.6750333"><ele>370.5</ele><time>2026-03-24T14:40:47.442Z</time></trkpt><trkpt lat="45.38718" lon="7.6751917"><ele>371.0</ele><time>2026-03-24T14:40:49.441Z</time></trkpt><trkpt lat="45.38713" lon="7.6753517"><ele>369.75</ele><time>2026-03-24T14:40:51.44Z</time></trkpt><trkpt lat="45.38708" lon="7.67551"><ele>368.5</ele><time>2026-03-24T14:40:53.44Z</time></trkpt><trkpt lat="45.3870283" lon="7.67567"><ele>367.25</ele><time>2026-03-24T14:40:55.443Z</time></trkpt><trkpt lat="45.3869767" lon="7.6758267"><ele>366.0</ele><time>2026-03-24T14:40:57.443Z</time></trkpt><trkpt lat="45.38693" lon="7.6759833"><ele>365.8</ele><time>2026-03-24T14:40:59.441Z</time></trkpt><trkpt lat="45.3868833" lon="7.6761383"><ele>365.6</ele><time>2026-03-24T14:41:01.442Z</time></trkpt><trkpt lat="45.3868367" lon="7.676295"><ele>365.4</ele><time>2026-03-24T14:41:03.44Z</time></trkpt><trkpt lat="45.3868083" lon="7.6763767"><ele>365.2</ele><time>2026-03-24T14:41:04.439Z</time></trkpt><trkpt lat="45.3867483" lon="7.67653"><ele>365.0</ele><time>2026-03-24T14:41:06.438Z</time></trkpt><trkpt lat="45.3867117" lon="7.6766083"><ele>365.0</ele><time>2026-03-24T14:41:07.442Z</time></trkpt><trkpt lat="45.38664" lon="7.6767567"><ele>365.0</ele><time>2026-03-24T14:41:09.437Z</time></trkpt><trkpt lat="45.3866017" lon="7.6768367"><ele>365.0</ele><time>2026-03-24T14:41:10.445Z</time></trkpt><trkpt lat="45.386565" lon="7.6769167"><ele>365.0</ele><time>2026-03-24T14:41:11.447Z</time></trkpt><trkpt lat="45.3865267" lon="7.6770017"><ele>365.0</ele><time>2026-03-24T14:41:12.443Z</time></trkpt><trkpt lat="45.386485" lon="7.67708"><ele>365.0</ele><time>2026-03-24T14:41:13.439Z</time></trkpt><trkpt lat="45.3864433" lon="7.6771667"><ele>364.7142857142857</ele><time>2026-03-24T14:41:14.441Z</time></trkpt><trkpt lat="45.3864033" lon="7.6772517"><ele>364.42857142857144</ele><time>2026-03-24T14:41:15.439Z</time></trkpt><trkpt lat="45.38636" lon="7.6773333"><ele>364.1428571428571</ele><time>2026-03-24T14:41:16.441Z</time></trkpt><trkpt lat="45.3863167" lon="7.6774183"><ele>363.8571428571429</ele><time>2026-03-24T14:41:17.445Z</time></trkpt><trkpt lat="45.3862767" lon="7.6774983"><ele>363.57142857142856</ele><time>2026-03-24T14:41:18.441Z</time></trkpt><trkpt lat="45.3862367" lon="7.6775817"><ele>363.2857142857143</ele><time>2026-03-24T14:41:19.442Z</time></trkpt><trkpt lat="45.386195" lon="7.6776667"><ele>363.0</ele><time>2026-03-24T14:41:20.441Z</time></trkpt><trkpt lat="45.386155" lon="7.6777467"><ele>361.99999999999994</ele><time>2026-03-24T14:41:21.439Z</time></trkpt><trkpt lat="45.3861133" lon="7.6778283"><ele>361.0</ele><time>2026-03-24T14:41:22.442Z</time></trkpt><trkpt lat="45.3860717" lon="7.677915"><ele>360.0</ele><time>2026-03-24T14:41:23.442Z</time></trkpt><trkpt lat="45.38603" lon="7.6779967"><ele>359.0</ele><time>2026-03-24T14:41:24.439Z</time></trkpt><trkpt lat="45.38599" lon="7.67808"><ele>358.0</ele><time>2026-03-24T14:41:25.441Z</time></trkpt><trkpt lat="45.38595" lon="7.678165"><ele>356.99999999999994</ele><time>2026-03-24T14:41:26.44Z</time></trkpt><trkpt lat="45.38591" lon="7.6782517"><ele>356.0</ele><time>2026-03-24T14:41:27.441Z</time></trkpt><trkpt lat="45.3858667" lon="7.6783367"><ele>356.0</ele><time>2026-03-24T14:41:28.439Z</time></trkpt><trkpt lat="45.385825" lon="7.6784233"><ele>356.0</ele><time>2026-03-24T14:41:29.44Z</time></trkpt><trkpt lat="45.3857833" lon="7.6785167"><ele>356.0</ele><time>2026-03-24T14:41:30.441Z</time></trkpt><trkpt lat="45.3857417" lon="7.6786017"><ele>356.0</ele><time>2026-03-24T14:41:31.443Z</time></trkpt><trkpt lat="45.3856967" lon="7.6786867"><ele>356.0</ele><time>2026-03-24T14:41:32.44Z</time></trkpt><trkpt lat="45.3856533" lon="7.678775"><ele>356.0</ele><time>2026-03-24T14:41:33.441Z</time></trkpt><trkpt lat="45.3856117" lon="7.678865"><ele>355.99999999999994</ele><time>2026-03-24T14:41:34.438Z</time></trkpt><trkpt lat="45.38557" lon="7.678955"><ele>356.0</ele><time>2026-03-24T14:41:35.441Z</time></trkpt><trkpt lat="45.3855267" lon="7.6790433"><ele>356.0</ele><time>2026-03-24T14:41:36.443Z</time></trkpt><trkpt lat="45.385485" lon="7.6791333"><ele>356.0</ele><time>2026-03-24T14:41:37.439Z</time></trkpt><trkpt lat="45.3854433" lon="7.67922"><ele>356.0</ele><time>2026-03-24T14:41:38.442Z</time></trkpt><trkpt lat="45.3854017" lon="7.6793067"><ele>355.99999999999994</ele><time>2026-03-24T14:41:39.443Z</time></trkpt><trkpt lat="45.3853617" lon="7.67939"><ele>356.0</ele><time>2026-03-24T14:41:40.441Z</time></trkpt><trkpt lat="45.3853217" lon="7.6794717"><ele>356.2857142857143</ele><time>2026-03-24T14:41:41.449Z</time></trkpt><trkpt lat="45.38528" lon="7.6795517"><ele>356.57142857142856</ele><time>2026-03-24T14:41:42.442Z</time></trkpt><trkpt lat="45.3852417" lon="7.6796317"><ele>356.8571428571429</ele><time>2026-03-24T14:41:43.445Z</time></trkpt><trkpt lat="45.385205" lon="7.67971"><ele>357.1428571428571</ele><time>2026-03-24T14:41:44.442Z</time></trkpt><trkpt lat="45.38517" lon="7.67979"><ele>357.42857142857144</ele><time>2026-03-24T14:41:45.439Z</time></trkpt><trkpt lat="45.385135" lon="7.6798683"><ele>357.7142857142857</ele><time>2026-03-24T14:41:46.437Z</time></trkpt><trkpt lat="45.3850983" lon="7.679945"><ele>358.0</ele><time>2026-03-24T14:41:47.441Z</time></trkpt><trkpt lat="45.3850633" lon="7.6800233"><ele>358.0</ele><time>2026-03-24T14:41:48.442Z</time></trkpt><trkpt lat="45.3850267" lon="7.6801"><ele>358.0</ele><time>2026-03-24T14:41:49.442Z</time></trkpt><trkpt lat="45.38499" lon="7.6801733"><ele>358.0</ele><time>2026-03-24T14:41:50.441Z</time></trkpt><trkpt lat="45.3849167" lon="7.6803217"><ele>358.0</ele><time>2026-03-24T14:41:52.438Z</time></trkpt><trkpt lat="45.3848783" lon="7.680395"><ele>358.0</ele><time>2026-03-24T14:41:53.441Z</time></trkpt><trkpt lat="45.3848417" lon="7.6804683"><ele>358.0</ele><time>2026-03-24T14:41:54.438Z</time></trkpt><trkpt lat="45.38477" lon="7.6806133"><ele>358.0</ele><time>2026-03-24T14:41:56.441Z</time></trkpt><trkpt lat="45.3846967" lon="7.6807583"><ele>358.0</ele><time>2026-03-24T14:41:58.44Z</time></trkpt><trkpt lat="45.3846267" lon="7.680905"><ele>358.0</ele><time>2026-03-24T14:42:00.442Z</time></trkpt><trkpt lat="45.3845883" lon="7.68098"><ele>358.0</ele><time>2026-03-24T14:42:01.444Z</time></trkpt><trkpt lat="45.3845517" lon="7.681055"><ele>358.0</ele><time>2026-03-24T14:42:02.443Z</time></trkpt><trkpt lat="45.3844783" lon="7.6812"><ele>357.25</ele><time>2026-03-24T14:42:04.439Z</time></trkpt><trkpt lat="45.384405" lon="7.681345"><ele>356.5</ele><time>2026-03-24T14:42:06.44Z</time></trkpt><trkpt lat="45.3843333" lon="7.6814883"><ele>355.75</ele><time>2026-03-24T14:42:08.441Z</time></trkpt><trkpt lat="45.384265" lon="7.6816317"><ele>355.0</ele><time>2026-03-24T14:42:10.44Z</time></trkpt><trkpt lat="45.3841983" lon="7.6817783"><ele>355.0</ele><time>2026-03-24T14:42:12.44Z</time></trkpt><trkpt lat="45.3841317" lon="7.6819267"><ele>355.0</ele><time>2026-03-24T14:42:14.442Z</time></trkpt><trkpt lat="45.384095" lon="7.682"><ele>355.0</ele><time>2026-03-24T14:42:15.44Z</time></trkpt><trkpt lat="45.3840267" lon="7.6821483"><ele>355.0</ele><time>2026-03-24T14:42:17.441Z</time></trkpt><trkpt lat="45.3839617" lon="7.6822983"><ele>355.0</ele><time>2026-03-24T14:42:19.438Z</time></trkpt><trkpt lat="45.3839" lon="7.6824517"><ele>355.0</ele><time>2026-03-24T14:42:21.441Z</time></trkpt><trkpt lat="45.3838483" lon="7.6826033"><ele>355.0</ele><time>2026-03-24T14:42:23.438Z</time></trkpt><trkpt lat="45.3838217" lon="7.682685"><ele>355.0</ele><time>2026-03-24T14:42:24.436Z</time></trkpt><trkpt lat="45.3837933" lon="7.682765"><ele>355.0</ele><time>2026-03-24T14:42:25.437Z</time></trkpt><trkpt lat="45.3837667" lon="7.6828467"><ele>355.0</ele><time>2026-03-24T14:42:26.442Z</time></trkpt><trkpt lat="45.3837433" lon="7.6829317"><ele>355.0</ele><time>2026-03-24T14:42:27.436Z</time></trkpt><trkpt lat="45.3836967" lon="7.6830867"><ele>354.5</ele><time>2026-03-24T14:42:29.44Z</time></trkpt><trkpt lat="45.3836533" lon="7.6832483"><ele>354.0</ele><time>2026-03-24T14:42:31.44Z</time></trkpt><trkpt lat="45.3836117" lon="7.68341"><ele>353.5</ele><time>2026-03-24T14:42:33.438Z</time></trkpt><trkpt lat="45.3835767" lon="7.6835683"><ele>353.0</ele><time>2026-03-24T14:42:35.439Z</time></trkpt><trkpt lat="45.3835417" lon="7.6837217"><ele>352.5</ele><time>2026-03-24T14:42:37.443Z</time></trkpt><trkpt lat="45.3835117" lon="7.6838783"><ele>352.0</ele><time>2026-03-24T14:42:39.441Z</time></trkpt><trkpt lat="45.3834833" lon="7.6840383"><ele>351.5</ele><time>2026-03-24T14:42:41.443Z</time></trkpt><trkpt lat="45.3834617" lon="7.6842017"><ele>351.0</ele><time>2026-03-24T14:42:43.438Z</time></trkpt><trkpt lat="45.3834433" lon="7.6843617"><ele>351.0</ele><time>2026-03-24T14:42:45.438Z</time></trkpt><trkpt lat="45.3834267" lon="7.6845217"><ele>351.0</ele><time>2026-03-24T14:42:47.44Z</time></trkpt><trkpt lat="45.3834133" lon="7.6846767"><ele>351.0</ele><time>2026-03-24T14:42:49.438Z</time></trkpt><trkpt lat="45.383405" lon="7.6848267"><ele>351.0</ele><time>2026-03-24T14:42:51.439Z</time></trkpt><trkpt lat="45.383395" lon="7.6849817"><ele>351.0</ele><time>2026-03-24T14:42:53.438Z</time></trkpt><trkpt lat="45.3833817" lon="7.6851317"><ele>351.20000000000005</ele><time>2026-03-24T14:42:55.438Z</time></trkpt><trkpt lat="45.3833717" lon="7.68528"><ele>351.40000000000003</ele><time>2026-03-24T14:42:57.441Z</time></trkpt><trkpt lat="45.383365" lon="7.68543"><ele>351.6</ele><time>2026-03-24T14:42:59.443Z</time></trkpt><trkpt lat="45.3833633" lon="7.685585"><ele>351.8</ele><time>2026-03-24T14:43:01.441Z</time></trkpt><trkpt lat="45.3833633" lon="7.685735"><ele>352.0</ele><time>2026-03-24T14:43:03.439Z</time></trkpt><trkpt lat="45.3833633" lon="7.6858833"><ele>352.0</ele><time>2026-03-24T14:43:05.439Z</time></trkpt><trkpt lat="45.3833633" lon="7.6860367"><ele>352.0</ele><time>2026-03-24T14:43:07.439Z</time></trkpt><trkpt lat="45.383365" lon="7.68619"><ele>352.0</ele><time>2026-03-24T14:43:09.442Z</time></trkpt><trkpt lat="45.3833617" lon="7.68634"><ele>352.0</ele><time>2026-03-24T14:43:11.443Z</time></trkpt><trkpt lat="45.3833633" lon="7.68649"><ele>352.0</ele><time>2026-03-24T14:43:13.442Z</time></trkpt><trkpt lat="45.3833683" lon="7.6866483"><ele>352.5</ele><time>2026-03-24T14:43:15.439Z</time></trkpt><trkpt lat="45.3833733" lon="7.6868117"><ele>353.0</ele><time>2026-03-24T14:43:17.44Z</time></trkpt><trkpt lat="45.38337" lon="7.6869767"><ele>353.5</ele><time>2026-03-24T14:43:19.44Z</time></trkpt><trkpt lat="45.38337" lon="7.6871417"><ele>354.0</ele><time>2026-03-24T14:43:21.438Z</time></trkpt><trkpt lat="45.383365" lon="7.68731"><ele>354.75</ele><time>2026-03-24T14:43:23.44Z</time></trkpt><trkpt lat="45.3833717" lon="7.687475"><ele>355.5</ele><time>2026-03-24T14:43:25.442Z</time></trkpt><trkpt lat="45.3833767" lon="7.6876417"><ele>356.25</ele><time>2026-03-24T14:43:27.44Z</time></trkpt><trkpt lat="45.3833883" lon="7.687805"><ele>357.0</ele><time>2026-03-24T14:43:29.44Z</time></trkpt><trkpt lat="45.383395" lon="7.6879683"><ele>357.0</ele><time>2026-03-24T14:43:31.441Z</time></trkpt><trkpt lat="45.3834017" lon="7.6881367"><ele>357.0</ele><time>2026-03-24T14:43:33.441Z</time></trkpt><trkpt lat="45.3834083" lon="7.6883067"><ele>357.0</ele><time>2026-03-24T14:43:35.441Z</time></trkpt><trkpt lat="45.3834133" lon="7.6884767"><ele>357.0</ele><time>2026-03-24T14:43:37.438Z</time></trkpt><trkpt lat="45.383415" lon="7.6886417"><ele>357.5</ele><time>2026-03-24T14:43:39.44Z</time></trkpt><trkpt lat="45.3834133" lon="7.6888133"><ele>358.0</ele><time>2026-03-24T14:43:41.437Z</time></trkpt><trkpt lat="45.383405" lon="7.6889767"><ele>358.5</ele><time>2026-03-24T14:43:43.439Z</time></trkpt><trkpt lat="45.3834033" lon="7.6891333"><ele>359.0</ele><time>2026-03-24T14:43:45.438Z</time></trkpt><trkpt lat="45.383405" lon="7.6892983"><ele>358.75</ele><time>2026-03-24T14:43:47.441Z</time></trkpt><trkpt lat="45.3834067" lon="7.6894717"><ele>358.5</ele><time>2026-03-24T14:43:49.442Z</time></trkpt><trkpt lat="45.3834033" lon="7.6896467"><ele>358.25</ele><time>2026-03-24T14:43:51.437Z</time></trkpt><trkpt lat="45.38341" lon="7.6898167"><ele>358.0</ele><time>2026-03-24T14:43:53.441Z</time></trkpt><trkpt lat="45.3834167" lon="7.6899833"><ele>358.0</ele><time>2026-03-24T14:43:55.438Z</time></trkpt><trkpt lat="45.3834333" lon="7.6901517"><ele>358.0</ele><time>2026-03-24T14:43:57.443Z</time></trkpt><trkpt lat="45.3834583" lon="7.6903233"><ele>358.0</ele><time>2026-03-24T14:43:59.438Z</time></trkpt><trkpt lat="45.3834783" lon="7.6904983"><ele>358.0</ele><time>2026-03-24T14:44:01.438Z</time></trkpt><trkpt lat="45.3835083" lon="7.6906733"><ele>357.75</ele><time>2026-03-24T14:44:03.441Z</time></trkpt><trkpt lat="45.38353" lon="7.6908467"><ele>357.5</ele><time>2026-03-24T14:44:05.44Z</time></trkpt><trkpt lat="45.383555" lon="7.6910133"><ele>357.25</ele><time>2026-03-24T14:44:07.444Z</time></trkpt><trkpt lat="45.3835767" lon="7.691185"><ele>357.0</ele><time>2026-03-24T14:44:09.438Z</time></trkpt><trkpt lat="45.3836017" lon="7.6913567"><ele>356.75</ele><time>2026-03-24T14:44:11.442Z</time></trkpt><trkpt lat="45.3836267" lon="7.6915267"><ele>356.5</ele><time>2026-03-24T14:44:13.441Z</time></trkpt><trkpt lat="45.3836533" lon="7.6917"><ele>356.25</ele><time>2026-03-24T14:44:15.439Z</time></trkpt><trkpt lat="45.383675" lon="7.6918767"><ele>356.0</ele><time>2026-03-24T14:44:17.441Z</time></trkpt><trkpt lat="45.383695" lon="7.69205"><ele>355.5</ele><time>2026-03-24T14:44:19.439Z</time></trkpt><trkpt lat="45.383715" lon="7.69222"><ele>355.0</ele><time>2026-03-24T14:44:21.437Z</time></trkpt><trkpt lat="45.3837383" lon="7.6923883"><ele>354.5</ele><time>2026-03-24T14:44:23.437Z</time></trkpt><trkpt lat="45.3837617" lon="7.6925567"><ele>354.0</ele><time>2026-03-24T14:44:25.441Z</time></trkpt><trkpt lat="45.3837783" lon="7.6927283"><ele>353.75</ele><time>2026-03-24T14:44:27.442Z</time></trkpt><trkpt lat="45.3838" lon="7.692895"><ele>353.5</ele><time>2026-03-24T14:44:29.439Z</time></trkpt><trkpt lat="45.38382" lon="7.6930683"><ele>353.25</ele><time>2026-03-24T14:44:31.446Z</time></trkpt><trkpt lat="45.3838433" lon="7.6932367"><ele>353.0</ele><time>2026-03-24T14:44:33.442Z</time></trkpt><trkpt lat="45.3838683" lon="7.69341"><ele>353.4</ele><time>2026-03-24T14:44:35.441Z</time></trkpt><trkpt lat="45.38388" lon="7.6934983"><ele>353.79999999999995</ele><time>2026-03-24T14:44:36.437Z</time></trkpt><trkpt lat="45.3838933" lon="7.6935867"><ele>354.2</ele><time>2026-03-24T14:44:37.442Z</time></trkpt><trkpt lat="45.3839233" lon="7.6937517"><ele>354.6</ele><time>2026-03-24T14:44:39.441Z</time></trkpt><trkpt lat="45.3839433" lon="7.6939183"><ele>355.0</ele><time>2026-03-24T14:44:41.441Z</time></trkpt><trkpt lat="45.3839667" lon="7.6940817"><ele>355.0</ele><time>2026-03-24T14:44:43.441Z</time></trkpt><trkpt lat="45.3839917" lon="7.69425"><ele>355.0</ele><time>2026-03-24T14:44:45.44Z</time></trkpt><trkpt lat="45.384015" lon="7.6944167"><ele>355.0</ele><time>2026-03-24T14:44:47.444Z</time></trkpt><trkpt lat="45.3840367" lon="7.694585"><ele>355.0</ele><time>2026-03-24T14:44:49.44Z</time></trkpt><trkpt lat="45.38406" lon="7.694755"><ele>354.5</ele><time>2026-03-24T14:44:51.441Z</time></trkpt><trkpt lat="45.3840917" lon="7.6949183"><ele>354.0</ele><time>2026-03-24T14:44:53.438Z</time></trkpt><trkpt lat="45.3841183" lon="7.695085"><ele>353.5</ele><time>2026-03-24T14:44:55.439Z</time></trkpt><trkpt lat="45.3841383" lon="7.695255"><ele>353.0</ele><time>2026-03-24T14:44:57.442Z</time></trkpt><trkpt lat="45.3841567" lon="7.69543"><ele>353.0</ele><time>2026-03-24T14:44:59.44Z</time></trkpt><trkpt lat="45.384165" lon="7.6956017"><ele>353.0</ele><time>2026-03-24T14:45:01.441Z</time></trkpt><trkpt lat="45.3841667" lon="7.695775"><ele>353.0</ele><time>2026-03-24T14:45:03.437Z</time></trkpt><trkpt lat="45.3841583" lon="7.695945"><ele>353.0</ele><time>2026-03-24T14:45:05.44Z</time></trkpt><trkpt lat="45.384145" lon="7.696035"><ele>353.0</ele><time>2026-03-24T14:45:06.44Z</time></trkpt><trkpt lat="45.3841083" lon="7.696205"><ele>353.1666666666667</ele><time>2026-03-24T14:45:08.44Z</time></trkpt><trkpt lat="45.3840833" lon="7.6962883"><ele>353.33333333333337</ele><time>2026-03-24T14:45:09.441Z</time></trkpt><trkpt lat="45.3840567" lon="7.6963717"><ele>353.5</ele><time>2026-03-24T14:45:10.438Z</time></trkpt><trkpt lat="45.384025" lon="7.69645"><ele>353.6666666666667</ele><time>2026-03-24T14:45:11.439Z</time></trkpt><trkpt lat="45.383965" lon="7.6966"><ele>353.8333333333333</ele><time>2026-03-24T14:45:13.438Z</time></trkpt><trkpt lat="45.3839017" lon="7.6967433"><ele>354.0</ele><time>2026-03-24T14:45:15.443Z</time></trkpt><trkpt lat="45.38383" lon="7.6968833"><ele>353.75</ele><time>2026-03-24T14:45:17.442Z</time></trkpt><trkpt lat="45.3837567" lon="7.6970183"><ele>353.5</ele><time>2026-03-24T14:45:19.44Z</time></trkpt><trkpt lat="45.38369" lon="7.69716"><ele>353.25</ele><time>2026-03-24T14:45:21.44Z</time></trkpt><trkpt lat="45.3836217" lon="7.6973017"><ele>353.0</ele><time>2026-03-24T14:45:23.441Z</time></trkpt><trkpt lat="45.3835583" lon="7.6974517"><ele>353.0</ele><time>2026-03-24T14:45:25.441Z</time></trkpt><trkpt lat="45.383525" lon="7.6975283"><ele>353.0</ele><time>2026-03-24T14:45:26.441Z</time></trkpt><trkpt lat="45.3834583" lon="7.697675"><ele>353.0</ele><time>2026-03-24T14:45:28.439Z</time></trkpt><trkpt lat="45.3833933" lon="7.6978167"><ele>353.0</ele><time>2026-03-24T14:45:30.441Z</time></trkpt><trkpt lat="45.3833217" lon="7.697955"><ele>353.0</ele><time>2026-03-24T14:45:32.443Z</time></trkpt><trkpt lat="45.38329" lon="7.6980333"><ele>352.5</ele><time>2026-03-24T14:45:33.438Z</time></trkpt><trkpt lat="45.3832167" lon="7.6981767"><ele>352.0</ele><time>2026-03-24T14:45:35.442Z</time></trkpt><trkpt lat="45.3831433" lon="7.6983133"><ele>351.5</ele><time>2026-03-24T14:45:37.446Z</time></trkpt><trkpt lat="45.3830733" lon="7.698455"><ele>351.0</ele><time>2026-03-24T14:45:39.438Z</time></trkpt><trkpt lat="45.383" lon="7.698595"><ele>351.0</ele><time>2026-03-24T14:45:41.44Z</time></trkpt><trkpt lat="45.3829267" lon="7.6987283"><ele>351.0</ele><time>2026-03-24T14:45:43.441Z</time></trkpt><trkpt lat="45.3828533" lon="7.69887"><ele>351.0</ele><time>2026-03-24T14:45:45.438Z</time></trkpt><trkpt lat="45.3827817" lon="7.6990167"><ele>351.0</ele><time>2026-03-24T14:45:47.442Z</time></trkpt><trkpt lat="45.3827117" lon="7.69916"><ele>351.0</ele><time>2026-03-24T14:45:49.441Z</time></trkpt><trkpt lat="45.3826417" lon="7.6992983"><ele>351.0</ele><time>2026-03-24T14:45:51.44Z</time></trkpt><trkpt lat="45.3825783" lon="7.6994417"><ele>351.0</ele><time>2026-03-24T14:45:53.443Z</time></trkpt><trkpt lat="45.3825433" lon="7.6995167"><ele>351.0</ele><time>2026-03-24T14:45:54.441Z</time></trkpt><trkpt lat="45.3825117" lon="7.699595"><ele>351.0</ele><time>2026-03-24T14:45:55.444Z</time></trkpt><trkpt lat="45.38245" lon="7.6997433"><ele>350.75</ele><time>2026-03-24T14:45:57.44Z</time></trkpt><trkpt lat="45.3824017" lon="7.699895"><ele>350.5</ele><time>2026-03-24T14:45:59.438Z</time></trkpt><trkpt lat="45.3823467" lon="7.7000467"><ele>350.25</ele><time>2026-03-24T14:46:01.438Z</time></trkpt><trkpt lat="45.3822917" lon="7.7001967"><ele>350.0</ele><time>2026-03-24T14:46:03.438Z</time></trkpt><trkpt lat="45.3822333" lon="7.7003517"><ele>350.0</ele><time>2026-03-24T14:46:05.441Z</time></trkpt><trkpt lat="45.3822017" lon="7.70043"><ele>350.0</ele><time>2026-03-24T14:46:06.439Z</time></trkpt><trkpt lat="45.382145" lon="7.7005883"><ele>350.0</ele><time>2026-03-24T14:46:08.441Z</time></trkpt><trkpt lat="45.3820867" lon="7.70075"><ele>350.0</ele><time>2026-03-24T14:46:10.44Z</time></trkpt><trkpt lat="45.3820283" lon="7.700905"><ele>350.0</ele><time>2026-03-24T14:46:12.439Z</time></trkpt><trkpt lat="45.38197" lon="7.701065"><ele>349.8</ele><time>2026-03-24T14:46:14.442Z</time></trkpt><trkpt lat="45.3819133" lon="7.7012233"><ele>349.6</ele><time>2026-03-24T14:46:16.438Z</time></trkpt><trkpt lat="45.3818617" lon="7.7013833"><ele>349.4</ele><time>2026-03-24T14:46:18.439Z</time></trkpt><trkpt lat="45.381835" lon="7.701465"><ele>349.2</ele><time>2026-03-24T14:46:19.443Z</time></trkpt><trkpt lat="45.3817833" lon="7.7016267"><ele>349.0</ele><time>2026-03-24T14:46:21.439Z</time></trkpt><trkpt lat="45.381755" lon="7.7017083"><ele>349.0</ele><time>2026-03-24T14:46:22.442Z</time></trkpt><trkpt lat="45.3817217" lon="7.701785"><ele>349.0</ele><time>2026-03-24T14:46:23.443Z</time></trkpt><trkpt lat="45.3816683" lon="7.7019433"><ele>349.0</ele><time>2026-03-24T14:46:25.437Z</time></trkpt><trkpt lat="45.3816133" lon="7.7021033"><ele>349.0</ele><time>2026-03-24T14:46:27.44Z</time></trkpt><trkpt lat="45.381555" lon="7.702265"><ele>349.0</ele><time>2026-03-24T14:46:29.44Z</time></trkpt><trkpt lat="45.38153" lon="7.7023517"><ele>348.5</ele><time>2026-03-24T14:46:30.44Z</time></trkpt><trkpt lat="45.3815067" lon="7.7024367"><ele>348.0</ele><time>2026-03-24T14:46:31.435Z</time></trkpt><trkpt lat="45.3814833" lon="7.7025217"><ele>347.5</ele><time>2026-03-24T14:46:32.442Z</time></trkpt><trkpt lat="45.3814433" lon="7.7026883"><ele>347.0</ele><time>2026-03-24T14:46:34.443Z</time></trkpt><trkpt lat="45.3814233" lon="7.7027733"><ele>346.5</ele><time>2026-03-24T14:46:35.442Z</time></trkpt><trkpt lat="45.3814117" lon="7.7028633"><ele>346.0</ele><time>2026-03-24T14:46:36.439Z</time></trkpt><trkpt lat="45.381395" lon="7.7030417"><ele>346.0</ele><time>2026-03-24T14:46:38.44Z</time></trkpt><trkpt lat="45.3813783" lon="7.7032167"><ele>346.0</ele><time>2026-03-24T14:46:40.443Z</time></trkpt><trkpt lat="45.3813667" lon="7.7033833"><ele>346.0</ele><time>2026-03-24T14:46:42.44Z</time></trkpt><trkpt lat="45.381355" lon="7.7035483"><ele>346.0</ele><time>2026-03-24T14:46:44.445Z</time></trkpt><trkpt lat="45.381335" lon="7.7037183"><ele>345.75</ele><time>2026-03-24T14:46:46.441Z</time></trkpt><trkpt lat="45.3813167" lon="7.7038867"><ele>345.5</ele><time>2026-03-24T14:46:48.446Z</time></trkpt><trkpt lat="45.3813017" lon="7.7040533"><ele>345.25</ele><time>2026-03-24T14:46:50.44Z</time></trkpt><trkpt lat="45.3812867" lon="7.7042067"><ele>345.0</ele><time>2026-03-24T14:46:52.444Z</time></trkpt><trkpt lat="45.3812617" lon="7.7043833"><ele>345.0</ele><time>2026-03-24T14:46:54.443Z</time></trkpt><trkpt lat="45.3812533" lon="7.7044733"><ele>345.0</ele><time>2026-03-24T14:46:55.441Z</time></trkpt><trkpt lat="45.381235" lon="7.7046417"><ele>345.0</ele><time>2026-03-24T14:46:57.441Z</time></trkpt><trkpt lat="45.381215" lon="7.70481"><ele>345.0</ele><time>2026-03-24T14:46:59.438Z</time></trkpt><trkpt lat="45.381195" lon="7.7049783"><ele>345.0</ele><time>2026-03-24T14:47:01.439Z</time></trkpt><trkpt lat="45.381175" lon="7.7051517"><ele>345.2</ele><time>2026-03-24T14:47:03.441Z</time></trkpt><trkpt lat="45.3811567" lon="7.70532"><ele>345.4</ele><time>2026-03-24T14:47:05.439Z</time></trkpt><trkpt lat="45.3811283" lon="7.7054733"><ele>345.6</ele><time>2026-03-24T14:47:07.44Z</time></trkpt><trkpt lat="45.381125" lon="7.70565"><ele>345.8</ele><time>2026-03-24T14:47:09.438Z</time></trkpt><trkpt lat="45.3811233" lon="7.70574"><ele>346.0</ele><time>2026-03-24T14:47:10.441Z</time></trkpt><trkpt lat="45.3811317" lon="7.7059133"><ele>345.6</ele><time>2026-03-24T14:47:12.44Z</time></trkpt><trkpt lat="45.38116" lon="7.7060783"><ele>345.20000000000005</ele><time>2026-03-24T14:47:14.442Z</time></trkpt><trkpt lat="45.3812083" lon="7.7062417"><ele>344.79999999999995</ele><time>2026-03-24T14:47:16.44Z</time></trkpt><trkpt lat="45.3812333" lon="7.7063267"><ele>344.4</ele><time>2026-03-24T14:47:17.443Z</time></trkpt><trkpt lat="45.3812617" lon="7.7064083"><ele>344.0</ele><time>2026-03-24T14:47:18.441Z</time></trkpt><trkpt lat="45.3813167" lon="7.70657"><ele>344.0</ele><time>2026-03-24T14:47:20.444Z</time></trkpt><trkpt lat="45.3813767" lon="7.7067283"><ele>344.0</ele><time>2026-03-24T14:47:22.44Z</time></trkpt><trkpt lat="45.3814283" lon="7.7068867"><ele>344.0</ele><time>2026-03-24T14:47:24.446Z</time></trkpt><trkpt lat="45.3814483" lon="7.7069717"><ele>344.0</ele><time>2026-03-24T14:47:25.438Z</time></trkpt><trkpt lat="45.3814633" lon="7.7071383"><ele>344.0</ele><time>2026-03-24T14:47:27.442Z</time></trkpt><trkpt lat="45.381485" lon="7.707305"><ele>344.0</ele><time>2026-03-24T14:47:29.442Z</time></trkpt><trkpt lat="45.3815467" lon="7.707455"><ele>344.0</ele><time>2026-03-24T14:47:31.444Z</time></trkpt><trkpt lat="45.3816383" lon="7.7075717"><ele>344.0</ele><time>2026-03-24T14:47:33.443Z</time></trkpt><trkpt lat="45.3817317" lon="7.7076817"><ele>344.0</ele><time>2026-03-24T14:47:35.441Z</time></trkpt><trkpt lat="45.3818017" lon="7.707805"><ele>344.0</ele><time>2026-03-24T14:47:37.443Z</time></trkpt><trkpt lat="45.3818583" lon="7.707945"><ele>344.0</ele><time>2026-03-24T14:47:39.445Z</time></trkpt><trkpt lat="45.38191" lon="7.7080883"><ele>344.0</ele><time>2026-03-24T14:47:41.441Z</time></trkpt><trkpt lat="45.3819683" lon="7.708225"><ele>344.0</ele><time>2026-03-24T14:47:43.441Z</time></trkpt><trkpt lat="45.3820217" lon="7.708375"><ele>344.0</ele><time>2026-03-24T14:47:45.445Z</time></trkpt><trkpt lat="45.3820717" lon="7.7085033"><ele>344.0</ele><time>2026-03-24T14:47:47.441Z</time></trkpt><trkpt lat="45.3821183" lon="7.70863"><ele>344.0</ele><time>2026-03-24T14:47:49.442Z</time></trkpt><trkpt lat="45.3821583" lon="7.708755"><ele>344.0</ele><time>2026-03-24T14:47:51.439Z</time></trkpt><trkpt lat="45.3821833" lon="7.708875"><ele>344.0</ele><time>2026-03-24T14:47:53.441Z</time></trkpt><trkpt lat="45.3821967" lon="7.7089833"><ele>344.79999999999995</ele><time>2026-03-24T14:47:55.439Z</time></trkpt><trkpt lat="45.3822267" lon="7.7090767"><ele>345.59999999999997</ele><time>2026-03-24T14:47:57.44Z</time></trkpt><trkpt lat="45.38229" lon="7.7091367"><ele>346.4</ele><time>2026-03-24T14:47:59.439Z</time></trkpt><trkpt lat="45.3823767" lon="7.7091967"><ele>347.2</ele><time>2026-03-24T14:48:01.443Z</time></trkpt><trkpt lat="45.3824683" lon="7.7092517"><ele>348.0</ele><time>2026-03-24T14:48:03.446Z</time></trkpt><trkpt lat="45.3825717" lon="7.7093017"><ele>348.0</ele><time>2026-03-24T14:48:05.443Z</time></trkpt><trkpt lat="45.382655" lon="7.709365"><ele>348.0</ele><time>2026-03-24T14:48:07.442Z</time></trkpt><trkpt lat="45.38274" lon="7.7094333"><ele>348.0</ele><time>2026-03-24T14:48:09.44Z</time></trkpt><trkpt lat="45.38283" lon="7.7095233"><ele>348.0</ele><time>2026-03-24T14:48:11.441Z</time></trkpt><trkpt lat="45.3829017" lon="7.70963"><ele>348.0</ele><time>2026-03-24T14:48:13.438Z</time></trkpt><trkpt lat="45.3829433" lon="7.7097583"><ele>348.0</ele><time>2026-03-24T14:48:15.44Z</time></trkpt><trkpt lat="45.3829817" lon="7.7098767"><ele>348.0</ele><time>2026-03-24T14:48:17.448Z</time></trkpt><trkpt lat="45.3830017" lon="7.7100217"><ele>348.0</ele><time>2026-03-24T14:48:19.438Z</time></trkpt><trkpt lat="45.3830067" lon="7.7101667"><ele>348.0</ele><time>2026-03-24T14:48:21.444Z</time></trkpt><trkpt lat="45.383" lon="7.710325"><ele>348.0</ele><time>2026-03-24T14:48:23.443Z</time></trkpt><trkpt lat="45.3829917" lon="7.710495"><ele>347.5</ele><time>2026-03-24T14:48:25.443Z</time></trkpt><trkpt lat="45.3829833" lon="7.71067"><ele>347.0</ele><time>2026-03-24T14:48:27.445Z</time></trkpt><trkpt lat="45.3829767" lon="7.71084"><ele>346.5</ele><time>2026-03-24T14:48:29.444Z</time></trkpt><trkpt lat="45.3829583" lon="7.7110117"><ele>346.0</ele><time>2026-03-24T14:48:31.444Z</time></trkpt><trkpt lat="45.382945" lon="7.711185"><ele>345.25</ele><time>2026-03-24T14:48:33.439Z</time></trkpt><trkpt lat="45.3829217" lon="7.71135"><ele>344.5</ele><time>2026-03-24T14:48:35.445Z</time></trkpt><trkpt lat="45.3829167" lon="7.7115117"><ele>343.75</ele><time>2026-03-24T14:48:37.443Z</time></trkpt><trkpt lat="45.3829317" lon="7.7116783"><ele>343.0</ele><time>2026-03-24T14:48:39.438Z</time></trkpt><trkpt lat="45.3829433" lon="7.7118467"><ele>343.0</ele><time>2026-03-24T14:48:41.441Z</time></trkpt><trkpt lat="45.3829467" lon="7.712015"><ele>343.0</ele><time>2026-03-24T14:48:43.445Z</time></trkpt><trkpt lat="45.3829417" lon="7.7121817"><ele>343.0</ele><time>2026-03-24T14:48:45.441Z</time></trkpt><trkpt lat="45.3829217" lon="7.7123217"><ele>343.0</ele><time>2026-03-24T14:48:47.443Z</time></trkpt><trkpt lat="45.38291" lon="7.7124317"><ele>343.0</ele><time>2026-03-24T14:48:49.44Z</time></trkpt><trkpt lat="45.3829117" lon="7.7125383"><ele>343.0</ele><time>2026-03-24T14:48:51.441Z</time></trkpt><trkpt lat="45.382905" lon="7.7126617"><ele>343.0</ele><time>2026-03-24T14:48:53.442Z</time></trkpt><trkpt lat="45.382915" lon="7.71278"><ele>343.0</ele><time>2026-03-24T14:48:55.442Z</time></trkpt><trkpt lat="45.3829483" lon="7.7128883"><ele>343.0</ele><time>2026-03-24T14:48:57.444Z</time></trkpt><trkpt lat="45.38292" lon="7.71297"><ele>343.0</ele><time>2026-03-24T14:48:59.443Z</time></trkpt><trkpt lat="45.38287" lon="7.7130517"><ele>343.0</ele><time>2026-03-24T14:49:01.442Z</time></trkpt><trkpt lat="45.382865" lon="7.7131767"><ele>343.0</ele><time>2026-03-24T14:49:03.439Z</time></trkpt><trkpt lat="45.3828733" lon="7.7133"><ele>343.0</ele><time>2026-03-24T14:49:05.441Z</time></trkpt><trkpt lat="45.38289" lon="7.7134367"><ele>343.0</ele><time>2026-03-24T14:49:07.443Z</time></trkpt><trkpt lat="45.382895" lon="7.71358"><ele>343.0</ele><time>2026-03-24T14:49:09.444Z</time></trkpt><trkpt lat="45.382895" lon="7.7137317"><ele>343.0</ele><time>2026-03-24T14:49:11.442Z</time></trkpt><trkpt lat="45.3828933" lon="7.7138833"><ele>343.0</ele><time>2026-03-24T14:49:13.439Z</time></trkpt><trkpt lat="45.382885" lon="7.7140433"><ele>343.0</ele><time>2026-03-24T14:49:15.444Z</time></trkpt><trkpt lat="45.3828933" lon="7.7142117"><ele>343.0</ele><time>2026-03-24T14:49:17.443Z</time></trkpt><trkpt lat="45.3829033" lon="7.7143817"><ele>343.0</ele><time>2026-03-24T14:49:19.439Z</time></trkpt><trkpt lat="45.3829033" lon="7.7145567"><ele>342.75</ele><time>2026-03-24T14:49:21.439Z</time></trkpt><trkpt lat="45.382895" lon="7.7147317"><ele>342.5</ele><time>2026-03-24T14:49:23.447Z</time></trkpt><trkpt lat="45.3828883" lon="7.7149017"><ele>342.25</ele><time>2026-03-24T14:49:25.441Z</time></trkpt><trkpt lat="45.3828633" lon="7.715065"><ele>342.0</ele><time>2026-03-24T14:49:27.442Z</time></trkpt><trkpt lat="45.3828567" lon="7.7152317"><ele>342.0</ele><time>2026-03-24T14:49:29.441Z</time></trkpt><trkpt lat="45.382865" lon="7.715405"><ele>342.0</ele><time>2026-03-24T14:49:31.44Z</time></trkpt><trkpt lat="45.382865" lon="7.715565"><ele>342.0</ele><time>2026-03-24T14:49:33.44Z</time></trkpt><trkpt lat="45.3828667" lon="7.71573"><ele>342.0</ele><time>2026-03-24T14:49:35.445Z</time></trkpt><trkpt lat="45.38287" lon="7.7159017"><ele>342.0</ele><time>2026-03-24T14:49:37.445Z</time></trkpt><trkpt lat="45.3828683" lon="7.71608"><ele>342.0</ele><time>2026-03-24T14:49:39.441Z</time></trkpt><trkpt lat="45.3828667" lon="7.7161717"><ele>342.0</ele><time>2026-03-24T14:49:40.441Z</time></trkpt><trkpt lat="45.38286" lon="7.71635"><ele>342.0</ele><time>2026-03-24T14:49:42.446Z</time></trkpt><trkpt lat="45.3828517" lon="7.7165283"><ele>342.0</ele><time>2026-03-24T14:49:44.448Z</time></trkpt><trkpt lat="45.3828533" lon="7.7166183"><ele>342.0</ele><time>2026-03-24T14:49:45.441Z</time></trkpt><trkpt lat="45.38285" lon="7.716775"><ele>342.0</ele><time>2026-03-24T14:49:47.442Z</time></trkpt><trkpt lat="45.3828383" lon="7.7168867"><ele>342.0</ele><time>2026-03-24T14:49:49.438Z</time></trkpt><trkpt lat="45.3828133" lon="7.7170083"><ele>342.0</ele><time>2026-03-24T14:50:25.443Z</time></trkpt><trkpt lat="45.3828233" lon="7.7171067"><ele>342.0</ele><time>2026-03-24T14:50:28.438Z</time></trkpt><trkpt lat="45.3828217" lon="7.717245"><ele>342.0</ele><time>2026-03-24T14:50:31.446Z</time></trkpt><trkpt lat="45.3828333" lon="7.7173767"><ele>341.5</ele><time>2026-03-24T14:50:33.44Z</time></trkpt><trkpt lat="45.382855" lon="7.71748"><ele>341.0</ele><time>2026-03-24T14:50:35.438Z</time></trkpt><trkpt lat="45.3829217" lon="7.71749"><ele>340.5</ele><time>2026-03-24T14:50:37.439Z</time></trkpt><trkpt lat="45.3830417" lon="7.7174967"><ele>340.0</ele><time>2026-03-24T14:50:39.439Z</time></trkpt><trkpt lat="45.383105" lon="7.7174883"><ele>339.5</ele><time>2026-03-24T14:50:40.448Z</time></trkpt><trkpt lat="45.3831717" lon="7.7174867"><ele>339.0</ele><time>2026-03-24T14:50:41.438Z</time></trkpt><trkpt lat="45.3832867" lon="7.71748"><ele>339.0</ele><time>2026-03-24T14:50:43.447Z</time></trkpt><trkpt lat="45.3834083" lon="7.717465"><ele>339.0</ele><time>2026-03-24T14:50:45.442Z</time></trkpt><trkpt lat="45.3835333" lon="7.71745"><ele>339.0</ele><time>2026-03-24T14:50:47.44Z</time></trkpt><trkpt lat="45.3836533" lon="7.717445"><ele>339.0</ele><time>2026-03-24T14:50:49.44Z</time></trkpt><trkpt lat="45.3837733" lon="7.7174383"><ele>339.25</ele><time>2026-03-24T14:50:51.439Z</time></trkpt><trkpt lat="45.383885" lon="7.71742"><ele>339.5</ele><time>2026-03-24T14:50:53.442Z</time></trkpt><trkpt lat="45.3839983" lon="7.71743"><ele>339.75</ele><time>2026-03-24T14:50:55.441Z</time></trkpt><trkpt lat="45.3841117" lon="7.7174383"><ele>340.0</ele><time>2026-03-24T14:50:57.44Z</time></trkpt><trkpt lat="45.3842283" lon="7.71743"><ele>340.0</ele><time>2026-03-24T14:50:59.44Z</time></trkpt><trkpt lat="45.3843483" lon="7.7174183"><ele>340.0</ele><time>2026-03-24T14:51:01.442Z</time></trkpt><trkpt lat="45.38446" lon="7.7173883"><ele>340.0</ele><time>2026-03-24T14:51:03.443Z</time></trkpt><trkpt lat="45.3845767" lon="7.7173617"><ele>340.0</ele><time>2026-03-24T14:51:05.44Z</time></trkpt><trkpt lat="45.38469" lon="7.71733"><ele>340.6</ele><time>2026-03-24T14:51:07.441Z</time></trkpt><trkpt lat="45.3848067" lon="7.7173"><ele>341.2</ele><time>2026-03-24T14:51:09.44Z</time></trkpt><trkpt lat="45.38492" lon="7.7172617"><ele>341.79999999999995</ele><time>2026-03-24T14:51:11.439Z</time></trkpt><trkpt lat="45.3850283" lon="7.7172233"><ele>342.4</ele><time>2026-03-24T14:51:13.438Z</time></trkpt><trkpt lat="45.3851217" lon="7.7171867"><ele>343.0</ele><time>2026-03-24T14:51:15.442Z</time></trkpt><trkpt lat="45.3852167" lon="7.7171533"><ele>343.0</ele><time>2026-03-24T14:51:17.442Z</time></trkpt><trkpt lat="45.385315" lon="7.717115"><ele>343.0</ele><time>2026-03-24T14:51:19.44Z</time></trkpt><trkpt lat="45.385415" lon="7.7171083"><ele>343.0</ele><time>2026-03-24T14:51:21.448Z</time></trkpt><trkpt lat="45.3855083" lon="7.7171867"><ele>343.0</ele><time>2026-03-24T14:51:23.445Z</time></trkpt><trkpt lat="45.385515" lon="7.7173567"><ele>343.0</ele><time>2026-03-24T14:51:25.442Z</time></trkpt><trkpt lat="45.385535" lon="7.7175283"><ele>343.0</ele><time>2026-03-24T14:51:27.441Z</time></trkpt><trkpt lat="45.3855817" lon="7.7177117"><ele>343.0</ele><time>2026-03-24T14:51:29.441Z</time></trkpt><trkpt lat="45.3856033" lon="7.7178817"><ele>343.0</ele><time>2026-03-24T14:51:31.439Z</time></trkpt><trkpt lat="45.3856317" lon="7.7180567"><ele>343.0</ele><time>2026-03-24T14:51:33.44Z</time></trkpt><trkpt lat="45.3856417" lon="7.7181533"><ele>343.0</ele><time>2026-03-24T14:51:34.445Z</time></trkpt><trkpt lat="45.3856567" lon="7.7182433"><ele>343.0</ele><time>2026-03-24T14:51:35.439Z</time></trkpt><trkpt lat="45.3856717" lon="7.718335"><ele>343.0</ele><time>2026-03-24T14:51:36.444Z</time></trkpt><trkpt lat="45.3856983" lon="7.718515"><ele>343.0</ele><time>2026-03-24T14:51:38.441Z</time></trkpt><trkpt lat="45.3857233" lon="7.71869"><ele>343.0</ele><time>2026-03-24T14:51:40.441Z</time></trkpt><trkpt lat="45.38573" lon="7.7187933"><ele>342.5</ele><time>2026-03-24T14:51:41.441Z</time></trkpt><trkpt lat="45.3857383" lon="7.718895"><ele>342.0</ele><time>2026-03-24T14:51:42.439Z</time></trkpt><trkpt lat="45.38575" lon="7.718995"><ele>341.5</ele><time>2026-03-24T14:51:43.439Z</time></trkpt><trkpt lat="45.3857533" lon="7.71909"><ele>341.0</ele><time>2026-03-24T14:51:44.446Z</time></trkpt><trkpt lat="45.38576" lon="7.71919"><ele>340.5</ele><time>2026-03-24T14:51:45.439Z</time></trkpt><trkpt lat="45.385765" lon="7.7192883"><ele>340.0</ele><time>2026-03-24T14:51:46.441Z</time></trkpt><trkpt lat="45.385775" lon="7.7194683"><ele>340.0</ele><time>2026-03-24T14:51:48.446Z</time></trkpt><trkpt lat="45.3857733" lon="7.719565"><ele>340.0</ele><time>2026-03-24T14:51:49.439Z</time></trkpt><trkpt lat="45.3857783" lon="7.71966"><ele>340.0</ele><time>2026-03-24T14:51:50.443Z</time></trkpt><trkpt lat="45.3857867" lon="7.719755"><ele>340.0</ele><time>2026-03-24T14:51:51.443Z</time></trkpt><trkpt lat="45.3857967" lon="7.7198467"><ele>340.0</ele><time>2026-03-24T14:51:52.443Z</time></trkpt><trkpt lat="45.3858033" lon="7.7199367"><ele>340.0</ele><time>2026-03-24T14:51:53.441Z</time></trkpt><trkpt lat="45.38581" lon="7.7200267"><ele>340.0</ele><time>2026-03-24T14:51:54.445Z</time></trkpt><trkpt lat="45.385825" lon="7.7202"><ele>340.0</ele><time>2026-03-24T14:51:56.442Z</time></trkpt><trkpt lat="45.3858417" lon="7.72037"><ele>340.0</ele><time>2026-03-24T14:51:58.44Z</time></trkpt><trkpt lat="45.3858517" lon="7.7205433"><ele>340.0</ele><time>2026-03-24T14:52:00.439Z</time></trkpt><trkpt lat="45.38586" lon="7.7207183"><ele>340.0</ele><time>2026-03-24T14:52:02.441Z</time></trkpt><trkpt lat="45.385875" lon="7.7208933"><ele>340.0</ele><time>2026-03-24T14:52:04.44Z</time></trkpt><trkpt lat="45.3859033" lon="7.7210617"><ele>340.0</ele><time>2026-03-24T14:52:06.438Z</time></trkpt><trkpt lat="45.3859367" lon="7.721225"><ele>340.0</ele><time>2026-03-24T14:52:08.439Z</time></trkpt><trkpt lat="45.3859933" lon="7.7213833"><ele>340.0</ele><time>2026-03-24T14:52:10.438Z</time></trkpt><trkpt lat="45.3860617" lon="7.7215217"><ele>339.75</ele><time>2026-03-24T14:52:12.443Z</time></trkpt><trkpt lat="45.3861367" lon="7.7216483"><ele>339.5</ele><time>2026-03-24T14:52:14.445Z</time></trkpt><trkpt lat="45.3862183" lon="7.7217667"><ele>339.25</ele><time>2026-03-24T14:52:16.441Z</time></trkpt><trkpt lat="45.38631" lon="7.7218783"><ele>339.0</ele><time>2026-03-24T14:52:18.442Z</time></trkpt><trkpt lat="45.3864" lon="7.7219933"><ele>339.0</ele><time>2026-03-24T14:52:20.442Z</time></trkpt><trkpt lat="45.3864917" lon="7.722115"><ele>339.0</ele><time>2026-03-24T14:52:22.44Z</time></trkpt><trkpt lat="45.3865817" lon="7.72223"><ele>339.0</ele><time>2026-03-24T14:52:24.447Z</time></trkpt><trkpt lat="45.3866667" lon="7.7223433"><ele>339.0</ele><time>2026-03-24T14:52:26.442Z</time></trkpt><trkpt lat="45.38675" lon="7.7224533"><ele>339.0</ele><time>2026-03-24T14:52:28.438Z</time></trkpt><trkpt lat="45.3868283" lon="7.7225633"><ele>339.0</ele><time>2026-03-24T14:52:30.44Z</time></trkpt><trkpt lat="45.38691" lon="7.7226683"><ele>339.0</ele><time>2026-03-24T14:52:32.443Z</time></trkpt><trkpt lat="45.3869967" lon="7.7227667"><ele>339.0</ele><time>2026-03-24T14:52:34.447Z</time></trkpt><trkpt lat="45.3870967" lon="7.7228467"><ele>339.0</ele><time>2026-03-24T14:52:36.442Z</time></trkpt><trkpt lat="45.3872017" lon="7.722915"><ele>340.5</ele><time>2026-03-24T14:52:38.445Z</time></trkpt><trkpt lat="45.3873033" lon="7.7229817"><ele>342.0</ele><time>2026-03-24T14:52:40.442Z</time></trkpt><trkpt lat="45.3874067" lon="7.7230517"><ele>343.5</ele><time>2026-03-24T14:52:42.442Z</time></trkpt><trkpt lat="45.3875117" lon="7.7231283"><ele>345.0</ele><time>2026-03-24T14:52:44.441Z</time></trkpt><trkpt lat="45.3876133" lon="7.72321"><ele>345.0</ele><time>2026-03-24T14:52:46.439Z</time></trkpt><trkpt lat="45.387715" lon="7.72329"><ele>345.0</ele><time>2026-03-24T14:52:48.443Z</time></trkpt><trkpt lat="45.3878067" lon="7.7234067"><ele>345.0</ele><time>2026-03-24T14:52:50.439Z</time></trkpt><trkpt lat="45.38789" lon="7.7235367"><ele>345.0</ele><time>2026-03-24T14:52:52.437Z</time></trkpt><trkpt lat="45.3879767" lon="7.7236717"><ele>343.8</ele><time>2026-03-24T14:52:54.439Z</time></trkpt><trkpt lat="45.3880533" lon="7.723815"><ele>342.6</ele><time>2026-03-24T14:52:56.443Z</time></trkpt><trkpt lat="45.3881283" lon="7.7239567"><ele>341.4</ele><time>2026-03-24T14:52:58.44Z</time></trkpt><trkpt lat="45.3881667" lon="7.7240283"><ele>340.2</ele><time>2026-03-24T14:52:59.443Z</time></trkpt><trkpt lat="45.38824" lon="7.7241717"><ele>339.0</ele><time>2026-03-24T14:53:01.442Z</time></trkpt><trkpt lat="45.388315" lon="7.724305"><ele>339.25</ele><time>2026-03-24T14:53:03.44Z</time></trkpt><trkpt lat="45.3883883" lon="7.72444"><ele>339.5</ele><time>2026-03-24T14:53:05.445Z</time></trkpt><trkpt lat="45.3884617" lon="7.724575"><ele>339.75</ele><time>2026-03-24T14:53:07.442Z</time></trkpt><trkpt lat="45.388535" lon="7.7247083"><ele>340.0</ele><time>2026-03-24T14:53:09.439Z</time></trkpt><trkpt lat="45.3886067" lon="7.724845"><ele>340.0</ele><time>2026-03-24T14:53:11.443Z</time></trkpt><trkpt lat="45.3886733" lon="7.7249817"><ele>340.0</ele><time>2026-03-24T14:53:13.44Z</time></trkpt><trkpt lat="45.3887433" lon="7.725115"><ele>340.0</ele><time>2026-03-24T14:53:15.44Z</time></trkpt><trkpt lat="45.3888133" lon="7.725255"><ele>340.0</ele><time>2026-03-24T14:53:17.442Z</time></trkpt><trkpt lat="45.3888817" lon="7.725395"><ele>340.0</ele><time>2026-03-24T14:53:19.444Z</time></trkpt><trkpt lat="45.3889483" lon="7.7255383"><ele>340.0</ele><time>2026-03-24T14:53:21.44Z</time></trkpt><trkpt lat="45.3890217" lon="7.72568"><ele>340.0</ele><time>2026-03-24T14:53:23.44Z</time></trkpt><trkpt lat="45.3890933" lon="7.7258133"><ele>340.0</ele><time>2026-03-24T14:53:25.443Z</time></trkpt><trkpt lat="45.389165" lon="7.7259483"><ele>339.75</ele><time>2026-03-24T14:53:27.442Z</time></trkpt><trkpt lat="45.3892367" lon="7.7260817"><ele>339.5</ele><time>2026-03-24T14:53:29.439Z</time></trkpt><trkpt lat="45.38931" lon="7.7262167"><ele>339.25</ele><time>2026-03-24T14:53:31.444Z</time></trkpt><trkpt lat="45.3893817" lon="7.7263517"><ele>339.0</ele><time>2026-03-24T14:53:33.44Z</time></trkpt><trkpt lat="45.38945" lon="7.7264867"><ele>339.0</ele><time>2026-03-24T14:53:35.441Z</time></trkpt><trkpt lat="45.38952" lon="7.7266183"><ele>339.0</ele><time>2026-03-24T14:53:37.439Z</time></trkpt><trkpt lat="45.3895917" lon="7.726755"><ele>339.0</ele><time>2026-03-24T14:53:39.439Z</time></trkpt><trkpt lat="45.389665" lon="7.7268933"><ele>339.0</ele><time>2026-03-24T14:53:41.442Z</time></trkpt><trkpt lat="45.3897333" lon="7.7270283"><ele>339.25</ele><time>2026-03-24T14:53:43.444Z</time></trkpt><trkpt lat="45.389795" lon="7.7271633"><ele>339.5</ele><time>2026-03-24T14:53:45.44Z</time></trkpt><trkpt lat="45.3898617" lon="7.7273"><ele>339.75</ele><time>2026-03-24T14:53:47.441Z</time></trkpt><trkpt lat="45.3899283" lon="7.7274367"><ele>340.0</ele><time>2026-03-24T14:53:49.442Z</time></trkpt><trkpt lat="45.3900017" lon="7.7275667"><ele>340.0</ele><time>2026-03-24T14:53:51.442Z</time></trkpt><trkpt lat="45.3900733" lon="7.727695"><ele>340.0</ele><time>2026-03-24T14:53:53.442Z</time></trkpt><trkpt lat="45.39014" lon="7.7278167"><ele>340.0</ele><time>2026-03-24T14:53:55.439Z</time></trkpt><trkpt lat="45.3902083" lon="7.7279367"><ele>340.0</ele><time>2026-03-24T14:53:57.442Z</time></trkpt><trkpt lat="45.3902783" lon="7.7280517"><ele>340.0</ele><time>2026-03-24T14:53:59.44Z</time></trkpt><trkpt lat="45.3903517" lon="7.7281683"><ele>340.0</ele><time>2026-03-24T14:54:01.442Z</time></trkpt><trkpt lat="45.3904217" lon="7.728295"><ele>340.0</ele><time>2026-03-24T14:54:03.441Z</time></trkpt><trkpt lat="45.3904933" lon="7.728425"><ele>340.0</ele><time>2026-03-24T14:54:05.444Z</time></trkpt><trkpt lat="45.39056" lon="7.7285567"><ele>340.0</ele><time>2026-03-24T14:54:07.439Z</time></trkpt><trkpt lat="45.3906283" lon="7.7286833"><ele>340.5</ele><time>2026-03-24T14:54:09.443Z</time></trkpt><trkpt lat="45.3906983" lon="7.728815"><ele>341.0</ele><time>2026-03-24T14:54:11.441Z</time></trkpt><trkpt lat="45.390765" lon="7.7289467"><ele>341.5</ele><time>2026-03-24T14:54:13.44Z</time></trkpt><trkpt lat="45.3908333" lon="7.729075"><ele>342.0</ele><time>2026-03-24T14:54:15.444Z</time></trkpt><trkpt lat="45.3909033" lon="7.7292033"><ele>342.0</ele><time>2026-03-24T14:54:17.439Z</time></trkpt><trkpt lat="45.3909733" lon="7.729335"><ele>342.0</ele><time>2026-03-24T14:54:19.442Z</time></trkpt><trkpt lat="45.391045" lon="7.729465"><ele>342.0</ele><time>2026-03-24T14:54:21.439Z</time></trkpt><trkpt lat="45.3911133" lon="7.7295967"><ele>342.0</ele><time>2026-03-24T14:54:23.439Z</time></trkpt><trkpt lat="45.3911867" lon="7.72972"><ele>342.25</ele><time>2026-03-24T14:54:25.443Z</time></trkpt><trkpt lat="45.391255" lon="7.729855"><ele>342.5</ele><time>2026-03-24T14:54:27.442Z</time></trkpt><trkpt lat="45.3913233" lon="7.7299883"><ele>342.75</ele><time>2026-03-24T14:54:29.445Z</time></trkpt><trkpt lat="45.39139" lon="7.7301217"><ele>343.0</ele><time>2026-03-24T14:54:31.443Z</time></trkpt><trkpt lat="45.39146" lon="7.7302517"><ele>342.5</ele><time>2026-03-24T14:54:33.446Z</time></trkpt><trkpt lat="45.3915283" lon="7.7303917"><ele>342.0</ele><time>2026-03-24T14:54:35.443Z</time></trkpt><trkpt lat="45.3916" lon="7.730525"><ele>341.5</ele><time>2026-03-24T14:54:37.441Z</time></trkpt><trkpt lat="45.3916717" lon="7.7306567"><ele>341.0</ele><time>2026-03-24T14:54:39.44Z</time></trkpt><trkpt lat="45.3917467" lon="7.730785"><ele>341.0</ele><time>2026-03-24T14:54:41.441Z</time></trkpt><trkpt lat="45.3918217" lon="7.7309117"><ele>341.0</ele><time>2026-03-24T14:54:43.441Z</time></trkpt><trkpt lat="45.3918983" lon="7.7310333"><ele>341.0</ele><time>2026-03-24T14:54:45.444Z</time></trkpt><trkpt lat="45.39198" lon="7.731155"><ele>341.0</ele><time>2026-03-24T14:54:47.439Z</time></trkpt><trkpt lat="45.39206" lon="7.73128"><ele>341.5</ele><time>2026-03-24T14:54:49.437Z</time></trkpt><trkpt lat="45.39214" lon="7.7314033"><ele>342.0</ele><time>2026-03-24T14:54:51.441Z</time></trkpt><trkpt lat="45.3922217" lon="7.7315267"><ele>342.5</ele><time>2026-03-24T14:54:53.439Z</time></trkpt><trkpt lat="45.3922983" lon="7.7316583"><ele>343.0</ele><time>2026-03-24T14:54:55.438Z</time></trkpt><trkpt lat="45.3923617" lon="7.7318033"><ele>343.2</ele><time>2026-03-24T14:54:57.44Z</time></trkpt><trkpt lat="45.392405" lon="7.73196"><ele>343.4</ele><time>2026-03-24T14:54:59.446Z</time></trkpt><trkpt lat="45.3924233" lon="7.7321267"><ele>343.59999999999997</ele><time>2026-03-24T14:55:01.436Z</time></trkpt><trkpt lat="45.3924317" lon="7.7322983"><ele>343.79999999999995</ele><time>2026-03-24T14:55:03.44Z</time></trkpt><trkpt lat="45.392435" lon="7.7323883"><ele>344.0</ele><time>2026-03-24T14:55:04.44Z</time></trkpt><trkpt lat="45.3924333" lon="7.7325567"><ele>343.75</ele><time>2026-03-24T14:55:06.437Z</time></trkpt><trkpt lat="45.3924317" lon="7.7327283"><ele>343.5</ele><time>2026-03-24T14:55:08.442Z</time></trkpt><trkpt lat="45.392435" lon="7.7329"><ele>343.25</ele><time>2026-03-24T14:55:10.443Z</time></trkpt><trkpt lat="45.3924467" lon="7.7330533"><ele>343.0</ele><time>2026-03-24T14:55:12.441Z</time></trkpt><trkpt lat="45.3924533" lon="7.7332183"><ele>343.0</ele><time>2026-03-24T14:55:14.44Z</time></trkpt><trkpt lat="45.3924617" lon="7.7333883"><ele>343.0</ele><time>2026-03-24T14:55:16.439Z</time></trkpt><trkpt lat="45.3924733" lon="7.73356"><ele>343.0</ele><time>2026-03-24T14:55:18.438Z</time></trkpt><trkpt lat="45.3924833" lon="7.7337367"><ele>343.0</ele><time>2026-03-24T14:55:20.439Z</time></trkpt><trkpt lat="45.3925" lon="7.7339083"><ele>343.25</ele><time>2026-03-24T14:55:22.443Z</time></trkpt><trkpt lat="45.3925083" lon="7.734075"><ele>343.5</ele><time>2026-03-24T14:55:24.438Z</time></trkpt><trkpt lat="45.3925083" lon="7.73424"><ele>343.75</ele><time>2026-03-24T14:55:26.44Z</time></trkpt><trkpt lat="45.3925117" lon="7.734405"><ele>344.0</ele><time>2026-03-24T14:55:28.439Z</time></trkpt><trkpt lat="45.3925133" lon="7.7345717"><ele>344.0</ele><time>2026-03-24T14:55:30.44Z</time></trkpt><trkpt lat="45.3925117" lon="7.7347417"><ele>344.0</ele><time>2026-03-24T14:55:32.443Z</time></trkpt><trkpt lat="45.3925167" lon="7.7349033"><ele>344.0</ele><time>2026-03-24T14:55:34.449Z</time></trkpt><trkpt lat="45.39252" lon="7.7350733"><ele>344.0</ele><time>2026-03-24T14:55:36.442Z</time></trkpt><trkpt lat="45.392525" lon="7.7352383"><ele>344.25</ele><time>2026-03-24T14:55:38.44Z</time></trkpt><trkpt lat="45.3925283" lon="7.73541"><ele>344.5</ele><time>2026-03-24T14:55:40.44Z</time></trkpt><trkpt lat="45.3925333" lon="7.7355833"><ele>344.75</ele><time>2026-03-24T14:55:42.441Z</time></trkpt><trkpt lat="45.39254" lon="7.7357567"><ele>345.0</ele><time>2026-03-24T14:55:44.44Z</time></trkpt><trkpt lat="45.392545" lon="7.735925"><ele>345.5</ele><time>2026-03-24T14:55:46.438Z</time></trkpt><trkpt lat="45.3925483" lon="7.7360933"><ele>346.0</ele><time>2026-03-24T14:55:48.44Z</time></trkpt><trkpt lat="45.3925533" lon="7.73626"><ele>346.5</ele><time>2026-03-24T14:55:50.44Z</time></trkpt><trkpt lat="45.3925583" lon="7.7364267"><ele>347.0</ele><time>2026-03-24T14:55:52.441Z</time></trkpt><trkpt lat="45.3925533" lon="7.7366017"><ele>347.0</ele><time>2026-03-24T14:55:54.44Z</time></trkpt><trkpt lat="45.3925567" lon="7.7367733"><ele>347.0</ele><time>2026-03-24T14:55:56.441Z</time></trkpt><trkpt lat="45.3925667" lon="7.7369417"><ele>347.0</ele><time>2026-03-24T14:55:58.442Z</time></trkpt><trkpt lat="45.3925733" lon="7.7371133"><ele>347.0</ele><time>2026-03-24T14:56:00.441Z</time></trkpt><trkpt lat="45.392585" lon="7.7372833"><ele>347.0</ele><time>2026-03-24T14:56:02.44Z</time></trkpt><trkpt lat="45.3925967" lon="7.7374483"><ele>347.0</ele><time>2026-03-24T14:56:04.443Z</time></trkpt><trkpt lat="45.3926067" lon="7.7376133"><ele>347.0</ele><time>2026-03-24T14:56:06.441Z</time></trkpt><trkpt lat="45.3926183" lon="7.737775"><ele>347.0</ele><time>2026-03-24T14:56:08.447Z</time></trkpt><trkpt lat="45.3926267" lon="7.7379383"><ele>346.75</ele><time>2026-03-24T14:56:10.439Z</time></trkpt><trkpt lat="45.3926433" lon="7.7381083"><ele>346.5</ele><time>2026-03-24T14:56:12.444Z</time></trkpt><trkpt lat="45.3926567" lon="7.7382767"><ele>346.25</ele><time>2026-03-24T14:56:14.442Z</time></trkpt><trkpt lat="45.39267" lon="7.738445"><ele>346.0</ele><time>2026-03-24T14:56:16.443Z</time></trkpt><trkpt lat="45.39269" lon="7.73861"><ele>346.0</ele><time>2026-03-24T14:56:18.438Z</time></trkpt><trkpt lat="45.3927083" lon="7.738775"><ele>346.0</ele><time>2026-03-24T14:56:20.44Z</time></trkpt><trkpt lat="45.392725" lon="7.7389383"><ele>346.0</ele><time>2026-03-24T14:56:22.439Z</time></trkpt><trkpt lat="45.392735" lon="7.7391033"><ele>346.0</ele><time>2026-03-24T14:56:24.435Z</time></trkpt><trkpt lat="45.392755" lon="7.7392633"><ele>346.75</ele><time>2026-03-24T14:56:26.442Z</time></trkpt><trkpt lat="45.3927617" lon="7.7394233"><ele>347.5</ele><time>2026-03-24T14:56:28.439Z</time></trkpt><trkpt lat="45.3927667" lon="7.73959"><ele>348.25</ele><time>2026-03-24T14:56:30.439Z</time></trkpt><trkpt lat="45.39277" lon="7.7397533"><ele>349.0</ele><time>2026-03-24T14:56:32.44Z</time></trkpt><trkpt lat="45.39278" lon="7.7399217"><ele>349.0</ele><time>2026-03-24T14:56:34.441Z</time></trkpt><trkpt lat="45.3927867" lon="7.7400833"><ele>349.0</ele><time>2026-03-24T14:56:36.441Z</time></trkpt><trkpt lat="45.3928033" lon="7.74025"><ele>349.0</ele><time>2026-03-24T14:56:38.44Z</time></trkpt><trkpt lat="45.3928167" lon="7.7404133"><ele>349.0</ele><time>2026-03-24T14:56:40.437Z</time></trkpt><trkpt lat="45.3928383" lon="7.7405767"><ele>349.5</ele><time>2026-03-24T14:56:42.443Z</time></trkpt><trkpt lat="45.39285" lon="7.7407417"><ele>350.0</ele><time>2026-03-24T14:56:44.443Z</time></trkpt><trkpt lat="45.3928633" lon="7.74091"><ele>350.5</ele><time>2026-03-24T14:56:46.445Z</time></trkpt><trkpt lat="45.3928717" lon="7.7410783"><ele>351.0</ele><time>2026-03-24T14:56:48.441Z</time></trkpt><trkpt lat="45.3928833" lon="7.74124"><ele>351.4</ele><time>2026-03-24T14:56:50.44Z</time></trkpt><trkpt lat="45.3928917" lon="7.741395"><ele>351.8</ele><time>2026-03-24T14:56:52.442Z</time></trkpt><trkpt lat="45.392895" lon="7.7415433"><ele>352.2</ele><time>2026-03-24T14:56:54.435Z</time></trkpt><trkpt lat="45.3928983" lon="7.741685"><ele>352.59999999999997</ele><time>2026-03-24T14:56:56.437Z</time></trkpt><trkpt lat="45.3929067" lon="7.7418217"><ele>353.0</ele><time>2026-03-24T14:56:58.438Z</time></trkpt><trkpt lat="45.3929133" lon="7.7419583"><ele>353.4</ele><time>2026-03-24T14:57:00.443Z</time></trkpt><trkpt lat="45.39292" lon="7.7420917"><ele>353.79999999999995</ele><time>2026-03-24T14:57:02.442Z</time></trkpt><trkpt lat="45.3929233" lon="7.7422183"><ele>354.2</ele><time>2026-03-24T14:57:04.438Z</time></trkpt><trkpt lat="45.3929317" lon="7.7423483"><ele>354.6</ele><time>2026-03-24T14:57:06.442Z</time></trkpt><trkpt lat="45.3929383" lon="7.7424833"><ele>355.0</ele><time>2026-03-24T14:57:08.442Z</time></trkpt><trkpt lat="45.3929483" lon="7.7426217"><ele>354.8</ele><time>2026-03-24T14:57:10.439Z</time></trkpt><trkpt lat="45.39296" lon="7.7427533"><ele>354.6</ele><time>2026-03-24T14:57:12.438Z</time></trkpt><trkpt lat="45.3929683" lon="7.742885"><ele>354.4</ele><time>2026-03-24T14:57:14.445Z</time></trkpt><trkpt lat="45.3929783" lon="7.74301"><ele>354.2</ele><time>2026-03-24T14:57:16.442Z</time></trkpt><trkpt lat="45.392985" lon="7.7431383"><ele>354.0</ele><time>2026-03-24T14:57:18.44Z</time></trkpt><trkpt lat="45.3929883" lon="7.7432717"><ele>354.0</ele><time>2026-03-24T14:57:20.442Z</time></trkpt><trkpt lat="45.3929933" lon="7.7434033"><ele>354.0</ele><time>2026-03-24T14:57:22.438Z</time></trkpt><trkpt lat="45.3929983" lon="7.743535"><ele>354.0</ele><time>2026-03-24T14:57:24.443Z</time></trkpt><trkpt lat="45.3930067" lon="7.74367"><ele>354.0</ele><time>2026-03-24T14:57:26.44Z</time></trkpt><trkpt lat="45.3930117" lon="7.7438033"><ele>354.0</ele><time>2026-03-24T14:57:28.451Z</time></trkpt><trkpt lat="45.3930117" lon="7.7439417"><ele>354.79999999999995</ele><time>2026-03-24T14:57:30.446Z</time></trkpt><trkpt lat="45.3930183" lon="7.7440767"><ele>355.59999999999997</ele><time>2026-03-24T14:57:32.443Z</time></trkpt><trkpt lat="45.393025" lon="7.74421"><ele>356.4</ele><time>2026-03-24T14:57:34.443Z</time></trkpt><trkpt lat="45.3930333" lon="7.7443433"><ele>357.2</ele><time>2026-03-24T14:57:36.442Z</time></trkpt><trkpt lat="45.3930467" lon="7.7444783"><ele>358.0</ele><time>2026-03-24T14:57:38.44Z</time></trkpt><trkpt lat="45.3930517" lon="7.7446167"><ele>358.0</ele><time>2026-03-24T14:57:40.439Z</time></trkpt><trkpt lat="45.3930617" lon="7.744755"><ele>358.0</ele><time>2026-03-24T14:57:42.443Z</time></trkpt><trkpt lat="45.3930667" lon="7.7448917"><ele>358.0</ele><time>2026-03-24T14:57:44.443Z</time></trkpt><trkpt lat="45.3930717" lon="7.7450283"><ele>358.0</ele><time>2026-03-24T14:57:46.439Z</time></trkpt><trkpt lat="45.3930783" lon="7.7451633"><ele>358.0</ele><time>2026-03-24T14:57:48.443Z</time></trkpt><trkpt lat="45.3930867" lon="7.7452983"><ele>358.0</ele><time>2026-03-24T14:57:50.442Z</time></trkpt><trkpt lat="45.393095" lon="7.7454367"><ele>358.0</ele><time>2026-03-24T14:57:52.438Z</time></trkpt><trkpt lat="45.3930967" lon="7.745575"><ele>358.0</ele><time>2026-03-24T14:57:54.442Z</time></trkpt><trkpt lat="45.3930983" lon="7.7457183"><ele>358.0</ele><time>2026-03-24T14:57:56.441Z</time></trkpt><trkpt lat="45.3931083" lon="7.7458717"><ele>358.0</ele><time>2026-03-24T14:57:58.441Z</time></trkpt><trkpt lat="45.3931217" lon="7.7460317"><ele>358.3333333333333</ele><time>2026-03-24T14:58:00.441Z</time></trkpt><trkpt lat="45.393135" lon="7.7462017"><ele>358.66666666666663</ele><time>2026-03-24T14:58:02.442Z</time></trkpt><trkpt lat="45.3931533" lon="7.746375"><ele>359.0</ele><time>2026-03-24T14:58:04.442Z</time></trkpt><trkpt lat="45.3931567" lon="7.7464683"><ele>359.3333333333333</ele><time>2026-03-24T14:58:05.442Z</time></trkpt><trkpt lat="45.3931633" lon="7.7465583"><ele>359.6666666666667</ele><time>2026-03-24T14:58:06.442Z</time></trkpt><trkpt lat="45.3931683" lon="7.7466483"><ele>360.0</ele><time>2026-03-24T14:58:07.442Z</time></trkpt><trkpt lat="45.3931733" lon="7.7467417"><ele>360.0</ele><time>2026-03-24T14:58:08.444Z</time></trkpt><trkpt lat="45.393175" lon="7.746835"><ele>360.0</ele><time>2026-03-24T14:58:09.443Z</time></trkpt><trkpt lat="45.39318" lon="7.74693"><ele>360.0</ele><time>2026-03-24T14:58:10.438Z</time></trkpt><trkpt lat="45.3931833" lon="7.7470317"><ele>360.0</ele><time>2026-03-24T14:58:11.441Z</time></trkpt><trkpt lat="45.3931883" lon="7.74713"><ele>360.0</ele><time>2026-03-24T14:58:12.438Z</time></trkpt><trkpt lat="45.3931917" lon="7.7472283"><ele>360.0</ele><time>2026-03-24T14:58:13.439Z</time></trkpt><trkpt lat="45.3931967" lon="7.747325"><ele>360.0</ele><time>2026-03-24T14:58:14.442Z</time></trkpt><trkpt lat="45.3932033" lon="7.7474233"><ele>360.3333333333333</ele><time>2026-03-24T14:58:15.438Z</time></trkpt><trkpt lat="45.3932067" lon="7.7475183"><ele>360.6666666666667</ele><time>2026-03-24T14:58:16.439Z</time></trkpt><trkpt lat="45.3932117" lon="7.7476133"><ele>361.0</ele><time>2026-03-24T14:58:17.441Z</time></trkpt><trkpt lat="45.3932183" lon="7.747705"><ele>361.33333333333337</ele><time>2026-03-24T14:58:18.444Z</time></trkpt><trkpt lat="45.3932267" lon="7.74788"><ele>361.6666666666667</ele><time>2026-03-24T14:58:20.444Z</time></trkpt><trkpt lat="45.393235" lon="7.7480517"><ele>362.0</ele><time>2026-03-24T14:58:22.444Z</time></trkpt><trkpt lat="45.3932417" lon="7.7482167"><ele>362.0</ele><time>2026-03-24T14:58:24.439Z</time></trkpt><trkpt lat="45.3932517" lon="7.7483767"><ele>362.0</ele><time>2026-03-24T14:58:26.444Z</time></trkpt><trkpt lat="45.3932617" lon="7.7485333"><ele>362.0</ele><time>2026-03-24T14:58:28.443Z</time></trkpt><trkpt lat="45.393275" lon="7.7486883"><ele>362.0</ele><time>2026-03-24T14:58:30.439Z</time></trkpt><trkpt lat="45.3932867" lon="7.7488367"><ele>362.0</ele><time>2026-03-24T14:58:32.447Z</time></trkpt><trkpt lat="45.3932933" lon="7.74899"><ele>362.40000000000003</ele><time>2026-03-24T14:58:34.447Z</time></trkpt><trkpt lat="45.3933017" lon="7.74914"><ele>362.8</ele><time>2026-03-24T14:58:36.443Z</time></trkpt><trkpt lat="45.3933017" lon="7.7492883"><ele>363.2</ele><time>2026-03-24T14:58:38.442Z</time></trkpt><trkpt lat="45.39331" lon="7.7494367"><ele>363.6</ele><time>2026-03-24T14:58:40.442Z</time></trkpt><trkpt lat="45.3933217" lon="7.7495883"><ele>364.0</ele><time>2026-03-24T14:58:42.443Z</time></trkpt><trkpt lat="45.3933367" lon="7.7497367"><ele>364.79999999999995</ele><time>2026-03-24T14:58:44.442Z</time></trkpt><trkpt lat="45.393345" lon="7.74989"><ele>365.59999999999997</ele><time>2026-03-24T14:58:46.444Z</time></trkpt><trkpt lat="45.393355" lon="7.7500467"><ele>366.4</ele><time>2026-03-24T14:58:48.441Z</time></trkpt><trkpt lat="45.3933717" lon="7.7502033"><ele>367.2</ele><time>2026-03-24T14:58:50.445Z</time></trkpt><trkpt lat="45.3933867" lon="7.7503667"><ele>368.0</ele><time>2026-03-24T14:58:52.445Z</time></trkpt><trkpt lat="45.3934" lon="7.7505283"><ele>369.0</ele><time>2026-03-24T14:58:54.441Z</time></trkpt><trkpt lat="45.3934133" lon="7.7506917"><ele>370.0</ele><time>2026-03-24T14:58:56.442Z</time></trkpt><trkpt lat="45.3934283" lon="7.7508533"><ele>371.0</ele><time>2026-03-24T14:58:58.443Z</time></trkpt><trkpt lat="45.3934283" lon="7.75101"><ele>372.0</ele><time>2026-03-24T14:59:00.439Z</time></trkpt><trkpt lat="45.393445" lon="7.7511633"><ele>373.0</ele><time>2026-03-24T14:59:02.444Z</time></trkpt><trkpt lat="45.3934617" lon="7.7513133"><ele>374.0</ele><time>2026-03-24T14:59:04.441Z</time></trkpt><trkpt lat="45.3934817" lon="7.7514617"><ele>375.0</ele><time>2026-03-24T14:59:06.444Z</time></trkpt><trkpt lat="45.3934967" lon="7.751605"><ele>376.0</ele><time>2026-03-24T14:59:08.444Z</time></trkpt><trkpt lat="45.39349" lon="7.751735"><ele>377.0</ele><time>2026-03-24T14:59:10.442Z</time></trkpt><trkpt lat="45.3935067" lon="7.751875"><ele>378.0</ele><time>2026-03-24T14:59:12.442Z</time></trkpt><trkpt lat="45.39351" lon="7.7519983"><ele>378.42857142857144</ele><time>2026-03-24T14:59:14.444Z</time></trkpt><trkpt lat="45.3935183" lon="7.7521117"><ele>378.8571428571429</ele><time>2026-03-24T14:59:16.444Z</time></trkpt><trkpt lat="45.39352" lon="7.7522183"><ele>379.2857142857143</ele><time>2026-03-24T14:59:18.445Z</time></trkpt><trkpt lat="45.393535" lon="7.75232"><ele>379.7142857142857</ele><time>2026-03-24T14:59:20.448Z</time></trkpt><trkpt lat="45.3935517" lon="7.752425"><ele>380.14285714285717</ele><time>2026-03-24T14:59:22.443Z</time></trkpt><trkpt lat="45.3935533" lon="7.752515"><ele>380.57142857142856</ele><time>2026-03-24T14:59:24.443Z</time></trkpt><trkpt lat="45.3935517" lon="7.7526083"><ele>381.0</ele><time>2026-03-24T14:59:26.448Z</time></trkpt><trkpt lat="45.3935583" lon="7.75271"><ele>381.0</ele><time>2026-03-24T14:59:28.44Z</time></trkpt><trkpt lat="45.393565" lon="7.7528183"><ele>381.0</ele><time>2026-03-24T14:59:30.441Z</time></trkpt><trkpt lat="45.3935717" lon="7.75292"><ele>381.0</ele><time>2026-03-24T14:59:32.438Z</time></trkpt><trkpt lat="45.3935833" lon="7.7530167"><ele>381.0</ele><time>2026-03-24T14:59:34.441Z</time></trkpt><trkpt lat="45.3935917" lon="7.7531117"><ele>381.0</ele><time>2026-03-24T14:59:36.443Z</time></trkpt><trkpt lat="45.3936" lon="7.7532183"><ele>381.0</ele><time>2026-03-24T14:59:38.44Z</time></trkpt><trkpt lat="45.3935933" lon="7.7533317"><ele>381.0</ele><time>2026-03-24T14:59:40.442Z</time></trkpt><trkpt lat="45.3935917" lon="7.7534383"><ele>381.0</ele><time>2026-03-24T14:59:42.44Z</time></trkpt><trkpt lat="45.393595" lon="7.7535417"><ele>381.0</ele><time>2026-03-24T14:59:44.451Z</time></trkpt><trkpt lat="45.3935767" lon="7.753635"><ele>381.0</ele><time>2026-03-24T14:59:46.439Z</time></trkpt><trkpt lat="45.3935883" lon="7.7537983"><ele>381.0</ele><time>2026-03-24T15:00:15.442Z</time></trkpt><trkpt lat="45.3935783" lon="7.75391"><ele>381.0</ele><time>2026-03-24T15:00:19.444Z</time></trkpt><trkpt lat="45.393575" lon="7.7540217"><ele>381.0</ele><time>2026-03-24T15:00:23.445Z</time></trkpt><trkpt lat="45.39359" lon="7.7541367"><ele>381.0</ele><time>2026-03-24T15:00:26.445Z</time></trkpt><trkpt lat="45.3935917" lon="7.7542383"><ele>381.0</ele><time>2026-03-24T15:00:28.444Z</time></trkpt><trkpt lat="45.39359" lon="7.754345"><ele>381.0</ele><time>2026-03-24T15:00:30.44Z</time></trkpt><trkpt lat="45.39359" lon="7.754455"><ele>381.0</ele><time>2026-03-24T15:00:32.44Z</time></trkpt><trkpt lat="45.3935867" lon="7.75457"><ele>381.0</ele><time>2026-03-24T15:00:34.441Z</time></trkpt><trkpt lat="45.3935867" lon="7.7546817"><ele>381.0</ele><time>2026-03-24T15:00:36.444Z</time></trkpt><trkpt lat="45.3935933" lon="7.7547933"><ele>381.1666666666667</ele><time>2026-03-24T15:00:38.44Z</time></trkpt><trkpt lat="45.393595" lon="7.7549033"><ele>381.3333333333333</ele><time>2026-03-24T15:00:40.44Z</time></trkpt><trkpt lat="45.393585" lon="7.7550083"><ele>381.5</ele><time>2026-03-24T15:00:42.44Z</time></trkpt><trkpt lat="45.393575" lon="7.7551083"><ele>381.66666666666663</ele><time>2026-03-24T15:00:44.445Z</time></trkpt><trkpt lat="45.3935483" lon="7.75521"><ele>381.8333333333333</ele><time>2026-03-24T15:00:46.442Z</time></trkpt><trkpt lat="45.3935233" lon="7.7553183"><ele>382.0</ele><time>2026-03-24T15:00:48.44Z</time></trkpt><trkpt lat="45.3935017" lon="7.7554417"><ele>382.3333333333333</ele><time>2026-03-24T15:00:50.442Z</time></trkpt><trkpt lat="45.3934833" lon="7.7555433"><ele>382.66666666666663</ele><time>2026-03-24T15:00:52.444Z</time></trkpt><trkpt lat="45.393455" lon="7.7556483"><ele>383.0</ele><time>2026-03-24T15:00:55.444Z</time></trkpt><trkpt lat="45.3934417" lon="7.75576"><ele>383.3333333333333</ele><time>2026-03-24T15:02:44.446Z</time></trkpt><trkpt lat="45.3934083" lon="7.7558617"><ele>383.6666666666667</ele><time>2026-03-24T15:02:47.441Z</time></trkpt><trkpt lat="45.393385" lon="7.7559567"><ele>384.0</ele><time>2026-03-24T15:02:49.44Z</time></trkpt><trkpt lat="45.3933617" lon="7.7560533"><ele>384.3333333333333</ele><time>2026-03-24T15:02:51.443Z</time></trkpt><trkpt lat="45.3933433" lon="7.75616"><ele>384.66666666666663</ele><time>2026-03-24T15:02:53.444Z</time></trkpt><trkpt lat="45.3933333" lon="7.7562717"><ele>385.0</ele><time>2026-03-24T15:02:55.445Z</time></trkpt><trkpt lat="45.3933283" lon="7.7563833"><ele>385.3333333333333</ele><time>2026-03-24T15:02:57.438Z</time></trkpt><trkpt lat="45.3933183" lon="7.756495"><ele>385.66666666666663</ele><time>2026-03-24T15:02:59.44Z</time></trkpt><trkpt lat="45.3933033" lon="7.7566"><ele>386.0</ele><time>2026-03-24T15:03:01.441Z</time></trkpt><trkpt lat="45.3932717" lon="7.756695"><ele>385.99999999999994</ele><time>2026-03-24T15:03:03.439Z</time></trkpt><trkpt lat="45.3932233" lon="7.7567767"><ele>386.0</ele><time>2026-03-24T15:03:05.441Z</time></trkpt><trkpt lat="45.39316" lon="7.7568433"><ele>386.0</ele><time>2026-03-24T15:03:07.438Z</time></trkpt><trkpt lat="45.3930883" lon="7.756895"><ele>386.0</ele><time>2026-03-24T15:03:09.441Z</time></trkpt><trkpt lat="45.393005" lon="7.7569433"><ele>385.99999999999994</ele><time>2026-03-24T15:03:11.44Z</time></trkpt><trkpt lat="45.3929167" lon="7.7569717"><ele>386.0</ele><time>2026-03-24T15:03:13.436Z</time></trkpt><trkpt lat="45.3928183" lon="7.7570067"><ele>386.20000000000005</ele><time>2026-03-24T15:03:15.441Z</time></trkpt><trkpt lat="45.3927167" lon="7.7570517"><ele>386.40000000000003</ele><time>2026-03-24T15:03:17.44Z</time></trkpt><trkpt lat="45.39261" lon="7.757095"><ele>386.6</ele><time>2026-03-24T15:03:19.448Z</time></trkpt><trkpt lat="45.3925067" lon="7.7571333"><ele>386.8</ele><time>2026-03-24T15:03:21.439Z</time></trkpt><trkpt lat="45.3923983" lon="7.75718"><ele>387.0</ele><time>2026-03-24T15:03:23.444Z</time></trkpt><trkpt lat="45.3922833" lon="7.757235"><ele>387.0</ele><time>2026-03-24T15:03:25.441Z</time></trkpt><trkpt lat="45.3922217" lon="7.7572583"><ele>387.0</ele><time>2026-03-24T15:03:26.447Z</time></trkpt><trkpt lat="45.3921033" lon="7.7573033"><ele>387.0</ele><time>2026-03-24T15:03:28.44Z</time></trkpt><trkpt lat="45.3920433" lon="7.7573317"><ele>387.0</ele><time>2026-03-24T15:03:29.441Z</time></trkpt><trkpt lat="45.3919817" lon="7.757355"><ele>387.0</ele><time>2026-03-24T15:03:30.44Z</time></trkpt><trkpt lat="45.39192" lon="7.7573783"><ele>387.0</ele><time>2026-03-24T15:03:31.439Z</time></trkpt><trkpt lat="45.3918" lon="7.757425"><ele>386.20000000000005</ele><time>2026-03-24T15:03:33.439Z</time></trkpt><trkpt lat="45.3916783" lon="7.757475"><ele>385.4</ele><time>2026-03-24T15:03:35.439Z</time></trkpt><trkpt lat="45.3915583" lon="7.7575217"><ele>384.6</ele><time>2026-03-24T15:03:37.439Z</time></trkpt><trkpt lat="45.3914967" lon="7.757545"><ele>383.79999999999995</ele><time>2026-03-24T15:03:38.442Z</time></trkpt><trkpt lat="45.3913767" lon="7.757595"><ele>383.0</ele><time>2026-03-24T15:03:40.442Z</time></trkpt><trkpt lat="45.3912533" lon="7.757635"><ele>382.6666666666667</ele><time>2026-03-24T15:03:42.447Z</time></trkpt><trkpt lat="45.39119" lon="7.7576583"><ele>382.33333333333337</ele><time>2026-03-24T15:03:43.44Z</time></trkpt><trkpt lat="45.3910683" lon="7.7577033"><ele>382.0</ele><time>2026-03-24T15:03:45.441Z</time></trkpt><trkpt lat="45.3910067" lon="7.7577283"><ele>381.6666666666667</ele><time>2026-03-24T15:03:46.447Z</time></trkpt><trkpt lat="45.390945" lon="7.7577517"><ele>381.3333333333333</ele><time>2026-03-24T15:03:47.44Z</time></trkpt><trkpt lat="45.3908833" lon="7.757775"><ele>381.0</ele><time>2026-03-24T15:03:48.442Z</time></trkpt><trkpt lat="45.390765" lon="7.7578217"><ele>380.8333333333333</ele><time>2026-03-24T15:03:50.445Z</time></trkpt><trkpt lat="45.3906467" lon="7.7578683"><ele>380.6666666666667</ele><time>2026-03-24T15:03:52.44Z</time></trkpt><trkpt lat="45.390585" lon="7.7578917"><ele>380.5</ele><time>2026-03-24T15:03:53.443Z</time></trkpt><trkpt lat="45.390465" lon="7.75794"><ele>380.33333333333337</ele><time>2026-03-24T15:03:55.442Z</time></trkpt><trkpt lat="45.3904033" lon="7.7579617"><ele>380.1666666666667</ele><time>2026-03-24T15:03:56.443Z</time></trkpt><trkpt lat="45.3903417" lon="7.7579833"><ele>380.0</ele><time>2026-03-24T15:03:57.441Z</time></trkpt><trkpt lat="45.3902217" lon="7.7580333"><ele>379.75</ele><time>2026-03-24T15:03:59.442Z</time></trkpt><trkpt lat="45.3901017" lon="7.7580817"><ele>379.5</ele><time>2026-03-24T15:04:01.441Z</time></trkpt><trkpt lat="45.3899833" lon="7.75813"><ele>379.25</ele><time>2026-03-24T15:04:03.441Z</time></trkpt><trkpt lat="45.3898633" lon="7.7581767"><ele>379.0</ele><time>2026-03-24T15:04:05.442Z</time></trkpt><trkpt lat="45.38974" lon="7.7582233"><ele>378.75</ele><time>2026-03-24T15:04:07.442Z</time></trkpt><trkpt lat="45.3896233" lon="7.758265"><ele>378.5</ele><time>2026-03-24T15:04:09.444Z</time></trkpt><trkpt lat="45.3895067" lon="7.7583067"><ele>378.25</ele><time>2026-03-24T15:04:11.445Z</time></trkpt><trkpt lat="45.3893933" lon="7.7583533"><ele>378.0</ele><time>2026-03-24T15:04:13.441Z</time></trkpt><trkpt lat="45.3892817" lon="7.758395"><ele>378.0</ele><time>2026-03-24T15:04:15.442Z</time></trkpt><trkpt lat="45.3891717" lon="7.7584117"><ele>378.0</ele><time>2026-03-24T15:04:17.441Z</time></trkpt><trkpt lat="45.3890533" lon="7.7584267"><ele>378.0</ele><time>2026-03-24T15:04:19.441Z</time></trkpt><trkpt lat="45.38899" lon="7.7584317"><ele>378.0</ele><time>2026-03-24T15:04:20.439Z</time></trkpt><trkpt lat="45.388875" lon="7.75838"><ele>378.0</ele><time>2026-03-24T15:04:22.44Z</time></trkpt><trkpt lat="45.3888117" lon="7.75834"><ele>377.6666666666667</ele><time>2026-03-24T15:04:23.445Z</time></trkpt><trkpt lat="45.3887433" lon="7.758305"><ele>377.3333333333333</ele><time>2026-03-24T15:04:24.443Z</time></trkpt><trkpt lat="45.3886733" lon="7.7582717"><ele>377.0</ele><time>2026-03-24T15:04:25.445Z</time></trkpt><trkpt lat="45.3886" lon="7.75824"><ele>376.66666666666663</ele><time>2026-03-24T15:04:26.441Z</time></trkpt><trkpt lat="45.3885267" lon="7.7582117"><ele>376.3333333333333</ele><time>2026-03-24T15:04:27.445Z</time></trkpt><trkpt lat="45.388455" lon="7.75818"><ele>376.0</ele><time>2026-03-24T15:04:28.444Z</time></trkpt><trkpt lat="45.3883833" lon="7.7581467"><ele>376.0</ele><time>2026-03-24T15:04:29.441Z</time></trkpt><trkpt lat="45.3883133" lon="7.7581183"><ele>376.0</ele><time>2026-03-24T15:04:30.439Z</time></trkpt><trkpt lat="45.388245" lon="7.7580933"><ele>376.0</ele><time>2026-03-24T15:04:31.44Z</time></trkpt><trkpt lat="45.388175" lon="7.758065"><ele>376.0</ele><time>2026-03-24T15:04:32.445Z</time></trkpt><trkpt lat="45.388105" lon="7.7580367"><ele>376.0</ele><time>2026-03-24T15:04:33.437Z</time></trkpt><trkpt lat="45.3880333" lon="7.7580083"><ele>376.0</ele><time>2026-03-24T15:04:34.441Z</time></trkpt><trkpt lat="45.3879633" lon="7.7579833"><ele>376.0</ele><time>2026-03-24T15:04:35.441Z</time></trkpt><trkpt lat="45.38789" lon="7.7579617"><ele>375.42857142857144</ele><time>2026-03-24T15:04:36.439Z</time></trkpt><trkpt lat="45.3878167" lon="7.757945"><ele>374.85714285714283</ele><time>2026-03-24T15:04:37.441Z</time></trkpt><trkpt lat="45.387745" lon="7.7579283"><ele>374.28571428571433</ele><time>2026-03-24T15:04:38.442Z</time></trkpt><trkpt lat="45.3876683" lon="7.7579167"><ele>373.7142857142857</ele><time>2026-03-24T15:04:39.441Z</time></trkpt><trkpt lat="45.3875967" lon="7.75791"><ele>373.14285714285717</ele><time>2026-03-24T15:04:40.442Z</time></trkpt><trkpt lat="45.3875267" lon="7.7579117"><ele>372.5714285714286</ele><time>2026-03-24T15:04:41.44Z</time></trkpt><trkpt lat="45.387455" lon="7.7579183"><ele>372.0</ele><time>2026-03-24T15:04:42.442Z</time></trkpt><trkpt lat="45.387385" lon="7.7579267"><ele>372.00000000000006</ele><time>2026-03-24T15:04:43.445Z</time></trkpt><trkpt lat="45.3873167" lon="7.75794"><ele>372.0</ele><time>2026-03-24T15:04:44.44Z</time></trkpt><trkpt lat="45.387245" lon="7.75796"><ele>372.0</ele><time>2026-03-24T15:04:45.442Z</time></trkpt><trkpt lat="45.3871733" lon="7.75798"><ele>372.0</ele><time>2026-03-24T15:04:46.441Z</time></trkpt><trkpt lat="45.3871017" lon="7.7580017"><ele>372.0</ele><time>2026-03-24T15:04:47.445Z</time></trkpt><trkpt lat="45.3870317" lon="7.758025"><ele>372.00000000000006</ele><time>2026-03-24T15:04:48.44Z</time></trkpt><trkpt lat="45.38696" lon="7.7580517"><ele>372.0</ele><time>2026-03-24T15:04:49.442Z</time></trkpt><trkpt lat="45.3868917" lon="7.7580783"><ele>371.8571428571429</ele><time>2026-03-24T15:04:50.44Z</time></trkpt><trkpt lat="45.3868183" lon="7.758105"><ele>371.7142857142857</ele><time>2026-03-24T15:04:51.442Z</time></trkpt><trkpt lat="45.3867483" lon="7.7581317"><ele>371.57142857142856</ele><time>2026-03-24T15:04:52.444Z</time></trkpt><trkpt lat="45.3866783" lon="7.7581633"><ele>371.42857142857144</ele><time>2026-03-24T15:04:53.442Z</time></trkpt><trkpt lat="45.3866067" lon="7.758195"><ele>371.2857142857143</ele><time>2026-03-24T15:04:54.441Z</time></trkpt><trkpt lat="45.3865367" lon="7.7582267"><ele>371.14285714285717</ele><time>2026-03-24T15:04:55.446Z</time></trkpt><trkpt lat="45.3864633" lon="7.758255"><ele>371.0</ele><time>2026-03-24T15:04:56.445Z</time></trkpt><trkpt lat="45.3863883" lon="7.7582817"><ele>370.0</ele><time>2026-03-24T15:04:57.442Z</time></trkpt><trkpt lat="45.3863133" lon="7.7583083"><ele>369.0</ele><time>2026-03-24T15:04:58.441Z</time></trkpt><trkpt lat="45.3862367" lon="7.7583367"><ele>368.0</ele><time>2026-03-24T15:04:59.439Z</time></trkpt><trkpt lat="45.38616" lon="7.7583667"><ele>367.0</ele><time>2026-03-24T15:05:00.447Z</time></trkpt><trkpt lat="45.3860833" lon="7.7583933"><ele>366.0</ele><time>2026-03-24T15:05:01.441Z</time></trkpt><trkpt lat="45.3860033" lon="7.758415"><ele>365.0</ele><time>2026-03-24T15:05:02.441Z</time></trkpt><trkpt lat="45.3859267" lon="7.75844"><ele>365.0</ele><time>2026-03-24T15:05:03.439Z</time></trkpt><trkpt lat="45.3858467" lon="7.7584667"><ele>365.0</ele><time>2026-03-24T15:05:04.44Z</time></trkpt><trkpt lat="45.3857683" lon="7.7584967"><ele>365.0</ele><time>2026-03-24T15:05:05.44Z</time></trkpt><trkpt lat="45.385695" lon="7.7585417"><ele>365.0</ele><time>2026-03-24T15:05:06.441Z</time></trkpt><trkpt lat="45.3856283" lon="7.7585933"><ele>365.0</ele><time>2026-03-24T15:05:07.442Z</time></trkpt><trkpt lat="45.3855683" lon="7.7586567"><ele>365.0</ele><time>2026-03-24T15:05:08.442Z</time></trkpt><trkpt lat="45.3855183" lon="7.758725"><ele>364.6</ele><time>2026-03-24T15:05:09.437Z</time></trkpt><trkpt lat="45.385475" lon="7.7587933"><ele>364.2</ele><time>2026-03-24T15:05:10.449Z</time></trkpt><trkpt lat="45.3853967" lon="7.758925"><ele>363.79999999999995</ele><time>2026-03-24T15:05:12.442Z</time></trkpt><trkpt lat="45.3853267" lon="7.7590533"><ele>363.4</ele><time>2026-03-24T15:05:14.443Z</time></trkpt><trkpt lat="45.385255" lon="7.7591833"><ele>363.0</ele><time>2026-03-24T15:05:16.44Z</time></trkpt><trkpt lat="45.3851817" lon="7.75931"><ele>363.75</ele><time>2026-03-24T15:05:18.441Z</time></trkpt><trkpt lat="45.3851117" lon="7.75944"><ele>364.5</ele><time>2026-03-24T15:05:20.44Z</time></trkpt><trkpt lat="45.38504" lon="7.7595667"><ele>365.25</ele><time>2026-03-24T15:05:22.44Z</time></trkpt><trkpt lat="45.38496" lon="7.759685"><ele>366.0</ele><time>2026-03-24T15:05:24.441Z</time></trkpt><trkpt lat="45.384865" lon="7.7597867"><ele>366.0</ele><time>2026-03-24T15:05:26.442Z</time></trkpt><trkpt lat="45.3847717" lon="7.7598867"><ele>366.0</ele><time>2026-03-24T15:05:28.441Z</time></trkpt><trkpt lat="45.3846783" lon="7.7599817"><ele>366.0</ele><time>2026-03-24T15:05:30.441Z</time></trkpt><trkpt lat="45.38458" lon="7.7600517"><ele>366.0</ele><time>2026-03-24T15:05:32.44Z</time></trkpt><trkpt lat="45.384475" lon="7.7601183"><ele>366.25</ele><time>2026-03-24T15:05:34.444Z</time></trkpt><trkpt lat="45.384365" lon="7.76019"><ele>366.5</ele><time>2026-03-24T15:05:36.439Z</time></trkpt><trkpt lat="45.384255" lon="7.76026"><ele>366.75</ele><time>2026-03-24T15:05:38.438Z</time></trkpt><trkpt lat="45.3841467" lon="7.760335"><ele>367.0</ele><time>2026-03-24T15:05:40.439Z</time></trkpt><trkpt lat="45.38404" lon="7.760405"><ele>367.0</ele><time>2026-03-24T15:05:42.444Z</time></trkpt><trkpt lat="45.3839333" lon="7.7604667"><ele>367.0</ele><time>2026-03-24T15:05:44.442Z</time></trkpt><trkpt lat="45.3838333" lon="7.7605333"><ele>367.0</ele><time>2026-03-24T15:05:46.442Z</time></trkpt><trkpt lat="45.38373" lon="7.7606033"><ele>367.0</ele><time>2026-03-24T15:05:48.441Z</time></trkpt><trkpt lat="45.3836217" lon="7.76067"><ele>366.40000000000003</ele><time>2026-03-24T15:05:50.44Z</time></trkpt><trkpt lat="45.3835117" lon="7.7607417"><ele>365.8</ele><time>2026-03-24T15:05:52.44Z</time></trkpt><trkpt lat="45.3834" lon="7.7608117"><ele>365.2</ele><time>2026-03-24T15:05:54.438Z</time></trkpt><trkpt lat="45.3833417" lon="7.76085"><ele>364.6</ele><time>2026-03-24T15:05:55.443Z</time></trkpt><trkpt lat="45.3832267" lon="7.760925"><ele>364.0</ele><time>2026-03-24T15:05:57.438Z</time></trkpt><trkpt lat="45.383115" lon="7.761"><ele>364.0</ele><time>2026-03-24T15:05:59.447Z</time></trkpt><trkpt lat="45.3830033" lon="7.761075"><ele>364.0</ele><time>2026-03-24T15:06:01.439Z</time></trkpt><trkpt lat="45.3829467" lon="7.7611167"><ele>364.0</ele><time>2026-03-24T15:06:02.447Z</time></trkpt><trkpt lat="45.38289" lon="7.7611567"><ele>364.0</ele><time>2026-03-24T15:06:03.446Z</time></trkpt><trkpt lat="45.3827767" lon="7.7612267"><ele>364.0</ele><time>2026-03-24T15:06:05.447Z</time></trkpt><trkpt lat="45.38272" lon="7.7612683"><ele>364.0</ele><time>2026-03-24T15:06:06.444Z</time></trkpt><trkpt lat="45.3826633" lon="7.76131"><ele>364.0</ele><time>2026-03-24T15:06:07.443Z</time></trkpt><trkpt lat="45.3825517" lon="7.7613833"><ele>364.0</ele><time>2026-03-24T15:06:09.441Z</time></trkpt><trkpt lat="45.38244" lon="7.7614583"><ele>364.0</ele><time>2026-03-24T15:06:11.443Z</time></trkpt><trkpt lat="45.3823283" lon="7.761535"><ele>364.0</ele><time>2026-03-24T15:06:13.438Z</time></trkpt><trkpt lat="45.382215" lon="7.7615917"><ele>363.25</ele><time>2026-03-24T15:06:15.438Z</time></trkpt><trkpt lat="45.382105" lon="7.7616533"><ele>362.5</ele><time>2026-03-24T15:06:17.439Z</time></trkpt><trkpt lat="45.381995" lon="7.761735"><ele>361.75</ele><time>2026-03-24T15:06:19.44Z</time></trkpt><trkpt lat="45.38188" lon="7.7618017"><ele>361.0</ele><time>2026-03-24T15:06:21.439Z</time></trkpt><trkpt lat="45.3817633" lon="7.761875"><ele>361.0</ele><time>2026-03-24T15:06:23.44Z</time></trkpt><trkpt lat="45.381705" lon="7.7619167"><ele>361.0</ele><time>2026-03-24T15:06:24.439Z</time></trkpt><trkpt lat="45.3815933" lon="7.7619983"><ele>361.0</ele><time>2026-03-24T15:06:26.448Z</time></trkpt><trkpt lat="45.3814833" lon="7.762075"><ele>361.0</ele><time>2026-03-24T15:06:28.442Z</time></trkpt><trkpt lat="45.38137" lon="7.7621417"><ele>361.0</ele><time>2026-03-24T15:06:30.438Z</time></trkpt><trkpt lat="45.3812583" lon="7.76221"><ele>360.3333333333333</ele><time>2026-03-24T15:06:32.444Z</time></trkpt><trkpt lat="45.3811467" lon="7.762285"><ele>359.66666666666663</ele><time>2026-03-24T15:06:34.439Z</time></trkpt><trkpt lat="45.3810333" lon="7.7623617"><ele>359.0</ele><time>2026-03-24T15:06:36.441Z</time></trkpt><trkpt lat="45.3809767" lon="7.7624017"><ele>358.3333333333333</ele><time>2026-03-24T15:06:37.439Z</time></trkpt><trkpt lat="45.3809167" lon="7.76244"><ele>357.6666666666667</ele><time>2026-03-24T15:06:38.441Z</time></trkpt><trkpt lat="45.3808567" lon="7.762475"><ele>357.0</ele><time>2026-03-24T15:06:39.438Z</time></trkpt><trkpt lat="45.3807983" lon="7.7625117"><ele>357.0</ele><time>2026-03-24T15:06:40.441Z</time></trkpt><trkpt lat="45.380685" lon="7.7625867"><ele>357.0</ele><time>2026-03-24T15:06:42.441Z</time></trkpt><trkpt lat="45.3806283" lon="7.7626267"><ele>357.0</ele><time>2026-03-24T15:06:43.442Z</time></trkpt><trkpt lat="45.3805717" lon="7.7626683"><ele>357.0</ele><time>2026-03-24T15:06:44.443Z</time></trkpt><trkpt lat="45.3804617" lon="7.762745"><ele>357.0</ele><time>2026-03-24T15:06:46.442Z</time></trkpt><trkpt lat="45.38035" lon="7.762815"><ele>357.40000000000003</ele><time>2026-03-24T15:06:48.438Z</time></trkpt><trkpt lat="45.3802383" lon="7.7628883"><ele>357.8</ele><time>2026-03-24T15:06:50.442Z</time></trkpt><trkpt lat="45.38018" lon="7.7629283"><ele>358.2</ele><time>2026-03-24T15:06:51.436Z</time></trkpt><trkpt lat="45.3800683" lon="7.7630017"><ele>358.6</ele><time>2026-03-24T15:06:53.441Z</time></trkpt><trkpt lat="45.3799533" lon="7.7630733"><ele>359.0</ele><time>2026-03-24T15:06:55.439Z</time></trkpt><trkpt lat="45.379895" lon="7.76311"><ele>359.0</ele><time>2026-03-24T15:06:56.442Z</time></trkpt><trkpt lat="45.379785" lon="7.7631783"><ele>359.0</ele><time>2026-03-24T15:06:58.438Z</time></trkpt><trkpt lat="45.3796717" lon="7.7632433"><ele>359.0</ele><time>2026-03-24T15:07:00.439Z</time></trkpt><trkpt lat="45.3796117" lon="7.7632733"><ele>359.0</ele><time>2026-03-24T15:07:01.44Z</time></trkpt><trkpt lat="45.3794883" lon="7.7633167"><ele>359.0</ele><time>2026-03-24T15:07:03.444Z</time></trkpt><trkpt lat="45.3793617" lon="7.7633517"><ele>358.2</ele><time>2026-03-24T15:07:05.444Z</time></trkpt><trkpt lat="45.3792383" lon="7.7633767"><ele>357.4</ele><time>2026-03-24T15:07:07.439Z</time></trkpt><trkpt lat="45.379115" lon="7.7634017"><ele>356.6</ele><time>2026-03-24T15:07:09.443Z</time></trkpt><trkpt lat="45.37899" lon="7.7634233"><ele>355.8</ele><time>2026-03-24T15:07:11.444Z</time></trkpt><trkpt lat="45.3789267" lon="7.7634333"><ele>355.0</ele><time>2026-03-24T15:07:12.444Z</time></trkpt><trkpt lat="45.3788633" lon="7.7634417"><ele>354.8</ele><time>2026-03-24T15:07:13.44Z</time></trkpt><trkpt lat="45.3787367" lon="7.7634583"><ele>354.6</ele><time>2026-03-24T15:07:15.439Z</time></trkpt><trkpt lat="45.3786117" lon="7.7634867"><ele>354.4</ele><time>2026-03-24T15:07:17.443Z</time></trkpt><trkpt lat="45.378545" lon="7.7634967"><ele>354.2</ele><time>2026-03-24T15:07:18.445Z</time></trkpt><trkpt lat="45.3784783" lon="7.7635117"><ele>354.0</ele><time>2026-03-24T15:07:19.441Z</time></trkpt><trkpt lat="45.3784133" lon="7.7635233"><ele>353.7142857142857</ele><time>2026-03-24T15:07:20.446Z</time></trkpt><trkpt lat="45.3783467" lon="7.763535"><ele>353.4285714285714</ele><time>2026-03-24T15:07:21.441Z</time></trkpt><trkpt lat="45.37828" lon="7.763545"><ele>353.1428571428571</ele><time>2026-03-24T15:07:22.439Z</time></trkpt><trkpt lat="45.3782133" lon="7.7635583"><ele>352.8571428571429</ele><time>2026-03-24T15:07:23.44Z</time></trkpt><trkpt lat="45.3781467" lon="7.7635683"><ele>352.57142857142856</ele><time>2026-03-24T15:07:24.445Z</time></trkpt><trkpt lat="45.3780817" lon="7.7635783"><ele>352.2857142857143</ele><time>2026-03-24T15:07:25.448Z</time></trkpt><trkpt lat="45.3780167" lon="7.7635883"><ele>352.0</ele><time>2026-03-24T15:07:26.443Z</time></trkpt><trkpt lat="45.3779517" lon="7.7635983"><ele>351.8571428571429</ele><time>2026-03-24T15:07:27.439Z</time></trkpt><trkpt lat="45.3778883" lon="7.7636033"><ele>351.7142857142857</ele><time>2026-03-24T15:07:28.442Z</time></trkpt><trkpt lat="45.3778233" lon="7.7636133"><ele>351.57142857142856</ele><time>2026-03-24T15:07:29.439Z</time></trkpt><trkpt lat="45.3776983" lon="7.763635"><ele>351.42857142857144</ele><time>2026-03-24T15:07:31.44Z</time></trkpt><trkpt lat="45.3776333" lon="7.7636467"><ele>351.2857142857143</ele><time>2026-03-24T15:07:32.442Z</time></trkpt><trkpt lat="45.3775683" lon="7.7636583"><ele>351.14285714285717</ele><time>2026-03-24T15:07:33.439Z</time></trkpt><trkpt lat="45.377505" lon="7.7636683"><ele>351.0</ele><time>2026-03-24T15:07:34.44Z</time></trkpt><trkpt lat="45.3774417" lon="7.7636783"><ele>351.0</ele><time>2026-03-24T15:07:35.444Z</time></trkpt><trkpt lat="45.3773183" lon="7.7637033"><ele>351.0</ele><time>2026-03-24T15:07:37.439Z</time></trkpt><trkpt lat="45.3771933" lon="7.7637233"><ele>351.0</ele><time>2026-03-24T15:07:39.443Z</time></trkpt><trkpt lat="45.3770683" lon="7.76374"><ele>351.0</ele><time>2026-03-24T15:07:41.44Z</time></trkpt><trkpt lat="45.377005" lon="7.76375"><ele>351.0</ele><time>2026-03-24T15:07:42.44Z</time></trkpt><trkpt lat="45.3769417" lon="7.7637633"><ele>350.5</ele><time>2026-03-24T15:07:43.441Z</time></trkpt><trkpt lat="45.3768183" lon="7.76379"><ele>350.0</ele><time>2026-03-24T15:07:45.44Z</time></trkpt><trkpt lat="45.376695" lon="7.7638083"><ele>349.5</ele><time>2026-03-24T15:07:47.439Z</time></trkpt><trkpt lat="45.3765733" lon="7.7638267"><ele>349.0</ele><time>2026-03-24T15:07:49.442Z</time></trkpt><trkpt lat="45.37645" lon="7.7638433"><ele>349.0</ele><time>2026-03-24T15:07:51.442Z</time></trkpt><trkpt lat="45.3763867" lon="7.7638533"><ele>349.0</ele><time>2026-03-24T15:07:52.441Z</time></trkpt><trkpt lat="45.3763217" lon="7.7638667"><ele>349.0</ele><time>2026-03-24T15:07:53.442Z</time></trkpt><trkpt lat="45.3761983" lon="7.7638833"><ele>349.0</ele><time>2026-03-24T15:07:55.442Z</time></trkpt><trkpt lat="45.376075" lon="7.7639017"><ele>349.0</ele><time>2026-03-24T15:07:57.442Z</time></trkpt><trkpt lat="45.375955" lon="7.7639217"><ele>349.0</ele><time>2026-03-24T15:07:59.439Z</time></trkpt><trkpt lat="45.3758333" lon="7.7639417"><ele>349.0</ele><time>2026-03-24T15:08:01.44Z</time></trkpt><trkpt lat="45.37571" lon="7.7639583"><ele>349.0</ele><time>2026-03-24T15:08:03.441Z</time></trkpt><trkpt lat="45.375645" lon="7.7639667"><ele>349.0</ele><time>2026-03-24T15:08:04.44Z</time></trkpt><trkpt lat="45.3755217" lon="7.763985"><ele>349.0</ele><time>2026-03-24T15:08:06.444Z</time></trkpt><trkpt lat="45.3753983" lon="7.764005"><ele>349.0</ele><time>2026-03-24T15:08:08.442Z</time></trkpt><trkpt lat="45.3752733" lon="7.7640283"><ele>349.0</ele><time>2026-03-24T15:08:10.441Z</time></trkpt><trkpt lat="45.3751467" lon="7.7640517"><ele>349.0</ele><time>2026-03-24T15:08:12.439Z</time></trkpt><trkpt lat="45.3750233" lon="7.7640817"><ele>349.0</ele><time>2026-03-24T15:08:14.443Z</time></trkpt><trkpt lat="45.37496" lon="7.7640883"><ele>349.0</ele><time>2026-03-24T15:08:15.443Z</time></trkpt><trkpt lat="45.3748367" lon="7.7641083"><ele>349.0</ele><time>2026-03-24T15:08:17.438Z</time></trkpt><trkpt lat="45.3747133" lon="7.7641233"><ele>349.0</ele><time>2026-03-24T15:08:19.443Z</time></trkpt><trkpt lat="45.3745883" lon="7.7641467"><ele>349.0</ele><time>2026-03-24T15:08:21.439Z</time></trkpt><trkpt lat="45.374525" lon="7.764155"><ele>349.0</ele><time>2026-03-24T15:08:22.443Z</time></trkpt><trkpt lat="45.3744617" lon="7.7641633"><ele>349.0</ele><time>2026-03-24T15:08:23.442Z</time></trkpt><trkpt lat="45.3743367" lon="7.7641817"><ele>348.79999999999995</ele><time>2026-03-24T15:08:25.44Z</time></trkpt><trkpt lat="45.3742733" lon="7.7641933"><ele>348.59999999999997</ele><time>2026-03-24T15:08:26.442Z</time></trkpt><trkpt lat="45.3741483" lon="7.7642133"><ele>348.4</ele><time>2026-03-24T15:08:28.441Z</time></trkpt><trkpt lat="45.3740267" lon="7.7642333"><ele>348.2</ele><time>2026-03-24T15:08:30.44Z</time></trkpt><trkpt lat="45.3739033" lon="7.76426"><ele>348.0</ele><time>2026-03-24T15:08:32.442Z</time></trkpt><trkpt lat="45.3737783" lon="7.76428"><ele>347.85714285714283</ele><time>2026-03-24T15:08:34.446Z</time></trkpt><trkpt lat="45.3737133" lon="7.7642917"><ele>347.7142857142857</ele><time>2026-03-24T15:08:35.444Z</time></trkpt><trkpt lat="45.3736483" lon="7.7643033"><ele>347.57142857142856</ele><time>2026-03-24T15:08:36.441Z</time></trkpt><trkpt lat="45.373585" lon="7.7643117"><ele>347.42857142857144</ele><time>2026-03-24T15:08:37.44Z</time></trkpt><trkpt lat="45.37352" lon="7.76432"><ele>347.2857142857143</ele><time>2026-03-24T15:08:38.441Z</time></trkpt><trkpt lat="45.3734567" lon="7.7643317"><ele>347.14285714285717</ele><time>2026-03-24T15:08:39.442Z</time></trkpt><trkpt lat="45.3733917" lon="7.7643433"><ele>347.0</ele><time>2026-03-24T15:08:40.442Z</time></trkpt><trkpt lat="45.3733283" lon="7.7643567"><ele>347.0</ele><time>2026-03-24T15:08:41.443Z</time></trkpt><trkpt lat="45.3732633" lon="7.764365"><ele>347.0</ele><time>2026-03-24T15:08:42.443Z</time></trkpt><trkpt lat="45.3732" lon="7.7643733"><ele>347.0</ele><time>2026-03-24T15:08:43.441Z</time></trkpt><trkpt lat="45.3731367" lon="7.7643833"><ele>347.0</ele><time>2026-03-24T15:08:44.436Z</time></trkpt><trkpt lat="45.3730117" lon="7.764405"><ele>347.0</ele><time>2026-03-24T15:08:46.441Z</time></trkpt><trkpt lat="45.3728883" lon="7.7644317"><ele>347.0</ele><time>2026-03-24T15:08:48.441Z</time></trkpt><trkpt lat="45.372765" lon="7.7644533"><ele>347.0</ele><time>2026-03-24T15:08:50.441Z</time></trkpt><trkpt lat="45.3726417" lon="7.7644733"><ele>347.0</ele><time>2026-03-24T15:08:52.449Z</time></trkpt><trkpt lat="45.3725183" lon="7.7644933"><ele>347.0</ele><time>2026-03-24T15:08:54.444Z</time></trkpt><trkpt lat="45.3723967" lon="7.7645133"><ele>347.0</ele><time>2026-03-24T15:08:56.445Z</time></trkpt><trkpt lat="45.372275" lon="7.7645333"><ele>346.5</ele><time>2026-03-24T15:08:58.441Z</time></trkpt><trkpt lat="45.3721533" lon="7.76455"><ele>346.0</ele><time>2026-03-24T15:09:00.447Z</time></trkpt><trkpt lat="45.3720883" lon="7.7645567"><ele>345.5</ele><time>2026-03-24T15:09:01.445Z</time></trkpt><trkpt lat="45.372025" lon="7.76456"><ele>345.0</ele><time>2026-03-24T15:09:02.44Z</time></trkpt><trkpt lat="45.3719617" lon="7.7645567"><ele>344.5</ele><time>2026-03-24T15:09:03.437Z</time></trkpt><trkpt lat="45.3718417" lon="7.7645317"><ele>344.0</ele><time>2026-03-24T15:09:05.44Z</time></trkpt><trkpt lat="45.3717283" lon="7.7644783"><ele>344.0</ele><time>2026-03-24T15:09:07.441Z</time></trkpt><trkpt lat="45.3716167" lon="7.7643967"><ele>344.0</ele><time>2026-03-24T15:09:09.441Z</time></trkpt><trkpt lat="45.37152" lon="7.7642883"><ele>344.0</ele><time>2026-03-24T15:09:11.441Z</time></trkpt><trkpt lat="45.3714367" lon="7.7641667"><ele>344.0</ele><time>2026-03-24T15:09:13.441Z</time></trkpt><trkpt lat="45.3713683" lon="7.7640233"><ele>344.0</ele><time>2026-03-24T15:09:15.438Z</time></trkpt><trkpt lat="45.3713067" lon="7.7638717"><ele>344.0</ele><time>2026-03-24T15:09:17.446Z</time></trkpt><trkpt lat="45.3712533" lon="7.7637183"><ele>344.0</ele><time>2026-03-24T15:09:19.439Z</time></trkpt><trkpt lat="45.3711967" lon="7.7635633"><ele>344.0</ele><time>2026-03-24T15:09:21.438Z</time></trkpt><trkpt lat="45.3711367" lon="7.7634017"><ele>344.25</ele><time>2026-03-24T15:09:23.443Z</time></trkpt><trkpt lat="45.3710817" lon="7.7632433"><ele>344.5</ele><time>2026-03-24T15:09:25.447Z</time></trkpt><trkpt lat="45.371025" lon="7.763085"><ele>344.75</ele><time>2026-03-24T15:09:27.437Z</time></trkpt><trkpt lat="45.370975" lon="7.7629283"><ele>345.0</ele><time>2026-03-24T15:09:29.443Z</time></trkpt><trkpt lat="45.3709233" lon="7.7627717"><ele>344.6</ele><time>2026-03-24T15:09:31.443Z</time></trkpt><trkpt lat="45.3708683" lon="7.7626183"><ele>344.2</ele><time>2026-03-24T15:09:33.44Z</time></trkpt><trkpt lat="45.3708083" lon="7.7624617"><ele>343.79999999999995</ele><time>2026-03-24T15:09:35.441Z</time></trkpt><trkpt lat="45.370775" lon="7.7623833"><ele>343.4</ele><time>2026-03-24T15:09:36.441Z</time></trkpt><trkpt lat="45.3707433" lon="7.762305"><ele>343.0</ele><time>2026-03-24T15:09:37.437Z</time></trkpt><trkpt lat="45.3706783" lon="7.7621567"><ele>343.0</ele><time>2026-03-24T15:09:39.441Z</time></trkpt><trkpt lat="45.3706417" lon="7.7620817"><ele>343.0</ele><time>2026-03-24T15:09:40.442Z</time></trkpt><trkpt lat="45.370565" lon="7.7619367"><ele>343.0</ele><time>2026-03-24T15:09:42.439Z</time></trkpt><trkpt lat="45.3705267" lon="7.7618633"><ele>343.0</ele><time>2026-03-24T15:09:43.444Z</time></trkpt><trkpt lat="45.3704867" lon="7.7617883"><ele>343.0</ele><time>2026-03-24T15:09:44.44Z</time></trkpt><trkpt lat="45.3704467" lon="7.7617183"><ele>343.0</ele><time>2026-03-24T15:09:45.44Z</time></trkpt><trkpt lat="45.370405" lon="7.76165"><ele>343.0</ele><time>2026-03-24T15:09:46.441Z</time></trkpt><trkpt lat="45.3703617" lon="7.7615833"><ele>343.0</ele><time>2026-03-24T15:09:47.445Z</time></trkpt><trkpt lat="45.3703167" lon="7.76152"><ele>343.0</ele><time>2026-03-24T15:09:48.447Z</time></trkpt><trkpt lat="45.370225" lon="7.761395"><ele>343.0</ele><time>2026-03-24T15:09:50.444Z</time></trkpt><trkpt lat="45.370175" lon="7.761335"><ele>343.0</ele><time>2026-03-24T15:09:51.441Z</time></trkpt><trkpt lat="45.3700767" lon="7.7612133"><ele>343.0</ele><time>2026-03-24T15:09:53.441Z</time></trkpt><trkpt lat="45.3700267" lon="7.7611517"><ele>343.0</ele><time>2026-03-24T15:09:54.442Z</time></trkpt><trkpt lat="45.36993" lon="7.7610417"><ele>343.0</ele><time>2026-03-24T15:09:56.445Z</time></trkpt><trkpt lat="45.36988" lon="7.7609867"><ele>343.0</ele><time>2026-03-24T15:09:57.44Z</time></trkpt><trkpt lat="45.3697783" lon="7.7608783"><ele>343.0</ele><time>2026-03-24T15:09:59.444Z</time></trkpt><trkpt lat="45.3696733" lon="7.7607817"><ele>343.0</ele><time>2026-03-24T15:10:01.439Z</time></trkpt><trkpt lat="45.3696183" lon="7.7607333"><ele>342.59999999999997</ele><time>2026-03-24T15:10:02.444Z</time></trkpt><trkpt lat="45.3695617" lon="7.7606883"><ele>342.2</ele><time>2026-03-24T15:10:03.441Z</time></trkpt><trkpt lat="45.3694517" lon="7.7606083"><ele>341.8</ele><time>2026-03-24T15:10:05.441Z</time></trkpt><trkpt lat="45.3693383" lon="7.7605333"><ele>341.4</ele><time>2026-03-24T15:10:07.437Z</time></trkpt><trkpt lat="45.3692217" lon="7.7604617"><ele>341.0</ele><time>2026-03-24T15:10:09.441Z</time></trkpt><trkpt lat="45.3691617" lon="7.7604283"><ele>341.0</ele><time>2026-03-24T15:10:10.437Z</time></trkpt><trkpt lat="45.3691017" lon="7.7603967"><ele>341.0</ele><time>2026-03-24T15:10:11.44Z</time></trkpt><trkpt lat="45.3690417" lon="7.7603683"><ele>341.0</ele><time>2026-03-24T15:10:12.438Z</time></trkpt><trkpt lat="45.36898" lon="7.76034"><ele>341.0</ele><time>2026-03-24T15:10:13.442Z</time></trkpt><trkpt lat="45.3688583" lon="7.7602883"><ele>341.0</ele><time>2026-03-24T15:10:15.443Z</time></trkpt><trkpt lat="45.3687933" lon="7.7602633"><ele>341.0</ele><time>2026-03-24T15:10:16.442Z</time></trkpt><trkpt lat="45.3687267" lon="7.7602417"><ele>340.85714285714283</ele><time>2026-03-24T15:10:17.441Z</time></trkpt><trkpt lat="45.3686583" lon="7.7602233"><ele>340.7142857142857</ele><time>2026-03-24T15:10:18.442Z</time></trkpt><trkpt lat="45.36859" lon="7.7602033"><ele>340.57142857142856</ele><time>2026-03-24T15:10:19.439Z</time></trkpt><trkpt lat="45.3685217" lon="7.7601883"><ele>340.42857142857144</ele><time>2026-03-24T15:10:20.443Z</time></trkpt><trkpt lat="45.368455" lon="7.7601733"><ele>340.2857142857143</ele><time>2026-03-24T15:10:21.439Z</time></trkpt><trkpt lat="45.3683867" lon="7.7601617"><ele>340.14285714285717</ele><time>2026-03-24T15:10:22.442Z</time></trkpt><trkpt lat="45.368315" lon="7.76015"><ele>340.0</ele><time>2026-03-24T15:10:23.44Z</time></trkpt><trkpt lat="45.3682433" lon="7.76014"><ele>340.0</ele><time>2026-03-24T15:10:24.443Z</time></trkpt><trkpt lat="45.36817" lon="7.7601317"><ele>340.0</ele><time>2026-03-24T15:10:25.443Z</time></trkpt><trkpt lat="45.3680967" lon="7.7601217"><ele>340.0</ele><time>2026-03-24T15:10:26.443Z</time></trkpt><trkpt lat="45.3680233" lon="7.7601117"><ele>340.0</ele><time>2026-03-24T15:10:27.443Z</time></trkpt><trkpt lat="45.3679517" lon="7.7601033"><ele>340.0</ele><time>2026-03-24T15:10:28.443Z</time></trkpt><trkpt lat="45.3678733" lon="7.760095"><ele>340.0</ele><time>2026-03-24T15:10:29.445Z</time></trkpt><trkpt lat="45.3677933" lon="7.7600917"><ele>339.5</ele><time>2026-03-24T15:10:30.442Z</time></trkpt><trkpt lat="45.3677117" lon="7.760085"><ele>339.0</ele><time>2026-03-24T15:10:31.438Z</time></trkpt><trkpt lat="45.3676317" lon="7.7600783"><ele>338.5</ele><time>2026-03-24T15:10:32.443Z</time></trkpt><trkpt lat="45.3675467" lon="7.7600733"><ele>338.0</ele><time>2026-03-24T15:10:33.439Z</time></trkpt><trkpt lat="45.36746" lon="7.76007"><ele>337.5</ele><time>2026-03-24T15:10:34.44Z</time></trkpt><trkpt lat="45.3673733" lon="7.7600617"><ele>337.0</ele><time>2026-03-24T15:10:35.444Z</time></trkpt><trkpt lat="45.367285" lon="7.76005"><ele>337.0</ele><time>2026-03-24T15:10:36.438Z</time></trkpt><trkpt lat="45.367195" lon="7.7600433"><ele>337.0</ele><time>2026-03-24T15:10:37.444Z</time></trkpt><trkpt lat="45.3671033" lon="7.7600317"><ele>337.0</ele><time>2026-03-24T15:10:38.444Z</time></trkpt><trkpt lat="45.36701" lon="7.760015"><ele>337.0</ele><time>2026-03-24T15:10:39.438Z</time></trkpt><trkpt lat="45.36692" lon="7.7600067"><ele>337.0</ele><time>2026-03-24T15:10:40.441Z</time></trkpt><trkpt lat="45.366825" lon="7.7599933"><ele>336.40000000000003</ele><time>2026-03-24T15:10:41.44Z</time></trkpt><trkpt lat="45.3667283" lon="7.7599783"><ele>335.8</ele><time>2026-03-24T15:10:42.442Z</time></trkpt><trkpt lat="45.366625" lon="7.7599617"><ele>335.2</ele><time>2026-03-24T15:10:43.442Z</time></trkpt><trkpt lat="45.36652" lon="7.7599467"><ele>334.6</ele><time>2026-03-24T15:10:44.443Z</time></trkpt><trkpt lat="45.3664183" lon="7.7599333"><ele>334.0</ele><time>2026-03-24T15:10:45.438Z</time></trkpt><trkpt lat="45.3663133" lon="7.7599183"><ele>331.2</ele><time>2026-03-24T15:10:46.443Z</time></trkpt><trkpt lat="45.3662083" lon="7.7599033"><ele>328.4</ele><time>2026-03-24T15:10:47.441Z</time></trkpt><trkpt lat="45.3661033" lon="7.7598933"><ele>325.6</ele><time>2026-03-24T15:10:48.445Z</time></trkpt><trkpt lat="45.3659933" lon="7.75988"><ele>322.8</ele><time>2026-03-24T15:10:49.443Z</time></trkpt><trkpt lat="45.36588" lon="7.7598667"><ele>320.0</ele><time>2026-03-24T15:10:50.444Z</time></trkpt><trkpt lat="45.3657683" lon="7.759855"><ele>320.0</ele><time>2026-03-24T15:10:51.448Z</time></trkpt><trkpt lat="45.3656533" lon="7.75984"><ele>320.0</ele><time>2026-03-24T15:10:52.442Z</time></trkpt><trkpt lat="45.3655433" lon="7.7598267"><ele>320.0</ele><time>2026-03-24T15:10:53.442Z</time></trkpt><trkpt lat="45.36543" lon="7.7598167"><ele>320.0</ele><time>2026-03-24T15:10:54.444Z</time></trkpt><trkpt lat="45.3653133" lon="7.759805"><ele>317.0</ele><time>2026-03-24T15:10:55.442Z</time></trkpt><trkpt lat="45.3651983" lon="7.7597967"><ele>314.0</ele><time>2026-03-24T15:10:56.443Z</time></trkpt><trkpt lat="45.3650817" lon="7.7597883"><ele>311.0</ele><time>2026-03-24T15:10:57.438Z</time></trkpt><trkpt lat="45.3649633" lon="7.75978"><ele>308.0</ele><time>2026-03-24T15:10:58.436Z</time></trkpt><trkpt lat="45.3648383" lon="7.7597617"><ele>308.0</ele><time>2026-03-24T15:10:59.441Z</time></trkpt><trkpt lat="45.3647133" lon="7.7597483"><ele>308.0</ele><time>2026-03-24T15:11:00.441Z</time></trkpt><trkpt lat="45.3645917" lon="7.7597333"><ele>308.0</ele><time>2026-03-24T15:11:01.441Z</time></trkpt><trkpt lat="45.36447" lon="7.7597167"><ele>308.0</ele><time>2026-03-24T15:11:02.442Z</time></trkpt><trkpt lat="45.3643467" lon="7.759705"><ele>307.0</ele><time>2026-03-24T15:11:03.443Z</time></trkpt><trkpt lat="45.3642267" lon="7.75969"><ele>306.0</ele><time>2026-03-24T15:11:04.438Z</time></trkpt><trkpt lat="45.36411" lon="7.7596767"><ele>305.0</ele><time>2026-03-24T15:11:05.441Z</time></trkpt><trkpt lat="45.3639933" lon="7.7596633"><ele>304.0</ele><time>2026-03-24T15:11:06.441Z</time></trkpt><trkpt lat="45.3638783" lon="7.7596533"><ele>303.59999999999997</ele><time>2026-03-24T15:11:07.436Z</time></trkpt><trkpt lat="45.363765" lon="7.75964"><ele>303.2</ele><time>2026-03-24T15:11:08.438Z</time></trkpt><trkpt lat="45.3636533" lon="7.759625"><ele>302.79999999999995</ele><time>2026-03-24T15:11:09.438Z</time></trkpt><trkpt lat="45.3635467" lon="7.7596167"><ele>302.4</ele><time>2026-03-24T15:11:10.443Z</time></trkpt><trkpt lat="45.3634433" lon="7.75961"><ele>302.0</ele><time>2026-03-24T15:11:11.44Z</time></trkpt><trkpt lat="45.3633417" lon="7.7596033"><ele>302.0</ele><time>2026-03-24T15:11:12.443Z</time></trkpt><trkpt lat="45.3632417" lon="7.7595933"><ele>302.0</ele><time>2026-03-24T15:11:13.443Z</time></trkpt><trkpt lat="45.3631433" lon="7.75959"><ele>302.0</ele><time>2026-03-24T15:11:14.441Z</time></trkpt><trkpt lat="45.3630483" lon="7.7595917"><ele>302.0</ele><time>2026-03-24T15:11:15.441Z</time></trkpt><trkpt lat="45.3629567" lon="7.7595933"><ele>302.0</ele><time>2026-03-24T15:11:16.439Z</time></trkpt><trkpt lat="45.36287" lon="7.759595"><ele>302.33333333333337</ele><time>2026-03-24T15:11:17.439Z</time></trkpt><trkpt lat="45.3627883" lon="7.7596017"><ele>302.6666666666667</ele><time>2026-03-24T15:11:18.44Z</time></trkpt><trkpt lat="45.36271" lon="7.7596083"><ele>303.0</ele><time>2026-03-24T15:11:19.444Z</time></trkpt><trkpt lat="45.3626333" lon="7.75962"><ele>303.3333333333333</ele><time>2026-03-24T15:11:20.44Z</time></trkpt><trkpt lat="45.36256" lon="7.7596333"><ele>303.66666666666663</ele><time>2026-03-24T15:11:21.443Z</time></trkpt><trkpt lat="45.36249" lon="7.759645"><ele>304.0</ele><time>2026-03-24T15:11:22.44Z</time></trkpt><trkpt lat="45.3624217" lon="7.75966"><ele>304.0</ele><time>2026-03-24T15:11:23.442Z</time></trkpt><trkpt lat="45.3623583" lon="7.7596733"><ele>304.0</ele><time>2026-03-24T15:11:24.443Z</time></trkpt><trkpt lat="45.362295" lon="7.75969"><ele>304.0</ele><time>2026-03-24T15:11:25.438Z</time></trkpt><trkpt lat="45.3622317" lon="7.7597133"><ele>304.0</ele><time>2026-03-24T15:11:26.443Z</time></trkpt><trkpt lat="45.36217" lon="7.7597333"><ele>304.0</ele><time>2026-03-24T15:11:27.44Z</time></trkpt><trkpt lat="45.3620533" lon="7.759785"><ele>304.0</ele><time>2026-03-24T15:11:29.443Z</time></trkpt><trkpt lat="45.36194" lon="7.7598417"><ele>303.75</ele><time>2026-03-24T15:11:31.442Z</time></trkpt><trkpt lat="45.3618267" lon="7.7599033"><ele>303.5</ele><time>2026-03-24T15:11:33.448Z</time></trkpt><trkpt lat="45.3617117" lon="7.7599667"><ele>303.25</ele><time>2026-03-24T15:11:35.447Z</time></trkpt><trkpt lat="45.3616" lon="7.7600317"><ele>303.0</ele><time>2026-03-24T15:11:37.443Z</time></trkpt><trkpt lat="45.3614833" lon="7.7600967"><ele>303.0</ele><time>2026-03-24T15:11:39.442Z</time></trkpt><trkpt lat="45.361425" lon="7.7601333"><ele>303.0</ele><time>2026-03-24T15:11:40.439Z</time></trkpt><trkpt lat="45.3613167" lon="7.760205"><ele>303.0</ele><time>2026-03-24T15:11:42.442Z</time></trkpt><trkpt lat="45.3612117" lon="7.7602833"><ele>303.0</ele><time>2026-03-24T15:11:44.444Z</time></trkpt><trkpt lat="45.3611583" lon="7.7603317"><ele>303.0</ele><time>2026-03-24T15:11:45.442Z</time></trkpt><trkpt lat="45.3610567" lon="7.7604283"><ele>302.6</ele><time>2026-03-24T15:11:47.441Z</time></trkpt><trkpt lat="45.3609617" lon="7.7605317"><ele>302.20000000000005</ele><time>2026-03-24T15:11:49.443Z</time></trkpt><trkpt lat="45.36091" lon="7.760585"><ele>301.8</ele><time>2026-03-24T15:11:50.437Z</time></trkpt><trkpt lat="45.3608133" lon="7.76069"><ele>301.40000000000003</ele><time>2026-03-24T15:11:52.44Z</time></trkpt><trkpt lat="45.36072" lon="7.7608017"><ele>301.0</ele><time>2026-03-24T15:11:54.445Z</time></trkpt><trkpt lat="45.3606283" lon="7.7609117"><ele>301.0</ele><time>2026-03-24T15:11:56.45Z</time></trkpt><trkpt lat="45.3605433" lon="7.7610333"><ele>301.0</ele><time>2026-03-24T15:11:58.44Z</time></trkpt><trkpt lat="45.3604583" lon="7.7611583"><ele>301.0</ele><time>2026-03-24T15:12:00.444Z</time></trkpt><trkpt lat="45.3603783" lon="7.761285"><ele>301.0</ele><time>2026-03-24T15:12:02.443Z</time></trkpt><trkpt lat="45.360295" lon="7.76142"><ele>300.8</ele><time>2026-03-24T15:12:04.442Z</time></trkpt><trkpt lat="45.3602567" lon="7.7614917"><ele>300.6</ele><time>2026-03-24T15:12:05.444Z</time></trkpt><trkpt lat="45.36018" lon="7.7616317"><ele>300.4</ele><time>2026-03-24T15:12:07.442Z</time></trkpt><trkpt lat="45.3601083" lon="7.7617717"><ele>300.2</ele><time>2026-03-24T15:12:09.444Z</time></trkpt><trkpt lat="45.3600383" lon="7.7619167"><ele>300.0</ele><time>2026-03-24T15:12:11.442Z</time></trkpt><trkpt lat="45.3600033" lon="7.7619917"><ele>300.5</ele><time>2026-03-24T15:12:12.441Z</time></trkpt><trkpt lat="45.35994" lon="7.76214"><ele>301.0</ele><time>2026-03-24T15:12:14.438Z</time></trkpt><trkpt lat="45.35988" lon="7.7622933"><ele>301.5</ele><time>2026-03-24T15:12:16.442Z</time></trkpt><trkpt lat="45.3598267" lon="7.762445"><ele>302.0</ele><time>2026-03-24T15:12:18.441Z</time></trkpt><trkpt lat="45.35977" lon="7.7625967"><ele>301.5</ele><time>2026-03-24T15:12:20.444Z</time></trkpt><trkpt lat="45.3597233" lon="7.7627567"><ele>301.0</ele><time>2026-03-24T15:12:22.441Z</time></trkpt><trkpt lat="45.3596833" lon="7.76292"><ele>300.5</ele><time>2026-03-24T15:12:24.44Z</time></trkpt><trkpt lat="45.3596417" lon="7.7630817"><ele>300.0</ele><time>2026-03-24T15:12:26.441Z</time></trkpt><trkpt lat="45.3596033" lon="7.7632467"><ele>299.5</ele><time>2026-03-24T15:12:28.441Z</time></trkpt><trkpt lat="45.3595717" lon="7.7634117"><ele>299.0</ele><time>2026-03-24T15:12:30.443Z</time></trkpt><trkpt lat="45.35954" lon="7.7635733"><ele>298.5</ele><time>2026-03-24T15:12:32.444Z</time></trkpt><trkpt lat="45.3595083" lon="7.763735"><ele>298.0</ele><time>2026-03-24T15:12:34.443Z</time></trkpt><trkpt lat="45.3594767" lon="7.7638967"><ele>298.0</ele><time>2026-03-24T15:12:36.446Z</time></trkpt><trkpt lat="45.3594483" lon="7.7640583"><ele>298.0</ele><time>2026-03-24T15:12:38.443Z</time></trkpt><trkpt lat="45.3594167" lon="7.76422"><ele>298.0</ele><time>2026-03-24T15:12:40.44Z</time></trkpt><trkpt lat="45.3593817" lon="7.76438"><ele>298.0</ele><time>2026-03-24T15:12:42.446Z</time></trkpt><trkpt lat="45.35935" lon="7.7645467"><ele>298.25</ele><time>2026-03-24T15:12:44.44Z</time></trkpt><trkpt lat="45.3593133" lon="7.76471"><ele>298.5</ele><time>2026-03-24T15:12:46.443Z</time></trkpt><trkpt lat="45.3592417" lon="7.76484"><ele>298.75</ele><time>2026-03-24T15:12:48.443Z</time></trkpt><trkpt lat="45.3591317" lon="7.7648983"><ele>299.0</ele><time>2026-03-24T15:12:50.443Z</time></trkpt><trkpt lat="45.3590217" lon="7.76487"><ele>299.0</ele><time>2026-03-24T15:12:52.45Z</time></trkpt><trkpt lat="45.3589233" lon="7.7647867"><ele>299.0</ele><time>2026-03-24T15:12:54.443Z</time></trkpt><trkpt lat="45.3588283" lon="7.764695"><ele>299.0</ele><time>2026-03-24T15:12:56.444Z</time></trkpt><trkpt lat="45.3587317" lon="7.7646017"><ele>299.0</ele><time>2026-03-24T15:12:58.441Z</time></trkpt><trkpt lat="45.3586383" lon="7.7645067"><ele>298.25</ele><time>2026-03-24T15:13:00.44Z</time></trkpt><trkpt lat="45.3585367" lon="7.7644167"><ele>297.5</ele><time>2026-03-24T15:13:02.444Z</time></trkpt><trkpt lat="45.3584383" lon="7.7643133"><ele>296.75</ele><time>2026-03-24T15:13:04.443Z</time></trkpt><trkpt lat="45.358345" lon="7.7642033"><ele>296.0</ele><time>2026-03-24T15:13:06.443Z</time></trkpt><trkpt lat="45.35825" lon="7.764105"><ele>296.0</ele><time>2026-03-24T15:13:08.444Z</time></trkpt><trkpt lat="45.35816" lon="7.7640067"><ele>296.0</ele><time>2026-03-24T15:13:10.442Z</time></trkpt><trkpt lat="45.35807" lon="7.7639083"><ele>296.0</ele><time>2026-03-24T15:13:12.449Z</time></trkpt><trkpt lat="45.3579767" lon="7.7638083"><ele>296.0</ele><time>2026-03-24T15:13:14.45Z</time></trkpt><trkpt lat="45.3578867" lon="7.76371"><ele>295.75</ele><time>2026-03-24T15:13:16.442Z</time></trkpt><trkpt lat="45.357795" lon="7.7635983"><ele>295.5</ele><time>2026-03-24T15:13:18.443Z</time></trkpt><trkpt lat="45.3577067" lon="7.76349"><ele>295.25</ele><time>2026-03-24T15:13:20.447Z</time></trkpt><trkpt lat="45.3576217" lon="7.763375"><ele>295.0</ele><time>2026-03-24T15:13:22.441Z</time></trkpt><trkpt lat="45.3575333" lon="7.7632633"><ele>295.5</ele><time>2026-03-24T15:13:24.446Z</time></trkpt><trkpt lat="45.3574467" lon="7.7631467"><ele>296.0</ele><time>2026-03-24T15:13:26.444Z</time></trkpt><trkpt lat="45.3573617" lon="7.763035"><ele>296.5</ele><time>2026-03-24T15:13:28.444Z</time></trkpt><trkpt lat="45.357275" lon="7.7629233"><ele>297.0</ele><time>2026-03-24T15:13:30.442Z</time></trkpt><trkpt lat="45.3571933" lon="7.7628117"><ele>297.1666666666667</ele><time>2026-03-24T15:13:32.443Z</time></trkpt><trkpt lat="45.3571133" lon="7.7627033"><ele>297.3333333333333</ele><time>2026-03-24T15:13:34.442Z</time></trkpt><trkpt lat="45.3570633" lon="7.76264"><ele>297.5</ele><time>2026-03-24T15:13:35.443Z</time></trkpt><trkpt lat="45.3570133" lon="7.7625767"><ele>297.66666666666663</ele><time>2026-03-24T15:13:36.444Z</time></trkpt><trkpt lat="45.3569683" lon="7.7625133"><ele>297.8333333333333</ele><time>2026-03-24T15:13:37.44Z</time></trkpt><trkpt lat="45.3568783" lon="7.7623933"><ele>298.0</ele><time>2026-03-24T15:13:39.444Z</time></trkpt><trkpt lat="45.35679" lon="7.762275"><ele>298.25</ele><time>2026-03-24T15:13:41.444Z</time></trkpt><trkpt lat="45.3567017" lon="7.7621533"><ele>298.5</ele><time>2026-03-24T15:13:43.445Z</time></trkpt><trkpt lat="45.3566083" lon="7.7620417"><ele>298.75</ele><time>2026-03-24T15:13:45.443Z</time></trkpt><trkpt lat="45.3565183" lon="7.7619333"><ele>299.0</ele><time>2026-03-24T15:13:47.442Z</time></trkpt><trkpt lat="45.356425" lon="7.7618267"><ele>298.25</ele><time>2026-03-24T15:13:49.442Z</time></trkpt><trkpt lat="45.3563317" lon="7.76172"><ele>297.5</ele><time>2026-03-24T15:13:51.439Z</time></trkpt><trkpt lat="45.356235" lon="7.7616167"><ele>296.75</ele><time>2026-03-24T15:13:53.439Z</time></trkpt><trkpt lat="45.35614" lon="7.7615167"><ele>296.0</ele><time>2026-03-24T15:13:55.441Z</time></trkpt><trkpt lat="45.3560433" lon="7.7614133"><ele>296.0</ele><time>2026-03-24T15:13:57.44Z</time></trkpt><trkpt lat="45.3559483" lon="7.7613133"><ele>296.0</ele><time>2026-03-24T15:13:59.439Z</time></trkpt><trkpt lat="45.35585" lon="7.7612133"><ele>296.0</ele><time>2026-03-24T15:14:01.441Z</time></trkpt><trkpt lat="45.355755" lon="7.7611117"><ele>296.0</ele><time>2026-03-24T15:14:03.439Z</time></trkpt><trkpt lat="45.3556633" lon="7.76101"><ele>295.75</ele><time>2026-03-24T15:14:05.439Z</time></trkpt><trkpt lat="45.35557" lon="7.760905"><ele>295.5</ele><time>2026-03-24T15:14:07.445Z</time></trkpt><trkpt lat="45.3554817" lon="7.7607933"><ele>295.25</ele><time>2026-03-24T15:14:09.437Z</time></trkpt><trkpt lat="45.3554017" lon="7.7606717"><ele>295.0</ele><time>2026-03-24T15:14:11.44Z</time></trkpt><trkpt lat="45.3553283" lon="7.7605417"><ele>295.0</ele><time>2026-03-24T15:14:13.442Z</time></trkpt><trkpt lat="45.355255" lon="7.7604067"><ele>295.0</ele><time>2026-03-24T15:14:15.442Z</time></trkpt><trkpt lat="45.3551883" lon="7.760265"><ele>295.0</ele><time>2026-03-24T15:14:17.442Z</time></trkpt><trkpt lat="45.3551217" lon="7.7601217"><ele>295.0</ele><time>2026-03-24T15:14:19.439Z</time></trkpt><trkpt lat="45.3550567" lon="7.75998"><ele>295.0</ele><time>2026-03-24T15:14:21.439Z</time></trkpt><trkpt lat="45.354995" lon="7.7598367"><ele>295.0</ele><time>2026-03-24T15:14:23.445Z</time></trkpt><trkpt lat="45.3549383" lon="7.75969"><ele>295.0</ele><time>2026-03-24T15:14:25.444Z</time></trkpt><trkpt lat="45.3548867" lon="7.7595383"><ele>295.0</ele><time>2026-03-24T15:14:27.446Z</time></trkpt><trkpt lat="45.3548383" lon="7.7593817"><ele>295.0</ele><time>2026-03-24T15:14:29.445Z</time></trkpt><trkpt lat="45.35479" lon="7.7592217"><ele>295.0</ele><time>2026-03-24T15:14:31.437Z</time></trkpt><trkpt lat="45.3547433" lon="7.7590717"><ele>295.0</ele><time>2026-03-24T15:14:33.441Z</time></trkpt><trkpt lat="45.3546983" lon="7.7589133"><ele>295.0</ele><time>2026-03-24T15:14:35.442Z</time></trkpt><trkpt lat="45.3546517" lon="7.7587583"><ele>295.0</ele><time>2026-03-24T15:14:37.443Z</time></trkpt><trkpt lat="45.3546083" lon="7.7586033"><ele>295.0</ele><time>2026-03-24T15:14:39.439Z</time></trkpt><trkpt lat="45.3545617" lon="7.75845"><ele>295.0</ele><time>2026-03-24T15:14:41.443Z</time></trkpt><trkpt lat="45.3545167" lon="7.75829"><ele>295.0</ele><time>2026-03-24T15:14:43.44Z</time></trkpt><trkpt lat="45.3544683" lon="7.7581317"><ele>295.0</ele><time>2026-03-24T15:14:45.443Z</time></trkpt><trkpt lat="45.3544233" lon="7.7579733"><ele>295.0</ele><time>2026-03-24T15:14:47.442Z</time></trkpt><trkpt lat="45.3543767" lon="7.7578133"><ele>295.0</ele><time>2026-03-24T15:14:49.441Z</time></trkpt><trkpt lat="45.3543283" lon="7.757655"><ele>295.0</ele><time>2026-03-24T15:14:51.441Z</time></trkpt><trkpt lat="45.35428" lon="7.7575017"><ele>295.0</ele><time>2026-03-24T15:14:53.446Z</time></trkpt><trkpt lat="45.3542333" lon="7.7573467"><ele>295.0</ele><time>2026-03-24T15:14:55.439Z</time></trkpt><trkpt lat="45.3541867" lon="7.7571933"><ele>295.0</ele><time>2026-03-24T15:14:57.445Z</time></trkpt><trkpt lat="45.3541383" lon="7.7570367"><ele>295.0</ele><time>2026-03-24T15:14:59.441Z</time></trkpt><trkpt lat="45.3540917" lon="7.7568783"><ele>295.25</ele><time>2026-03-24T15:15:01.446Z</time></trkpt><trkpt lat="45.3540417" lon="7.75672"><ele>295.5</ele><time>2026-03-24T15:15:03.444Z</time></trkpt><trkpt lat="45.3539933" lon="7.7565633"><ele>295.75</ele><time>2026-03-24T15:15:05.444Z</time></trkpt><trkpt lat="45.3539417" lon="7.7564117"><ele>296.0</ele><time>2026-03-24T15:15:07.445Z</time></trkpt><trkpt lat="45.35388" lon="7.756265"><ele>296.2</ele><time>2026-03-24T15:15:09.443Z</time></trkpt><trkpt lat="45.3538433" lon="7.75619"><ele>296.40000000000003</ele><time>2026-03-24T15:15:10.44Z</time></trkpt><trkpt lat="45.3538033" lon="7.75612"><ele>296.6</ele><time>2026-03-24T15:15:11.438Z</time></trkpt><trkpt lat="45.353725" lon="7.7559883"><ele>296.8</ele><time>2026-03-24T15:15:13.44Z</time></trkpt><trkpt lat="45.35364" lon="7.7558633"><ele>297.0</ele><time>2026-03-24T15:15:15.442Z</time></trkpt><trkpt lat="45.3535483" lon="7.7557633"><ele>297.0</ele><time>2026-03-24T15:15:17.441Z</time></trkpt><trkpt lat="45.353445" lon="7.7556817"><ele>297.0</ele><time>2026-03-24T15:15:19.438Z</time></trkpt><trkpt lat="45.35334" lon="7.7556117"><ele>297.0</ele><time>2026-03-24T15:15:21.442Z</time></trkpt><trkpt lat="45.3532267" lon="7.7555517"><ele>297.0</ele><time>2026-03-24T15:15:23.445Z</time></trkpt><trkpt lat="45.3531183" lon="7.7554883"><ele>297.0</ele><time>2026-03-24T15:15:25.441Z</time></trkpt><trkpt lat="45.3530033" lon="7.7554267"><ele>297.0</ele><time>2026-03-24T15:15:27.453Z</time></trkpt><trkpt lat="45.3529433" lon="7.7553933"><ele>297.0</ele><time>2026-03-24T15:15:28.444Z</time></trkpt><trkpt lat="45.35283" lon="7.7553217"><ele>297.0</ele><time>2026-03-24T15:15:30.44Z</time></trkpt><trkpt lat="45.352715" lon="7.7552517"><ele>297.0</ele><time>2026-03-24T15:15:32.441Z</time></trkpt><trkpt lat="45.3526067" lon="7.7551733"><ele>296.75</ele><time>2026-03-24T15:15:34.439Z</time></trkpt><trkpt lat="45.3524983" lon="7.755095"><ele>296.5</ele><time>2026-03-24T15:15:36.44Z</time></trkpt><trkpt lat="45.3523883" lon="7.75501"><ele>296.25</ele><time>2026-03-24T15:15:38.446Z</time></trkpt><trkpt lat="45.35228" lon="7.7549283"><ele>296.0</ele><time>2026-03-24T15:15:40.442Z</time></trkpt><trkpt lat="45.35217" lon="7.75485"><ele>295.2</ele><time>2026-03-24T15:15:42.439Z</time></trkpt><trkpt lat="45.3521133" lon="7.7548083"><ele>294.40000000000003</ele><time>2026-03-24T15:15:43.438Z</time></trkpt><trkpt lat="45.3520033" lon="7.754725"><ele>293.6</ele><time>2026-03-24T15:15:45.442Z</time></trkpt><trkpt lat="45.3518933" lon="7.7546433"><ele>292.8</ele><time>2026-03-24T15:15:47.445Z</time></trkpt><trkpt lat="45.351785" lon="7.7545583"><ele>292.0</ele><time>2026-03-24T15:15:49.443Z</time></trkpt><trkpt lat="45.3516783" lon="7.7544717"><ele>292.0</ele><time>2026-03-24T15:15:51.445Z</time></trkpt><trkpt lat="45.3515717" lon="7.7543833"><ele>292.0</ele><time>2026-03-24T15:15:53.444Z</time></trkpt><trkpt lat="45.3514667" lon="7.7542967"><ele>292.0</ele><time>2026-03-24T15:15:55.446Z</time></trkpt><trkpt lat="45.351365" lon="7.7542133"><ele>292.0</ele><time>2026-03-24T15:15:57.443Z</time></trkpt><trkpt lat="45.3512717" lon="7.7541333"><ele>292.8</ele><time>2026-03-24T15:15:59.44Z</time></trkpt><trkpt lat="45.3511767" lon="7.754055"><ele>293.6</ele><time>2026-03-24T15:16:01.439Z</time></trkpt><trkpt lat="45.35108" lon="7.7539733"><ele>294.40000000000003</ele><time>2026-03-24T15:16:03.444Z</time></trkpt><trkpt lat="45.3509867" lon="7.7538967"><ele>295.2</ele><time>2026-03-24T15:16:05.435Z</time></trkpt><trkpt lat="45.350895" lon="7.7538183"><ele>296.0</ele><time>2026-03-24T15:16:07.443Z</time></trkpt><trkpt lat="45.3508017" lon="7.75374"><ele>296.0</ele><time>2026-03-24T15:16:09.439Z</time></trkpt><trkpt lat="45.3507067" lon="7.7536617"><ele>296.0</ele><time>2026-03-24T15:16:11.447Z</time></trkpt><trkpt lat="45.3506017" lon="7.7535817"><ele>296.0</ele><time>2026-03-24T15:16:13.443Z</time></trkpt><trkpt lat="45.3504933" lon="7.7534933"><ele>296.0</ele><time>2026-03-24T15:16:15.442Z</time></trkpt><trkpt lat="45.35039" lon="7.7534033"><ele>295.8</ele><time>2026-03-24T15:16:17.442Z</time></trkpt><trkpt lat="45.3502833" lon="7.75331"><ele>295.6</ele><time>2026-03-24T15:16:19.442Z</time></trkpt><trkpt lat="45.3501733" lon="7.753215"><ele>295.4</ele><time>2026-03-24T15:16:21.445Z</time></trkpt><trkpt lat="45.3501167" lon="7.75317"><ele>295.2</ele><time>2026-03-24T15:16:22.439Z</time></trkpt><trkpt lat="45.350005" lon="7.7530833"><ele>295.0</ele><time>2026-03-24T15:16:24.44Z</time></trkpt><trkpt lat="45.3499483" lon="7.753035"><ele>295.0</ele><time>2026-03-24T15:16:25.441Z</time></trkpt><trkpt lat="45.3498933" lon="7.7529833"><ele>295.0</ele><time>2026-03-24T15:16:26.446Z</time></trkpt><trkpt lat="45.34984" lon="7.7529317"><ele>295.0</ele><time>2026-03-24T15:16:27.443Z</time></trkpt><trkpt lat="45.3497517" lon="7.7528083"><ele>295.0</ele><time>2026-03-24T15:16:29.441Z</time></trkpt><trkpt lat="45.349685" lon="7.7526667"><ele>295.0</ele><time>2026-03-24T15:16:31.44Z</time></trkpt><trkpt lat="45.3496583" lon="7.7525833"><ele>295.0</ele><time>2026-03-24T15:16:32.442Z</time></trkpt><trkpt lat="45.3496383" lon="7.7524983"><ele>295.0</ele><time>2026-03-24T15:16:33.441Z</time></trkpt><trkpt lat="45.34962" lon="7.75233"><ele>295.0</ele><time>2026-03-24T15:16:35.441Z</time></trkpt><trkpt lat="45.34961" lon="7.7521767"><ele>295.0</ele><time>2026-03-24T15:16:37.441Z</time></trkpt><trkpt lat="45.3496067" lon="7.75203"><ele>295.0</ele><time>2026-03-24T15:16:39.442Z</time></trkpt><trkpt lat="45.3496067" lon="7.751895"><ele>295.0</ele><time>2026-03-24T15:16:41.442Z</time></trkpt><trkpt lat="45.3495967" lon="7.7517517"><ele>294.8333333333333</ele><time>2026-03-24T15:16:43.44Z</time></trkpt><trkpt lat="45.3495817" lon="7.75163"><ele>294.66666666666663</ele><time>2026-03-24T15:16:45.439Z</time></trkpt><trkpt lat="45.3495583" lon="7.7515367"><ele>294.5</ele><time>2026-03-24T15:16:48.443Z</time></trkpt><trkpt lat="45.349575" lon="7.75143"><ele>294.3333333333333</ele><time>2026-03-24T15:17:12.438Z</time></trkpt><trkpt lat="45.34953" lon="7.7513317"><ele>294.1666666666667</ele><time>2026-03-24T15:17:17.45Z</time></trkpt><trkpt lat="45.3494917" lon="7.7512233"><ele>294.0</ele><time>2026-03-24T15:17:20.443Z</time></trkpt><trkpt lat="45.349465" lon="7.7511167"><ele>293.8</ele><time>2026-03-24T15:17:22.442Z</time></trkpt><trkpt lat="45.3494467" lon="7.7509767"><ele>293.59999999999997</ele><time>2026-03-24T15:17:24.438Z</time></trkpt><trkpt lat="45.3494133" lon="7.7508267"><ele>293.4</ele><time>2026-03-24T15:17:26.443Z</time></trkpt><trkpt lat="45.3493317" lon="7.7507083"><ele>293.2</ele><time>2026-03-24T15:17:28.44Z</time></trkpt><trkpt lat="45.3492367" lon="7.7506183"><ele>293.0</ele><time>2026-03-24T15:17:30.441Z</time></trkpt><trkpt lat="45.3491567" lon="7.7505033"><ele>293.0</ele><time>2026-03-24T15:17:32.44Z</time></trkpt><trkpt lat="45.349085" lon="7.7503767"><ele>293.0</ele><time>2026-03-24T15:17:34.445Z</time></trkpt><trkpt lat="45.3490467" lon="7.7502333"><ele>293.0</ele><time>2026-03-24T15:17:36.442Z</time></trkpt><trkpt lat="45.3490133" lon="7.7500833"><ele>293.0</ele><time>2026-03-24T15:17:38.443Z</time></trkpt><trkpt lat="45.348985" lon="7.7499267"><ele>293.0</ele><time>2026-03-24T15:17:40.442Z</time></trkpt><trkpt lat="45.348965" lon="7.749785"><ele>293.6</ele><time>2026-03-24T15:17:42.443Z</time></trkpt><trkpt lat="45.348955" lon="7.7496317"><ele>294.20000000000005</ele><time>2026-03-24T15:17:44.441Z</time></trkpt><trkpt lat="45.3489433" lon="7.7494783"><ele>294.8</ele><time>2026-03-24T15:17:46.44Z</time></trkpt><trkpt lat="45.3489317" lon="7.74932"><ele>295.40000000000003</ele><time>2026-03-24T15:17:48.446Z</time></trkpt><trkpt lat="45.3489267" lon="7.7491633"><ele>296.0</ele><time>2026-03-24T15:17:50.442Z</time></trkpt><trkpt lat="45.348915" lon="7.7489983"><ele>296.0</ele><time>2026-03-24T15:17:52.437Z</time></trkpt><trkpt lat="45.3489117" lon="7.7488417"><ele>296.0</ele><time>2026-03-24T15:17:54.439Z</time></trkpt><trkpt lat="45.34891" lon="7.7486817"><ele>296.0</ele><time>2026-03-24T15:17:56.442Z</time></trkpt><trkpt lat="45.3489017" lon="7.748515"><ele>296.0</ele><time>2026-03-24T15:17:58.442Z</time></trkpt><trkpt lat="45.3488833" lon="7.7483533"><ele>296.0</ele><time>2026-03-24T15:18:00.44Z</time></trkpt><trkpt lat="45.3488733" lon="7.7481983"><ele>296.0</ele><time>2026-03-24T15:18:02.447Z</time></trkpt><trkpt lat="45.348865" lon="7.74804"><ele>296.0</ele><time>2026-03-24T15:18:04.437Z</time></trkpt><trkpt lat="45.34886" lon="7.7478867"><ele>296.0</ele><time>2026-03-24T15:18:06.438Z</time></trkpt><trkpt lat="45.34882" lon="7.7477367"><ele>296.0</ele><time>2026-03-24T15:18:08.441Z</time></trkpt><trkpt lat="45.3487733" lon="7.7476"><ele>296.0</ele><time>2026-03-24T15:18:10.441Z</time></trkpt><trkpt lat="45.3487183" lon="7.7474717"><ele>296.0</ele><time>2026-03-24T15:18:12.442Z</time></trkpt><trkpt lat="45.3486633" lon="7.74734"><ele>296.0</ele><time>2026-03-24T15:18:14.442Z</time></trkpt><trkpt lat="45.348615" lon="7.7471917"><ele>296.0</ele><time>2026-03-24T15:18:16.439Z</time></trkpt><trkpt lat="45.3485867" lon="7.74704"><ele>296.0</ele><time>2026-03-24T15:18:18.442Z</time></trkpt><trkpt lat="45.348565" lon="7.7468833"><ele>296.40000000000003</ele><time>2026-03-24T15:18:20.443Z</time></trkpt><trkpt lat="45.3485433" lon="7.7467383"><ele>296.8</ele><time>2026-03-24T15:18:22.444Z</time></trkpt><trkpt lat="45.3485333" lon="7.746585"><ele>297.20000000000005</ele><time>2026-03-24T15:18:24.441Z</time></trkpt><trkpt lat="45.3485217" lon="7.746435"><ele>297.6</ele><time>2026-03-24T15:18:26.442Z</time></trkpt><trkpt lat="45.3485083" lon="7.7462883"><ele>298.0</ele><time>2026-03-24T15:18:28.437Z</time></trkpt><trkpt lat="45.3484967" lon="7.746135"><ele>297.75</ele><time>2026-03-24T15:18:30.444Z</time></trkpt><trkpt lat="45.3484833" lon="7.74598"><ele>297.5</ele><time>2026-03-24T15:18:32.44Z</time></trkpt><trkpt lat="45.34847" lon="7.745825"><ele>297.25</ele><time>2026-03-24T15:18:34.443Z</time></trkpt><trkpt lat="45.348455" lon="7.7456583"><ele>297.0</ele><time>2026-03-24T15:18:36.44Z</time></trkpt><trkpt lat="45.34844" lon="7.7454967"><ele>297.0</ele><time>2026-03-24T15:18:38.441Z</time></trkpt><trkpt lat="45.348435" lon="7.7453433"><ele>297.0</ele><time>2026-03-24T15:18:40.442Z</time></trkpt><trkpt lat="45.3484333" lon="7.7451917"><ele>297.0</ele><time>2026-03-24T15:18:42.439Z</time></trkpt><trkpt lat="45.34843" lon="7.74504"><ele>297.0</ele><time>2026-03-24T15:18:44.442Z</time></trkpt><trkpt lat="45.3484267" lon="7.744885"><ele>297.0</ele><time>2026-03-24T15:18:46.437Z</time></trkpt><trkpt lat="45.34843" lon="7.7447367"><ele>297.6</ele><time>2026-03-24T15:18:48.443Z</time></trkpt><trkpt lat="45.3484283" lon="7.744585"><ele>298.2</ele><time>2026-03-24T15:18:50.445Z</time></trkpt><trkpt lat="45.34842" lon="7.7444383"><ele>298.8</ele><time>2026-03-24T15:18:52.437Z</time></trkpt><trkpt lat="45.3483767" lon="7.7442917"><ele>299.4</ele><time>2026-03-24T15:18:54.441Z</time></trkpt><trkpt lat="45.3483267" lon="7.74417"><ele>300.0</ele><time>2026-03-24T15:18:56.441Z</time></trkpt><trkpt lat="45.348295" lon="7.7440467"><ele>300.1666666666667</ele><time>2026-03-24T15:18:58.443Z</time></trkpt><trkpt lat="45.3482633" lon="7.7439317"><ele>300.3333333333333</ele><time>2026-03-24T15:19:00.441Z</time></trkpt><trkpt lat="45.3482417" lon="7.7438433"><ele>300.5</ele><time>2026-03-24T15:19:03.439Z</time></trkpt><trkpt lat="45.34817" lon="7.7438083"><ele>300.66666666666663</ele><time>2026-03-24T15:19:06.444Z</time></trkpt><trkpt lat="45.3481" lon="7.7438217"><ele>300.8333333333333</ele><time>2026-03-24T15:19:08.444Z</time></trkpt><trkpt lat="45.348005" lon="7.7438483"><ele>301.0</ele><time>2026-03-24T15:19:10.436Z</time></trkpt><trkpt lat="45.3479017" lon="7.7438767"><ele>300.16666666666663</ele><time>2026-03-24T15:19:12.441Z</time></trkpt><trkpt lat="45.3477983" lon="7.7438983"><ele>299.3333333333333</ele><time>2026-03-24T15:19:14.441Z</time></trkpt><trkpt lat="45.3477" lon="7.743905"><ele>298.5</ele><time>2026-03-24T15:19:16.439Z</time></trkpt><trkpt lat="45.3476217" lon="7.7439"><ele>297.6666666666667</ele><time>2026-03-24T15:19:18.441Z</time></trkpt><trkpt lat="45.34757" lon="7.74384"><ele>296.83333333333337</ele><time>2026-03-24T15:19:21.439Z</time></trkpt><trkpt lat="45.347585" lon="7.7437317"><ele>296.0</ele><time>2026-03-24T15:19:24.441Z</time></trkpt><trkpt lat="45.3475983" lon="7.743635"><ele>296.1666666666667</ele><time>2026-03-24T15:19:26.441Z</time></trkpt><trkpt lat="45.347615" lon="7.743525"><ele>296.33333333333337</ele><time>2026-03-24T15:19:28.44Z</time></trkpt><trkpt lat="45.3476283" lon="7.7434083"><ele>296.5</ele><time>2026-03-24T15:19:30.439Z</time></trkpt><trkpt lat="45.3476583" lon="7.7432883"><ele>296.6666666666667</ele><time>2026-03-24T15:19:32.445Z</time></trkpt><trkpt lat="45.3476817" lon="7.7431567"><ele>296.8333333333333</ele><time>2026-03-24T15:19:34.439Z</time></trkpt><trkpt lat="45.34771" lon="7.743035"><ele>297.0</ele><time>2026-03-24T15:19:36.446Z</time></trkpt><trkpt lat="45.3477383" lon="7.7429117"><ele>297.0</ele><time>2026-03-24T15:19:38.445Z</time></trkpt><trkpt lat="45.3477667" lon="7.7427933"><ele>297.0</ele><time>2026-03-24T15:19:40.444Z</time></trkpt><trkpt lat="45.3477883" lon="7.7426933"><ele>297.0</ele><time>2026-03-24T15:19:42.444Z</time></trkpt><trkpt lat="45.3478133" lon="7.7425867"><ele>297.0</ele><time>2026-03-24T15:19:45.443Z</time></trkpt><trkpt lat="45.3477717" lon="7.7425067"><ele>297.0</ele><time>2026-03-24T15:19:47.445Z</time></trkpt><trkpt lat="45.3476917" lon="7.742485"><ele>297.0</ele><time>2026-03-24T15:19:49.44Z</time></trkpt><trkpt lat="45.347605" lon="7.7424583"><ele>297.0</ele><time>2026-03-24T15:19:51.436Z</time></trkpt><trkpt lat="45.3475083" lon="7.7424367"><ele>297.0</ele><time>2026-03-24T15:19:53.441Z</time></trkpt><trkpt lat="45.3474117" lon="7.742405"><ele>297.0</ele><time>2026-03-24T15:19:55.44Z</time></trkpt><trkpt lat="45.3473117" lon="7.7423833"><ele>297.0</ele><time>2026-03-24T15:19:57.44Z</time></trkpt><trkpt lat="45.3472017" lon="7.7423517"><ele>297.0</ele><time>2026-03-24T15:19:59.438Z</time></trkpt><trkpt lat="45.3470867" lon="7.7423167"><ele>296.8</ele><time>2026-03-24T15:20:01.44Z</time></trkpt><trkpt lat="45.3469767" lon="7.742285"><ele>296.6</ele><time>2026-03-24T15:20:03.447Z</time></trkpt><trkpt lat="45.346865" lon="7.7422617"><ele>296.40000000000003</ele><time>2026-03-24T15:20:05.443Z</time></trkpt><trkpt lat="45.3467833" lon="7.7421817"><ele>296.2</ele><time>2026-03-24T15:20:07.444Z</time></trkpt><trkpt lat="45.3467733" lon="7.7420467"><ele>296.0</ele><time>2026-03-24T15:20:09.438Z</time></trkpt><trkpt lat="45.3467583" lon="7.7418917"><ele>295.75</ele><time>2026-03-24T15:20:11.445Z</time></trkpt><trkpt lat="45.346685" lon="7.741745"><ele>295.5</ele><time>2026-03-24T15:20:13.443Z</time></trkpt><trkpt lat="45.34657" lon="7.7416817"><ele>295.25</ele><time>2026-03-24T15:20:15.439Z</time></trkpt><trkpt lat="45.3464617" lon="7.741725"><ele>295.0</ele><time>2026-03-24T15:20:17.439Z</time></trkpt><trkpt lat="45.3463567" lon="7.7417883"><ele>294.75</ele><time>2026-03-24T15:20:19.439Z</time></trkpt><trkpt lat="45.3462417" lon="7.7418333"><ele>294.5</ele><time>2026-03-24T15:20:21.442Z</time></trkpt><trkpt lat="45.3461183" lon="7.7418433"><ele>294.25</ele><time>2026-03-24T15:20:23.441Z</time></trkpt><trkpt lat="45.345995" lon="7.7418367"><ele>294.0</ele><time>2026-03-24T15:20:25.444Z</time></trkpt><trkpt lat="45.34587" lon="7.7418217"><ele>294.0</ele><time>2026-03-24T15:20:27.439Z</time></trkpt><trkpt lat="45.3458067" lon="7.74181"><ele>294.0</ele><time>2026-03-24T15:20:28.442Z</time></trkpt><trkpt lat="45.3457417" lon="7.7417967"><ele>294.0</ele><time>2026-03-24T15:20:29.439Z</time></trkpt><trkpt lat="45.3456783" lon="7.7417833"><ele>294.0</ele><time>2026-03-24T15:20:30.439Z</time></trkpt><trkpt lat="45.345615" lon="7.7417717"><ele>294.0</ele><time>2026-03-24T15:20:31.44Z</time></trkpt><trkpt lat="45.345495" lon="7.7417417"><ele>294.0</ele><time>2026-03-24T15:20:33.445Z</time></trkpt><trkpt lat="45.345375" lon="7.741715"><ele>294.0</ele><time>2026-03-24T15:20:35.442Z</time></trkpt><trkpt lat="45.3453133" lon="7.741695"><ele>294.0</ele><time>2026-03-24T15:20:36.441Z</time></trkpt><trkpt lat="45.3452517" lon="7.741675"><ele>294.0</ele><time>2026-03-24T15:20:37.438Z</time></trkpt><trkpt lat="45.3451283" lon="7.7416367"><ele>294.0</ele><time>2026-03-24T15:20:39.438Z</time></trkpt><trkpt lat="45.345065" lon="7.741615"><ele>294.0</ele><time>2026-03-24T15:20:40.442Z</time></trkpt><trkpt lat="45.3449417" lon="7.741585"><ele>294.0</ele><time>2026-03-24T15:20:42.443Z</time></trkpt><trkpt lat="45.3448167" lon="7.7415583"><ele>293.8333333333333</ele><time>2026-03-24T15:20:44.444Z</time></trkpt><trkpt lat="45.3446933" lon="7.74153"><ele>293.6666666666667</ele><time>2026-03-24T15:20:46.438Z</time></trkpt><trkpt lat="45.3445717" lon="7.7415"><ele>293.5</ele><time>2026-03-24T15:20:48.435Z</time></trkpt><trkpt lat="45.34451" lon="7.74148"><ele>293.33333333333337</ele><time>2026-03-24T15:20:49.444Z</time></trkpt><trkpt lat="45.3444483" lon="7.741455"><ele>293.1666666666667</ele><time>2026-03-24T15:20:50.44Z</time></trkpt><trkpt lat="45.3443867" lon="7.74143"><ele>293.0</ele><time>2026-03-24T15:20:51.442Z</time></trkpt><trkpt lat="45.344325" lon="7.7414033"><ele>293.0</ele><time>2026-03-24T15:20:52.442Z</time></trkpt><trkpt lat="45.3442633" lon="7.7413833"><ele>293.0</ele><time>2026-03-24T15:20:53.44Z</time></trkpt><trkpt lat="45.344145" lon="7.7413517"><ele>293.0</ele><time>2026-03-24T15:20:55.438Z</time></trkpt><trkpt lat="45.3440233" lon="7.7413217"><ele>293.0</ele><time>2026-03-24T15:20:57.443Z</time></trkpt><trkpt lat="45.3439033" lon="7.741285"><ele>293.0</ele><time>2026-03-24T15:20:59.437Z</time></trkpt><trkpt lat="45.3437833" lon="7.74125"><ele>293.25</ele><time>2026-03-24T15:21:01.443Z</time></trkpt><trkpt lat="45.3436617" lon="7.741215"><ele>293.5</ele><time>2026-03-24T15:21:03.437Z</time></trkpt><trkpt lat="45.3435417" lon="7.741165"><ele>293.75</ele><time>2026-03-24T15:21:05.444Z</time></trkpt><trkpt lat="45.3434183" lon="7.7411217"><ele>294.0</ele><time>2026-03-24T15:21:07.44Z</time></trkpt><trkpt lat="45.3433" lon="7.7410867"><ele>294.0</ele><time>2026-03-24T15:21:09.446Z</time></trkpt><trkpt lat="45.3431817" lon="7.7410533"><ele>294.0</ele><time>2026-03-24T15:21:11.439Z</time></trkpt><trkpt lat="45.34312" lon="7.741035"><ele>294.0</ele><time>2026-03-24T15:21:12.44Z</time></trkpt><trkpt lat="45.3429983" lon="7.74099"><ele>294.0</ele><time>2026-03-24T15:21:14.444Z</time></trkpt><trkpt lat="45.342875" lon="7.7409583"><ele>294.0</ele><time>2026-03-24T15:21:16.442Z</time></trkpt><trkpt lat="45.3427533" lon="7.7409367"><ele>293.0</ele><time>2026-03-24T15:21:18.441Z</time></trkpt><trkpt lat="45.3426383" lon="7.740905"><ele>292.0</ele><time>2026-03-24T15:21:20.44Z</time></trkpt><trkpt lat="45.34252" lon="7.7408717"><ele>291.0</ele><time>2026-03-24T15:21:22.439Z</time></trkpt><trkpt lat="45.3424033" lon="7.7408383"><ele>290.0</ele><time>2026-03-24T15:21:24.439Z</time></trkpt><trkpt lat="45.3422867" lon="7.7408067"><ele>290.25</ele><time>2026-03-24T15:21:26.444Z</time></trkpt><trkpt lat="45.34217" lon="7.740775"><ele>290.5</ele><time>2026-03-24T15:21:28.441Z</time></trkpt><trkpt lat="45.3420583" lon="7.7407433"><ele>290.75</ele><time>2026-03-24T15:21:30.443Z</time></trkpt><trkpt lat="45.341945" lon="7.740705"><ele>291.0</ele><time>2026-03-24T15:21:32.439Z</time></trkpt><trkpt lat="45.34183" lon="7.74067"><ele>291.0</ele><time>2026-03-24T15:21:34.439Z</time></trkpt><trkpt lat="45.3417117" lon="7.74063"><ele>291.0</ele><time>2026-03-24T15:21:36.44Z</time></trkpt><trkpt lat="45.3415967" lon="7.7405917"><ele>291.0</ele><time>2026-03-24T15:21:38.445Z</time></trkpt><trkpt lat="45.34148" lon="7.74056"><ele>291.0</ele><time>2026-03-24T15:21:40.443Z</time></trkpt><trkpt lat="45.34136" lon="7.74053"><ele>290.5</ele><time>2026-03-24T15:21:42.444Z</time></trkpt><trkpt lat="45.3412417" lon="7.7405017"><ele>290.0</ele><time>2026-03-24T15:21:44.441Z</time></trkpt><trkpt lat="45.3411267" lon="7.7404667"><ele>289.5</ele><time>2026-03-24T15:21:46.444Z</time></trkpt><trkpt lat="45.3410117" lon="7.7404267"><ele>289.0</ele><time>2026-03-24T15:21:48.444Z</time></trkpt><trkpt lat="45.3408983" lon="7.74039"><ele>289.0</ele><time>2026-03-24T15:21:50.442Z</time></trkpt><trkpt lat="45.3407833" lon="7.7403583"><ele>289.0</ele><time>2026-03-24T15:21:52.444Z</time></trkpt><trkpt lat="45.340665" lon="7.7403233"><ele>289.0</ele><time>2026-03-24T15:21:54.439Z</time></trkpt><trkpt lat="45.3405467" lon="7.7402883"><ele>289.0</ele><time>2026-03-24T15:21:56.439Z</time></trkpt><trkpt lat="45.3404283" lon="7.74025"><ele>289.0</ele><time>2026-03-24T15:21:58.441Z</time></trkpt><trkpt lat="45.3403117" lon="7.740215"><ele>289.0</ele><time>2026-03-24T15:22:00.44Z</time></trkpt><trkpt lat="45.340195" lon="7.74017"><ele>289.0</ele><time>2026-03-24T15:22:02.443Z</time></trkpt><trkpt lat="45.3400767" lon="7.740145"><ele>289.0</ele><time>2026-03-24T15:22:04.437Z</time></trkpt><trkpt lat="45.3399567" lon="7.740115"><ele>289.0</ele><time>2026-03-24T15:22:06.443Z</time></trkpt><trkpt lat="45.3398383" lon="7.7400817"><ele>289.0</ele><time>2026-03-24T15:22:08.44Z</time></trkpt><trkpt lat="45.3397217" lon="7.740055"><ele>289.0</ele><time>2026-03-24T15:22:10.44Z</time></trkpt><trkpt lat="45.339605" lon="7.7400267"><ele>289.0</ele><time>2026-03-24T15:22:12.44Z</time></trkpt><trkpt lat="45.3394883" lon="7.7399867"><ele>289.0</ele><time>2026-03-24T15:22:14.445Z</time></trkpt><trkpt lat="45.3393667" lon="7.7399483"><ele>289.0</ele><time>2026-03-24T15:22:16.442Z</time></trkpt><trkpt lat="45.3392467" lon="7.7399133"><ele>289.0</ele><time>2026-03-24T15:22:18.445Z</time></trkpt><trkpt lat="45.33913" lon="7.73987"><ele>289.0</ele><time>2026-03-24T15:22:20.446Z</time></trkpt><trkpt lat="45.33902" lon="7.7398133"><ele>289.0</ele><time>2026-03-24T15:22:22.442Z</time></trkpt><trkpt lat="45.3389117" lon="7.7397483"><ele>289.0</ele><time>2026-03-24T15:22:24.439Z</time></trkpt><trkpt lat="45.3388083" lon="7.7396567"><ele>289.0</ele><time>2026-03-24T15:22:26.441Z</time></trkpt><trkpt lat="45.33871" lon="7.7395617"><ele>289.0</ele><time>2026-03-24T15:22:28.441Z</time></trkpt><trkpt lat="45.3386167" lon="7.7394533"><ele>289.2</ele><time>2026-03-24T15:22:30.441Z</time></trkpt><trkpt lat="45.3385317" lon="7.73933"><ele>289.4</ele><time>2026-03-24T15:22:32.445Z</time></trkpt><trkpt lat="45.33849" lon="7.7392617"><ele>289.6</ele><time>2026-03-24T15:22:33.441Z</time></trkpt><trkpt lat="45.3384483" lon="7.7391917"><ele>289.8</ele><time>2026-03-24T15:22:34.442Z</time></trkpt><trkpt lat="45.3383767" lon="7.739055"><ele>290.0</ele><time>2026-03-24T15:22:36.443Z</time></trkpt><trkpt lat="45.3383067" lon="7.7389167"><ele>290.0</ele><time>2026-03-24T15:22:38.445Z</time></trkpt><trkpt lat="45.3382467" lon="7.7387667"><ele>290.0</ele><time>2026-03-24T15:22:40.442Z</time></trkpt><trkpt lat="45.3381817" lon="7.7386217"><ele>290.0</ele><time>2026-03-24T15:22:42.441Z</time></trkpt><trkpt lat="45.3381167" lon="7.7384767"><ele>290.0</ele><time>2026-03-24T15:22:44.444Z</time></trkpt><trkpt lat="45.3380533" lon="7.7383267"><ele>290.0</ele><time>2026-03-24T15:22:46.439Z</time></trkpt><trkpt lat="45.3379917" lon="7.73818"><ele>290.0</ele><time>2026-03-24T15:22:48.441Z</time></trkpt><trkpt lat="45.3379367" lon="7.738035"><ele>290.0</ele><time>2026-03-24T15:22:50.442Z</time></trkpt><trkpt lat="45.3378833" lon="7.7378867"><ele>290.0</ele><time>2026-03-24T15:22:52.439Z</time></trkpt><trkpt lat="45.33782" lon="7.7377417"><ele>289.8</ele><time>2026-03-24T15:22:54.44Z</time></trkpt><trkpt lat="45.33776" lon="7.7375883"><ele>289.6</ele><time>2026-03-24T15:22:56.445Z</time></trkpt><trkpt lat="45.3377283" lon="7.73751"><ele>289.4</ele><time>2026-03-24T15:22:57.442Z</time></trkpt><trkpt lat="45.3376683" lon="7.7373533"><ele>289.2</ele><time>2026-03-24T15:22:59.444Z</time></trkpt><trkpt lat="45.33761" lon="7.7372117"><ele>289.0</ele><time>2026-03-24T15:23:01.446Z</time></trkpt><trkpt lat="45.3375483" lon="7.73706"><ele>289.0</ele><time>2026-03-24T15:23:03.442Z</time></trkpt><trkpt lat="45.33749" lon="7.7369083"><ele>289.0</ele><time>2026-03-24T15:23:05.44Z</time></trkpt><trkpt lat="45.3374267" lon="7.7367567"><ele>289.0</ele><time>2026-03-24T15:23:07.442Z</time></trkpt><trkpt lat="45.337365" lon="7.7365967"><ele>289.0</ele><time>2026-03-24T15:23:09.44Z</time></trkpt><trkpt lat="45.3373333" lon="7.7365167"><ele>289.0</ele><time>2026-03-24T15:23:10.443Z</time></trkpt><trkpt lat="45.3372733" lon="7.7363667"><ele>289.2</ele><time>2026-03-24T15:23:12.443Z</time></trkpt><trkpt lat="45.3372167" lon="7.7362183"><ele>289.4</ele><time>2026-03-24T15:23:14.444Z</time></trkpt><trkpt lat="45.3371867" lon="7.7361383"><ele>289.6</ele><time>2026-03-24T15:23:15.442Z</time></trkpt><trkpt lat="45.337125" lon="7.7359883"><ele>289.8</ele><time>2026-03-24T15:23:17.446Z</time></trkpt><trkpt lat="45.33707" lon="7.7358417"><ele>290.0</ele><time>2026-03-24T15:23:19.442Z</time></trkpt><trkpt lat="45.33701" lon="7.7356917"><ele>290.0</ele><time>2026-03-24T15:23:21.439Z</time></trkpt><trkpt lat="45.33695" lon="7.7355367"><ele>290.0</ele><time>2026-03-24T15:23:23.444Z</time></trkpt><trkpt lat="45.3369183" lon="7.7354583"><ele>290.0</ele><time>2026-03-24T15:23:24.446Z</time></trkpt><trkpt lat="45.336885" lon="7.7353783"><ele>290.0</ele><time>2026-03-24T15:23:25.442Z</time></trkpt><trkpt lat="45.336825" lon="7.7352317"><ele>290.0</ele><time>2026-03-24T15:23:27.439Z</time></trkpt><trkpt lat="45.3367667" lon="7.7350817"><ele>289.75</ele><time>2026-03-24T15:23:29.446Z</time></trkpt><trkpt lat="45.3367117" lon="7.734935"><ele>289.5</ele><time>2026-03-24T15:23:31.441Z</time></trkpt><trkpt lat="45.3366533" lon="7.734785"><ele>289.25</ele><time>2026-03-24T15:23:33.439Z</time></trkpt><trkpt lat="45.3365933" lon="7.7346333"><ele>289.0</ele><time>2026-03-24T15:23:35.44Z</time></trkpt><trkpt lat="45.3365333" lon="7.7344783"><ele>288.8</ele><time>2026-03-24T15:23:37.445Z</time></trkpt><trkpt lat="45.336475" lon="7.7343333"><ele>288.59999999999997</ele><time>2026-03-24T15:23:39.441Z</time></trkpt><trkpt lat="45.3364133" lon="7.7341817"><ele>288.4</ele><time>2026-03-24T15:23:41.442Z</time></trkpt><trkpt lat="45.3363567" lon="7.7340283"><ele>288.2</ele><time>2026-03-24T15:23:43.438Z</time></trkpt><trkpt lat="45.3363267" lon="7.7339483"><ele>288.0</ele><time>2026-03-24T15:23:44.442Z</time></trkpt><trkpt lat="45.3362933" lon="7.7338683"><ele>288.0</ele><time>2026-03-24T15:23:45.44Z</time></trkpt><trkpt lat="45.336235" lon="7.733715"><ele>288.0</ele><time>2026-03-24T15:23:47.441Z</time></trkpt><trkpt lat="45.3361833" lon="7.7335683"><ele>288.0</ele><time>2026-03-24T15:23:49.44Z</time></trkpt><trkpt lat="45.33613" lon="7.7334183"><ele>288.0</ele><time>2026-03-24T15:23:51.443Z</time></trkpt><trkpt lat="45.3360683" lon="7.73327"><ele>288.0</ele><time>2026-03-24T15:23:53.445Z</time></trkpt><trkpt lat="45.3360117" lon="7.7331217"><ele>288.0</ele><time>2026-03-24T15:23:55.445Z</time></trkpt><trkpt lat="45.3359533" lon="7.7329717"><ele>288.0</ele><time>2026-03-24T15:23:57.441Z</time></trkpt><trkpt lat="45.335895" lon="7.7328183"><ele>288.0</ele><time>2026-03-24T15:23:59.44Z</time></trkpt><trkpt lat="45.3358367" lon="7.7326683"><ele>287.75</ele><time>2026-03-24T15:24:01.441Z</time></trkpt><trkpt lat="45.3357817" lon="7.73252"><ele>287.5</ele><time>2026-03-24T15:24:03.439Z</time></trkpt><trkpt lat="45.3357267" lon="7.7323783"><ele>287.25</ele><time>2026-03-24T15:24:05.439Z</time></trkpt><trkpt lat="45.3356717" lon="7.7322283"><ele>287.0</ele><time>2026-03-24T15:24:07.44Z</time></trkpt><trkpt lat="45.33561" lon="7.7320767"><ele>286.75</ele><time>2026-03-24T15:24:09.442Z</time></trkpt><trkpt lat="45.33555" lon="7.7319317"><ele>286.5</ele><time>2026-03-24T15:24:11.444Z</time></trkpt><trkpt lat="45.3354933" lon="7.7317817"><ele>286.25</ele><time>2026-03-24T15:24:13.442Z</time></trkpt><trkpt lat="45.335435" lon="7.73163"><ele>286.0</ele><time>2026-03-24T15:24:15.441Z</time></trkpt><trkpt lat="45.3353767" lon="7.7314783"><ele>285.5</ele><time>2026-03-24T15:24:17.442Z</time></trkpt><trkpt lat="45.3353183" lon="7.7313233"><ele>285.0</ele><time>2026-03-24T15:24:19.439Z</time></trkpt><trkpt lat="45.3352567" lon="7.7311683"><ele>284.5</ele><time>2026-03-24T15:24:21.448Z</time></trkpt><trkpt lat="45.3351983" lon="7.7310167"><ele>284.0</ele><time>2026-03-24T15:24:23.443Z</time></trkpt><trkpt lat="45.33514" lon="7.7308683"><ele>284.0</ele><time>2026-03-24T15:24:25.436Z</time></trkpt><trkpt lat="45.3350817" lon="7.730715"><ele>284.0</ele><time>2026-03-24T15:24:27.44Z</time></trkpt><trkpt lat="45.33502" lon="7.7305633"><ele>284.0</ele><time>2026-03-24T15:24:29.444Z</time></trkpt><trkpt lat="45.3349567" lon="7.7304083"><ele>284.0</ele><time>2026-03-24T15:24:31.44Z</time></trkpt><trkpt lat="45.3349233" lon="7.73033"><ele>284.0</ele><time>2026-03-24T15:24:32.445Z</time></trkpt><trkpt lat="45.3348617" lon="7.730185"><ele>284.5</ele><time>2026-03-24T15:24:34.439Z</time></trkpt><trkpt lat="45.3348" lon="7.73004"><ele>285.0</ele><time>2026-03-24T15:24:36.438Z</time></trkpt><trkpt lat="45.334745" lon="7.7299"><ele>285.5</ele><time>2026-03-24T15:24:38.442Z</time></trkpt><trkpt lat="45.3346883" lon="7.7297633"><ele>286.0</ele><time>2026-03-24T15:24:40.44Z</time></trkpt><trkpt lat="45.3346467" lon="7.72961"><ele>286.6</ele><time>2026-03-24T15:24:42.439Z</time></trkpt><trkpt lat="45.33464" lon="7.72946"><ele>287.20000000000005</ele><time>2026-03-24T15:24:44.439Z</time></trkpt><trkpt lat="45.3346583" lon="7.7293233"><ele>287.79999999999995</ele><time>2026-03-24T15:24:46.448Z</time></trkpt><trkpt lat="45.3346917" lon="7.729165"><ele>288.4</ele><time>2026-03-24T15:24:48.446Z</time></trkpt><trkpt lat="45.3347333" lon="7.7290083"><ele>289.0</ele><time>2026-03-24T15:24:50.442Z</time></trkpt><trkpt lat="45.33478" lon="7.7288583"><ele>289.5</ele><time>2026-03-24T15:24:52.444Z</time></trkpt><trkpt lat="45.334835" lon="7.7287133"><ele>290.0</ele><time>2026-03-24T15:24:54.442Z</time></trkpt><trkpt lat="45.3348933" lon="7.7285633"><ele>290.5</ele><time>2026-03-24T15:24:56.444Z</time></trkpt><trkpt lat="45.3349483" lon="7.7284183"><ele>291.0</ele><time>2026-03-24T15:24:58.439Z</time></trkpt><trkpt lat="45.3350083" lon="7.7282783"><ele>291.8</ele><time>2026-03-24T15:25:00.447Z</time></trkpt><trkpt lat="45.335065" lon="7.7281433"><ele>292.6</ele><time>2026-03-24T15:25:02.445Z</time></trkpt><trkpt lat="45.3351217" lon="7.7280083"><ele>293.4</ele><time>2026-03-24T15:25:04.44Z</time></trkpt><trkpt lat="45.3351733" lon="7.727885"><ele>294.2</ele><time>2026-03-24T15:25:06.441Z</time></trkpt><trkpt lat="45.3352217" lon="7.7277533"><ele>295.0</ele><time>2026-03-24T15:25:08.442Z</time></trkpt><trkpt lat="45.3352583" lon="7.72762"><ele>295.4</ele><time>2026-03-24T15:25:10.439Z</time></trkpt><trkpt lat="45.3352833" lon="7.7274783"><ele>295.8</ele><time>2026-03-24T15:25:12.439Z</time></trkpt><trkpt lat="45.33529" lon="7.7273317"><ele>296.2</ele><time>2026-03-24T15:25:14.444Z</time></trkpt><trkpt lat="45.335275" lon="7.727185"><ele>296.6</ele><time>2026-03-24T15:25:16.438Z</time></trkpt><trkpt lat="45.3352483" lon="7.72705"><ele>297.0</ele><time>2026-03-24T15:25:18.443Z</time></trkpt><trkpt lat="45.3352067" lon="7.726925"><ele>297.8</ele><time>2026-03-24T15:25:20.443Z</time></trkpt><trkpt lat="45.335165" lon="7.7267967"><ele>298.6</ele><time>2026-03-24T15:25:22.445Z</time></trkpt><trkpt lat="45.33512" lon="7.7266783"><ele>299.40000000000003</ele><time>2026-03-24T15:25:24.442Z</time></trkpt><trkpt lat="45.33508" lon="7.72657"><ele>300.2</ele><time>2026-03-24T15:25:26.441Z</time></trkpt><trkpt lat="45.3350383" lon="7.72646"><ele>301.0</ele><time>2026-03-24T15:25:28.438Z</time></trkpt><trkpt lat="45.335" lon="7.7263533"><ele>301.0</ele><time>2026-03-24T15:25:30.443Z</time></trkpt><trkpt lat="45.3349617" lon="7.7262483"><ele>301.0</ele><time>2026-03-24T15:25:32.443Z</time></trkpt><trkpt lat="45.3349167" lon="7.72614"><ele>301.0</ele><time>2026-03-24T15:25:34.441Z</time></trkpt><trkpt lat="45.3348717" lon="7.7260217"><ele>301.0</ele><time>2026-03-24T15:25:36.443Z</time></trkpt><trkpt lat="45.3348217" lon="7.7259033"><ele>301.0</ele><time>2026-03-24T15:25:38.449Z</time></trkpt><trkpt lat="45.3347767" lon="7.7257867"><ele>302.0</ele><time>2026-03-24T15:25:40.445Z</time></trkpt><trkpt lat="45.3347317" lon="7.7256617"><ele>303.0</ele><time>2026-03-24T15:25:42.443Z</time></trkpt><trkpt lat="45.3346867" lon="7.72555"><ele>304.0</ele><time>2026-03-24T15:25:44.442Z</time></trkpt><trkpt lat="45.3346433" lon="7.7254417"><ele>305.0</ele><time>2026-03-24T15:25:46.44Z</time></trkpt><trkpt lat="45.334595" lon="7.7253317"><ele>306.0</ele><time>2026-03-24T15:25:48.441Z</time></trkpt><trkpt lat="45.3345433" lon="7.72522"><ele>307.2</ele><time>2026-03-24T15:25:50.447Z</time></trkpt><trkpt lat="45.3345017" lon="7.7251033"><ele>308.40000000000003</ele><time>2026-03-24T15:25:52.44Z</time></trkpt><trkpt lat="45.33446" lon="7.7249883"><ele>309.6</ele><time>2026-03-24T15:25:54.442Z</time></trkpt><trkpt lat="45.3344117" lon="7.724865"><ele>310.8</ele><time>2026-03-24T15:25:56.442Z</time></trkpt><trkpt lat="45.3343667" lon="7.72473"><ele>312.0</ele><time>2026-03-24T15:25:58.442Z</time></trkpt><trkpt lat="45.3343133" lon="7.7245917"><ele>312.0</ele><time>2026-03-24T15:26:00.442Z</time></trkpt><trkpt lat="45.3342783" lon="7.7244533"><ele>312.0</ele><time>2026-03-24T15:26:02.443Z</time></trkpt><trkpt lat="45.3342367" lon="7.7243267"><ele>312.0</ele><time>2026-03-24T15:26:04.44Z</time></trkpt><trkpt lat="45.3341967" lon="7.724205"><ele>312.0</ele><time>2026-03-24T15:26:06.444Z</time></trkpt><trkpt lat="45.33415" lon="7.7240683"><ele>312.0</ele><time>2026-03-24T15:26:08.447Z</time></trkpt><trkpt lat="45.3340817" lon="7.723945"><ele>312.2</ele><time>2026-03-24T15:26:10.445Z</time></trkpt><trkpt lat="45.3340133" lon="7.7238217"><ele>312.4</ele><time>2026-03-24T15:26:12.444Z</time></trkpt><trkpt lat="45.3339517" lon="7.7237017"><ele>312.6</ele><time>2026-03-24T15:26:14.445Z</time></trkpt><trkpt lat="45.3338933" lon="7.7235733"><ele>312.8</ele><time>2026-03-24T15:26:16.445Z</time></trkpt><trkpt lat="45.33384" lon="7.7234367"><ele>313.0</ele><time>2026-03-24T15:26:18.441Z</time></trkpt><trkpt lat="45.3337783" lon="7.7232917"><ele>312.4</ele><time>2026-03-24T15:26:20.444Z</time></trkpt><trkpt lat="45.333715" lon="7.723155"><ele>311.8</ele><time>2026-03-24T15:26:22.437Z</time></trkpt><trkpt lat="45.33366" lon="7.7230167"><ele>311.2</ele><time>2026-03-24T15:26:24.442Z</time></trkpt><trkpt lat="45.3336067" lon="7.7228833"><ele>310.6</ele><time>2026-03-24T15:26:26.439Z</time></trkpt><trkpt lat="45.3335617" lon="7.7227867"><ele>310.0</ele><time>2026-03-24T15:26:28.44Z</time></trkpt><trkpt lat="45.3335317" lon="7.7226967"><ele>310.0</ele><time>2026-03-24T15:26:30.443Z</time></trkpt><trkpt lat="45.3334967" lon="7.7226117"><ele>310.0</ele><time>2026-03-24T15:26:32.441Z</time></trkpt><trkpt lat="45.33346" lon="7.722505"><ele>310.0</ele><time>2026-03-24T15:26:34.443Z</time></trkpt><trkpt lat="45.3334133" lon="7.722385"><ele>310.0</ele><time>2026-03-24T15:26:36.447Z</time></trkpt><trkpt lat="45.3333133" lon="7.7223267"><ele>310.0</ele><time>2026-03-24T15:26:38.437Z</time></trkpt><trkpt lat="45.33322" lon="7.7223567"><ele>310.0</ele><time>2026-03-24T15:26:40.439Z</time></trkpt><trkpt lat="45.3331183" lon="7.722395"><ele>310.0</ele><time>2026-03-24T15:26:42.44Z</time></trkpt><trkpt lat="45.3330167" lon="7.7224567"><ele>310.0</ele><time>2026-03-24T15:26:44.438Z</time></trkpt><trkpt lat="45.3329133" lon="7.72253"><ele>310.0</ele><time>2026-03-24T15:26:46.445Z</time></trkpt><trkpt lat="45.3328033" lon="7.7225983"><ele>309.8</ele><time>2026-03-24T15:26:48.439Z</time></trkpt><trkpt lat="45.3326933" lon="7.7226717"><ele>309.6</ele><time>2026-03-24T15:26:50.443Z</time></trkpt><trkpt lat="45.332595" lon="7.7227367"><ele>309.4</ele><time>2026-03-24T15:26:52.442Z</time></trkpt><trkpt lat="45.3325" lon="7.7227867"><ele>309.2</ele><time>2026-03-24T15:26:54.441Z</time></trkpt><trkpt lat="45.3324" lon="7.7228517"><ele>309.0</ele><time>2026-03-24T15:26:56.445Z</time></trkpt><trkpt lat="45.332305" lon="7.72291"><ele>309.2</ele><time>2026-03-24T15:26:58.443Z</time></trkpt><trkpt lat="45.3322117" lon="7.722935"><ele>309.4</ele><time>2026-03-24T15:27:00.446Z</time></trkpt><trkpt lat="45.3321233" lon="7.7229117"><ele>309.6</ele><time>2026-03-24T15:27:02.443Z</time></trkpt><trkpt lat="45.3320267" lon="7.722905"><ele>309.8</ele><time>2026-03-24T15:27:04.438Z</time></trkpt><trkpt lat="45.3319267" lon="7.72289"><ele>310.0</ele><time>2026-03-24T15:27:06.439Z</time></trkpt><trkpt lat="45.33186" lon="7.72282"><ele>310.0</ele><time>2026-03-24T15:27:08.445Z</time></trkpt><trkpt lat="45.3318" lon="7.72271"><ele>310.0</ele><time>2026-03-24T15:27:10.439Z</time></trkpt><trkpt lat="45.3317367" lon="7.72261"><ele>310.0</ele><time>2026-03-24T15:27:12.441Z</time></trkpt><trkpt lat="45.331685" lon="7.722485"><ele>310.0</ele><time>2026-03-24T15:27:14.443Z</time></trkpt><trkpt lat="45.3316283" lon="7.722365"><ele>310.0</ele><time>2026-03-24T15:27:16.443Z</time></trkpt><trkpt lat="45.33157" lon="7.7222483"><ele>310.0</ele><time>2026-03-24T15:27:18.442Z</time></trkpt><trkpt lat="45.3315183" lon="7.7221367"><ele>310.0</ele><time>2026-03-24T15:27:20.444Z</time></trkpt><trkpt lat="45.33147" lon="7.7220233"><ele>310.0</ele><time>2026-03-24T15:27:22.445Z</time></trkpt><trkpt lat="45.3314167" lon="7.7218967"><ele>310.0</ele><time>2026-03-24T15:27:24.441Z</time></trkpt><trkpt lat="45.331365" lon="7.7217633"><ele>310.0</ele><time>2026-03-24T15:27:26.442Z</time></trkpt><trkpt lat="45.331315" lon="7.7216367"><ele>309.25</ele><time>2026-03-24T15:27:28.441Z</time></trkpt><trkpt lat="45.3312617" lon="7.7214883"><ele>308.5</ele><time>2026-03-24T15:27:30.44Z</time></trkpt><trkpt lat="45.331215" lon="7.7213383"><ele>307.75</ele><time>2026-03-24T15:27:32.441Z</time></trkpt><trkpt lat="45.33116" lon="7.72119"><ele>307.0</ele><time>2026-03-24T15:27:34.443Z</time></trkpt><trkpt lat="45.3311117" lon="7.7210367"><ele>306.75</ele><time>2026-03-24T15:27:36.449Z</time></trkpt><trkpt lat="45.3310833" lon="7.72088"><ele>306.5</ele><time>2026-03-24T15:27:38.44Z</time></trkpt><trkpt lat="45.3310833" lon="7.7207283"><ele>306.25</ele><time>2026-03-24T15:27:40.435Z</time></trkpt><trkpt lat="45.3310883" lon="7.7205683"><ele>306.0</ele><time>2026-03-24T15:27:42.442Z</time></trkpt><trkpt lat="45.3310867" lon="7.7204017"><ele>306.0</ele><time>2026-03-24T15:27:44.44Z</time></trkpt><trkpt lat="45.3310867" lon="7.720235"><ele>306.0</ele><time>2026-03-24T15:27:46.444Z</time></trkpt><trkpt lat="45.331085" lon="7.7200783"><ele>306.0</ele><time>2026-03-24T15:27:48.443Z</time></trkpt><trkpt lat="45.3311117" lon="7.7199333"><ele>306.0</ele><time>2026-03-24T15:27:50.443Z</time></trkpt><trkpt lat="45.3311317" lon="7.7198017"><ele>306.0</ele><time>2026-03-24T15:27:52.44Z</time></trkpt><trkpt lat="45.3311583" lon="7.7196733"><ele>306.0</ele><time>2026-03-24T15:28:23.439Z</time></trkpt><trkpt lat="45.3311683" lon="7.71958"><ele>306.0</ele><time>2026-03-24T15:28:26.446Z</time></trkpt><trkpt lat="45.33116" lon="7.7194867"><ele>306.0</ele><time>2026-03-24T15:28:28.441Z</time></trkpt><trkpt lat="45.3311517" lon="7.7193883"><ele>306.0</ele><time>2026-03-24T15:28:30.438Z</time></trkpt><trkpt lat="45.3311467" lon="7.7192717"><ele>306.0</ele><time>2026-03-24T15:28:32.442Z</time></trkpt><trkpt lat="45.331155" lon="7.7191483"><ele>306.0</ele><time>2026-03-24T15:28:34.442Z</time></trkpt><trkpt lat="45.3311667" lon="7.71901"><ele>306.0</ele><time>2026-03-24T15:28:36.442Z</time></trkpt><trkpt lat="45.33117" lon="7.718865"><ele>306.0</ele><time>2026-03-24T15:28:38.442Z</time></trkpt><trkpt lat="45.3311783" lon="7.71871"><ele>306.0</ele><time>2026-03-24T15:28:40.443Z</time></trkpt><trkpt lat="45.331185" lon="7.718555"><ele>306.0</ele><time>2026-03-24T15:28:42.44Z</time></trkpt><trkpt lat="45.3311933" lon="7.7183917"><ele>306.0</ele><time>2026-03-24T15:28:44.441Z</time></trkpt><trkpt lat="45.3312" lon="7.7182283"><ele>306.0</ele><time>2026-03-24T15:28:46.441Z</time></trkpt><trkpt lat="45.3312067" lon="7.7180733"><ele>306.0</ele><time>2026-03-24T15:28:48.442Z</time></trkpt><trkpt lat="45.331215" lon="7.7179183"><ele>306.0</ele><time>2026-03-24T15:28:50.44Z</time></trkpt><trkpt lat="45.33123" lon="7.7177583"><ele>306.0</ele><time>2026-03-24T15:28:52.442Z</time></trkpt><trkpt lat="45.3312367" lon="7.7175933"><ele>306.0</ele><time>2026-03-24T15:28:54.441Z</time></trkpt><trkpt lat="45.3312433" lon="7.7174283"><ele>306.0</ele><time>2026-03-24T15:28:56.453Z</time></trkpt><trkpt lat="45.331255" lon="7.7172633"><ele>306.0</ele><time>2026-03-24T15:28:58.445Z</time></trkpt><trkpt lat="45.3312633" lon="7.7170933"><ele>306.0</ele><time>2026-03-24T15:29:00.442Z</time></trkpt><trkpt lat="45.3312683" lon="7.7169183"><ele>306.0</ele><time>2026-03-24T15:29:02.441Z</time></trkpt><trkpt lat="45.3312783" lon="7.7167483"><ele>306.5</ele><time>2026-03-24T15:29:04.439Z</time></trkpt><trkpt lat="45.3312783" lon="7.7165783"><ele>307.0</ele><time>2026-03-24T15:29:06.439Z</time></trkpt><trkpt lat="45.331285" lon="7.7164183"><ele>307.5</ele><time>2026-03-24T15:29:08.441Z</time></trkpt><trkpt lat="45.3312867" lon="7.7162717"><ele>308.0</ele><time>2026-03-24T15:29:10.441Z</time></trkpt><trkpt lat="45.3313" lon="7.7161067"><ele>308.2</ele><time>2026-03-24T15:29:12.441Z</time></trkpt><trkpt lat="45.3313133" lon="7.7159483"><ele>308.4</ele><time>2026-03-24T15:29:14.441Z</time></trkpt><trkpt lat="45.33132" lon="7.71578"><ele>308.59999999999997</ele><time>2026-03-24T15:29:16.441Z</time></trkpt><trkpt lat="45.331325" lon="7.7156867"><ele>308.8</ele><time>2026-03-24T15:29:17.444Z</time></trkpt><trkpt lat="45.3313333" lon="7.715515"><ele>309.0</ele><time>2026-03-24T15:29:19.441Z</time></trkpt><trkpt lat="45.3313417" lon="7.71535"><ele>308.75</ele><time>2026-03-24T15:29:21.44Z</time></trkpt><trkpt lat="45.3313533" lon="7.71519"><ele>308.5</ele><time>2026-03-24T15:29:23.439Z</time></trkpt><trkpt lat="45.3313567" lon="7.7150333"><ele>308.25</ele><time>2026-03-24T15:29:25.442Z</time></trkpt><trkpt lat="45.331365" lon="7.7148717"><ele>308.0</ele><time>2026-03-24T15:29:27.442Z</time></trkpt><trkpt lat="45.3313767" lon="7.714705"><ele>308.0</ele><time>2026-03-24T15:29:29.443Z</time></trkpt><trkpt lat="45.3313783" lon="7.7145383"><ele>308.0</ele><time>2026-03-24T15:29:31.445Z</time></trkpt><trkpt lat="45.331385" lon="7.7143733"><ele>308.0</ele><time>2026-03-24T15:29:33.442Z</time></trkpt><trkpt lat="45.3313933" lon="7.7142133"><ele>308.0</ele><time>2026-03-24T15:29:35.445Z</time></trkpt><trkpt lat="45.3313967" lon="7.7140517"><ele>308.25</ele><time>2026-03-24T15:29:37.439Z</time></trkpt><trkpt lat="45.3313983" lon="7.7138883"><ele>308.5</ele><time>2026-03-24T15:29:39.442Z</time></trkpt><trkpt lat="45.3313967" lon="7.7137267"><ele>308.75</ele><time>2026-03-24T15:29:41.441Z</time></trkpt><trkpt lat="45.3313967" lon="7.7135617"><ele>309.0</ele><time>2026-03-24T15:29:43.442Z</time></trkpt><trkpt lat="45.33139" lon="7.7133983"><ele>309.25</ele><time>2026-03-24T15:29:45.441Z</time></trkpt><trkpt lat="45.3313883" lon="7.7132367"><ele>309.5</ele><time>2026-03-24T15:29:47.442Z</time></trkpt><trkpt lat="45.33139" lon="7.7130683"><ele>309.75</ele><time>2026-03-24T15:29:49.441Z</time></trkpt><trkpt lat="45.331385" lon="7.7129"><ele>310.0</ele><time>2026-03-24T15:29:51.44Z</time></trkpt><trkpt lat="45.331395" lon="7.7127467"><ele>310.0</ele><time>2026-03-24T15:29:53.449Z</time></trkpt><trkpt lat="45.3314083" lon="7.71258"><ele>310.0</ele><time>2026-03-24T15:29:55.442Z</time></trkpt><trkpt lat="45.3314133" lon="7.7124217"><ele>310.0</ele><time>2026-03-24T15:29:57.439Z</time></trkpt><trkpt lat="45.3314133" lon="7.71226"><ele>310.0</ele><time>2026-03-24T15:29:59.441Z</time></trkpt><trkpt lat="45.3314133" lon="7.712095"><ele>310.0</ele><time>2026-03-24T15:30:01.446Z</time></trkpt><trkpt lat="45.331405" lon="7.7119217"><ele>310.0</ele><time>2026-03-24T15:30:03.445Z</time></trkpt><trkpt lat="45.3314017" lon="7.7117583"><ele>310.0</ele><time>2026-03-24T15:30:05.445Z</time></trkpt><trkpt lat="45.3313917" lon="7.7115917"><ele>310.0</ele><time>2026-03-24T15:30:07.444Z</time></trkpt><trkpt lat="45.3313883" lon="7.7114317"><ele>310.0</ele><time>2026-03-24T15:30:09.45Z</time></trkpt><trkpt lat="45.3313833" lon="7.71127"><ele>310.0</ele><time>2026-03-24T15:30:11.442Z</time></trkpt><trkpt lat="45.3313783" lon="7.711105"><ele>310.0</ele><time>2026-03-24T15:30:13.442Z</time></trkpt><trkpt lat="45.3313767" lon="7.7109283"><ele>310.0</ele><time>2026-03-24T15:30:15.44Z</time></trkpt><trkpt lat="45.3313733" lon="7.71076"><ele>310.0</ele><time>2026-03-24T15:30:17.447Z</time></trkpt><trkpt lat="45.3313683" lon="7.7105883"><ele>310.0</ele><time>2026-03-24T15:30:19.444Z</time></trkpt><trkpt lat="45.3313783" lon="7.7104183"><ele>310.0</ele><time>2026-03-24T15:30:21.443Z</time></trkpt><trkpt lat="45.3313833" lon="7.71025"><ele>310.0</ele><time>2026-03-24T15:30:23.444Z</time></trkpt><trkpt lat="45.3313767" lon="7.71009"><ele>310.0</ele><time>2026-03-24T15:30:25.442Z</time></trkpt><trkpt lat="45.331375" lon="7.70993"><ele>310.0</ele><time>2026-03-24T15:30:27.441Z</time></trkpt><trkpt lat="45.3313667" lon="7.7097583"><ele>310.0</ele><time>2026-03-24T15:30:29.441Z</time></trkpt><trkpt lat="45.3313617" lon="7.7096"><ele>310.0</ele><time>2026-03-24T15:30:31.442Z</time></trkpt><trkpt lat="45.3313583" lon="7.70944"><ele>310.0</ele><time>2026-03-24T15:30:33.441Z</time></trkpt><trkpt lat="45.3313567" lon="7.7092733"><ele>310.0</ele><time>2026-03-24T15:30:35.442Z</time></trkpt><trkpt lat="45.3313533" lon="7.709095"><ele>310.0</ele><time>2026-03-24T15:30:37.443Z</time></trkpt><trkpt lat="45.33135" lon="7.7089233"><ele>310.0</ele><time>2026-03-24T15:30:39.439Z</time></trkpt><trkpt lat="45.33135" lon="7.7087533"><ele>310.0</ele><time>2026-03-24T15:30:41.441Z</time></trkpt><trkpt lat="45.3313417" lon="7.70858"><ele>310.0</ele><time>2026-03-24T15:30:43.44Z</time></trkpt><trkpt lat="45.33134" lon="7.7084133"><ele>310.0</ele><time>2026-03-24T15:30:45.44Z</time></trkpt><trkpt lat="45.3313417" lon="7.7082433"><ele>310.0</ele><time>2026-03-24T15:30:47.444Z</time></trkpt><trkpt lat="45.3313367" lon="7.7081533"><ele>310.0</ele><time>2026-03-24T15:30:48.442Z</time></trkpt><trkpt lat="45.3313383" lon="7.7079833"><ele>310.25</ele><time>2026-03-24T15:30:50.444Z</time></trkpt><trkpt lat="45.3313383" lon="7.707815"><ele>310.5</ele><time>2026-03-24T15:30:52.44Z</time></trkpt><trkpt lat="45.33134" lon="7.7076467"><ele>310.75</ele><time>2026-03-24T15:30:54.437Z</time></trkpt><trkpt lat="45.3313383" lon="7.707485"><ele>311.0</ele><time>2026-03-24T15:30:56.441Z</time></trkpt><trkpt lat="45.3313367" lon="7.7073267"><ele>311.0</ele><time>2026-03-24T15:30:58.441Z</time></trkpt><trkpt lat="45.331335" lon="7.7071667"><ele>311.0</ele><time>2026-03-24T15:31:00.437Z</time></trkpt><trkpt lat="45.3313383" lon="7.7070033"><ele>311.0</ele><time>2026-03-24T15:31:02.44Z</time></trkpt><trkpt lat="45.331345" lon="7.7068417"><ele>311.0</ele><time>2026-03-24T15:31:04.439Z</time></trkpt><trkpt lat="45.331345" lon="7.70668"><ele>311.0</ele><time>2026-03-24T15:31:06.443Z</time></trkpt><trkpt lat="45.3313517" lon="7.7065117"><ele>311.0</ele><time>2026-03-24T15:31:08.441Z</time></trkpt><trkpt lat="45.3313567" lon="7.7063433"><ele>311.0</ele><time>2026-03-24T15:31:10.441Z</time></trkpt><trkpt lat="45.331365" lon="7.70618"><ele>311.0</ele><time>2026-03-24T15:31:12.442Z</time></trkpt><trkpt lat="45.331375" lon="7.7060183"><ele>311.0</ele><time>2026-03-24T15:31:14.444Z</time></trkpt><trkpt lat="45.3313817" lon="7.7058533"><ele>311.0</ele><time>2026-03-24T15:31:16.438Z</time></trkpt><trkpt lat="45.331385" lon="7.7056883"><ele>311.0</ele><time>2026-03-24T15:31:18.443Z</time></trkpt><trkpt lat="45.33139" lon="7.7055217"><ele>311.0</ele><time>2026-03-24T15:31:20.441Z</time></trkpt><trkpt lat="45.3314" lon="7.7053617"><ele>311.25</ele><time>2026-03-24T15:31:22.441Z</time></trkpt><trkpt lat="45.3314083" lon="7.7051933"><ele>311.5</ele><time>2026-03-24T15:31:24.442Z</time></trkpt><trkpt lat="45.33142" lon="7.7050233"><ele>311.75</ele><time>2026-03-24T15:31:26.446Z</time></trkpt><trkpt lat="45.3314283" lon="7.704855"><ele>312.0</ele><time>2026-03-24T15:31:28.442Z</time></trkpt><trkpt lat="45.3314333" lon="7.704695"><ele>312.0</ele><time>2026-03-24T15:31:30.443Z</time></trkpt><trkpt lat="45.33144" lon="7.70453"><ele>312.0</ele><time>2026-03-24T15:31:32.441Z</time></trkpt><trkpt lat="45.3314467" lon="7.7043583"><ele>312.0</ele><time>2026-03-24T15:31:34.442Z</time></trkpt><trkpt lat="45.331455" lon="7.704195"><ele>312.0</ele><time>2026-03-24T15:31:36.441Z</time></trkpt><trkpt lat="45.331465" lon="7.704035"><ele>312.0</ele><time>2026-03-24T15:31:38.437Z</time></trkpt><trkpt lat="45.3314733" lon="7.7038667"><ele>312.0</ele><time>2026-03-24T15:31:40.437Z</time></trkpt><trkpt lat="45.331485" lon="7.7037017"><ele>312.0</ele><time>2026-03-24T15:31:42.441Z</time></trkpt><trkpt lat="45.331495" lon="7.70354"><ele>312.0</ele><time>2026-03-24T15:31:44.442Z</time></trkpt><trkpt lat="45.3315067" lon="7.703375"><ele>312.0</ele><time>2026-03-24T15:31:46.441Z</time></trkpt><trkpt lat="45.3315183" lon="7.7032067"><ele>312.0</ele><time>2026-03-24T15:31:48.441Z</time></trkpt><trkpt lat="45.3315267" lon="7.7030383"><ele>312.0</ele><time>2026-03-24T15:31:50.443Z</time></trkpt><trkpt lat="45.3315383" lon="7.7028683"><ele>312.0</ele><time>2026-03-24T15:31:52.442Z</time></trkpt><trkpt lat="45.3315483" lon="7.7027083"><ele>312.4</ele><time>2026-03-24T15:31:54.441Z</time></trkpt><trkpt lat="45.3315583" lon="7.7025333"><ele>312.79999999999995</ele><time>2026-03-24T15:31:56.442Z</time></trkpt><trkpt lat="45.3315633" lon="7.7023633"><ele>313.2</ele><time>2026-03-24T15:31:58.441Z</time></trkpt><trkpt lat="45.33157" lon="7.7021817"><ele>313.59999999999997</ele><time>2026-03-24T15:32:00.443Z</time></trkpt><trkpt lat="45.3315767" lon="7.7020917"><ele>314.0</ele><time>2026-03-24T15:32:01.443Z</time></trkpt><trkpt lat="45.33158" lon="7.7019983"><ele>314.2857142857143</ele><time>2026-03-24T15:32:02.443Z</time></trkpt><trkpt lat="45.331585" lon="7.701905"><ele>314.57142857142856</ele><time>2026-03-24T15:32:03.438Z</time></trkpt><trkpt lat="45.3315883" lon="7.7018117"><ele>314.8571428571429</ele><time>2026-03-24T15:32:04.441Z</time></trkpt><trkpt lat="45.33159" lon="7.7017217"><ele>315.1428571428571</ele><time>2026-03-24T15:32:05.443Z</time></trkpt><trkpt lat="45.331595" lon="7.7016317"><ele>315.42857142857144</ele><time>2026-03-24T15:32:06.442Z</time></trkpt><trkpt lat="45.3316" lon="7.7014567"><ele>315.7142857142857</ele><time>2026-03-24T15:32:08.441Z</time></trkpt><trkpt lat="45.3316" lon="7.701365"><ele>316.0</ele><time>2026-03-24T15:32:09.436Z</time></trkpt><trkpt lat="45.3315983" lon="7.70119"><ele>316.0</ele><time>2026-03-24T15:32:11.438Z</time></trkpt><trkpt lat="45.331595" lon="7.7010217"><ele>316.0</ele><time>2026-03-24T15:32:13.443Z</time></trkpt><trkpt lat="45.3315883" lon="7.7008533"><ele>316.0</ele><time>2026-03-24T15:32:15.441Z</time></trkpt><trkpt lat="45.33158" lon="7.7006833"><ele>316.0</ele><time>2026-03-24T15:32:17.438Z</time></trkpt><trkpt lat="45.3315833" lon="7.700515"><ele>316.0</ele><time>2026-03-24T15:32:19.439Z</time></trkpt><trkpt lat="45.3315783" lon="7.700345"><ele>316.0</ele><time>2026-03-24T15:32:21.441Z</time></trkpt><trkpt lat="45.331575" lon="7.7001833"><ele>316.0</ele><time>2026-03-24T15:32:23.442Z</time></trkpt><trkpt lat="45.3315733" lon="7.7000217"><ele>316.0</ele><time>2026-03-24T15:32:25.443Z</time></trkpt><trkpt lat="45.3315717" lon="7.6998567"><ele>315.8</ele><time>2026-03-24T15:32:27.442Z</time></trkpt><trkpt lat="45.3315683" lon="7.6997"><ele>315.6</ele><time>2026-03-24T15:32:29.437Z</time></trkpt><trkpt lat="45.3315683" lon="7.6995467"><ele>315.4</ele><time>2026-03-24T15:32:31.443Z</time></trkpt><trkpt lat="45.3315667" lon="7.6993883"><ele>315.2</ele><time>2026-03-24T15:32:33.443Z</time></trkpt><trkpt lat="45.33156" lon="7.699225"><ele>315.0</ele><time>2026-03-24T15:32:35.444Z</time></trkpt><trkpt lat="45.33156" lon="7.69906"><ele>315.25</ele><time>2026-03-24T15:32:37.443Z</time></trkpt><trkpt lat="45.3315583" lon="7.6988967"><ele>315.5</ele><time>2026-03-24T15:32:39.44Z</time></trkpt><trkpt lat="45.3315583" lon="7.698735"><ele>315.75</ele><time>2026-03-24T15:32:41.439Z</time></trkpt><trkpt lat="45.3315483" lon="7.6985683"><ele>316.0</ele><time>2026-03-24T15:32:43.441Z</time></trkpt><trkpt lat="45.33153" lon="7.6984033"><ele>316.0</ele><time>2026-03-24T15:32:45.445Z</time></trkpt><trkpt lat="45.3315117" lon="7.698235"><ele>316.0</ele><time>2026-03-24T15:32:47.44Z</time></trkpt><trkpt lat="45.3314967" lon="7.6980567"><ele>316.0</ele><time>2026-03-24T15:32:49.442Z</time></trkpt><trkpt lat="45.331485" lon="7.6978917"><ele>316.0</ele><time>2026-03-24T15:32:51.443Z</time></trkpt><trkpt lat="45.33148" lon="7.6977367"><ele>315.8</ele><time>2026-03-24T15:32:53.442Z</time></trkpt><trkpt lat="45.3314733" lon="7.6975733"><ele>315.6</ele><time>2026-03-24T15:32:55.44Z</time></trkpt><trkpt lat="45.3314633" lon="7.69741"><ele>315.4</ele><time>2026-03-24T15:32:57.439Z</time></trkpt><trkpt lat="45.33145" lon="7.69726"><ele>315.2</ele><time>2026-03-24T15:32:59.446Z</time></trkpt><trkpt lat="45.331445" lon="7.6971583"><ele>315.0</ele><time>2026-03-24T15:33:01.441Z</time></trkpt><trkpt lat="45.3314117" lon="7.697065"><ele>315.0</ele><time>2026-03-24T15:33:03.444Z</time></trkpt><trkpt lat="45.3313183" lon="7.697015"><ele>315.0</ele><time>2026-03-24T15:33:05.448Z</time></trkpt><trkpt lat="45.3312183" lon="7.6969833"><ele>315.0</ele><time>2026-03-24T15:33:07.445Z</time></trkpt><trkpt lat="45.3311183" lon="7.6969467"><ele>315.0</ele><time>2026-03-24T15:33:09.44Z</time></trkpt><trkpt lat="45.3310083" lon="7.696915"><ele>315.0</ele><time>2026-03-24T15:33:11.442Z</time></trkpt><trkpt lat="45.3308933" lon="7.6968817"><ele>314.8333333333333</ele><time>2026-03-24T15:33:13.445Z</time></trkpt><trkpt lat="45.33083" lon="7.69687"><ele>314.6666666666667</ele><time>2026-03-24T15:33:14.444Z</time></trkpt><trkpt lat="45.3307233" lon="7.696845"><ele>314.5</ele><time>2026-03-24T15:33:16.443Z</time></trkpt><trkpt lat="45.3306267" lon="7.69682"><ele>314.33333333333337</ele><time>2026-03-24T15:33:18.444Z</time></trkpt><trkpt lat="45.330525" lon="7.696785"><ele>314.1666666666667</ele><time>2026-03-24T15:33:20.444Z</time></trkpt><trkpt lat="45.3304583" lon="7.6967783"><ele>314.0</ele><time>2026-03-24T15:33:21.441Z</time></trkpt><trkpt lat="45.33035" lon="7.6967467"><ele>314.0</ele><time>2026-03-24T15:33:23.446Z</time></trkpt><trkpt lat="45.330245" lon="7.6967183"><ele>314.0</ele><time>2026-03-24T15:33:25.444Z</time></trkpt><trkpt lat="45.330145" lon="7.6966767"><ele>314.0</ele><time>2026-03-24T15:33:27.441Z</time></trkpt><trkpt lat="45.3300467" lon="7.6966533"><ele>314.0</ele><time>2026-03-24T15:33:29.444Z</time></trkpt><trkpt lat="45.3299467" lon="7.696625"><ele>314.0</ele><time>2026-03-24T15:33:31.443Z</time></trkpt><trkpt lat="45.3298367" lon="7.6965917"><ele>314.0</ele><time>2026-03-24T15:33:33.445Z</time></trkpt><trkpt lat="45.3297283" lon="7.6965567"><ele>314.0</ele><time>2026-03-24T15:33:35.443Z</time></trkpt><trkpt lat="45.3296117" lon="7.696525"><ele>314.0</ele><time>2026-03-24T15:33:37.442Z</time></trkpt><trkpt lat="45.32949" lon="7.696495"><ele>314.0</ele><time>2026-03-24T15:33:39.446Z</time></trkpt><trkpt lat="45.3293767" lon="7.69645"><ele>313.5</ele><time>2026-03-24T15:33:41.441Z</time></trkpt><trkpt lat="45.3292633" lon="7.6964117"><ele>313.0</ele><time>2026-03-24T15:33:43.442Z</time></trkpt><trkpt lat="45.3291467" lon="7.6963833"><ele>312.5</ele><time>2026-03-24T15:33:45.442Z</time></trkpt><trkpt lat="45.329035" lon="7.6963467"><ele>312.0</ele><time>2026-03-24T15:33:47.437Z</time></trkpt><trkpt lat="45.3289283" lon="7.696315"><ele>311.8</ele><time>2026-03-24T15:33:49.438Z</time></trkpt><trkpt lat="45.3288233" lon="7.6962967"><ele>311.6</ele><time>2026-03-24T15:33:51.446Z</time></trkpt><trkpt lat="45.3287167" lon="7.696275"><ele>311.40000000000003</ele><time>2026-03-24T15:33:53.445Z</time></trkpt><trkpt lat="45.32861" lon="7.6962467"><ele>311.2</ele><time>2026-03-24T15:33:55.445Z</time></trkpt><trkpt lat="45.3285" lon="7.6962217"><ele>311.0</ele><time>2026-03-24T15:33:57.445Z</time></trkpt><trkpt lat="45.328385" lon="7.696205"><ele>311.0</ele><time>2026-03-24T15:33:59.442Z</time></trkpt><trkpt lat="45.3282767" lon="7.6961833"><ele>311.0</ele><time>2026-03-24T15:34:01.443Z</time></trkpt><trkpt lat="45.3281667" lon="7.69614"><ele>311.0</ele><time>2026-03-24T15:34:03.443Z</time></trkpt><trkpt lat="45.328075" lon="7.6960267"><ele>311.0</ele><time>2026-03-24T15:34:05.437Z</time></trkpt><trkpt lat="45.3280167" lon="7.6958783"><ele>310.75</ele><time>2026-03-24T15:34:07.441Z</time></trkpt><trkpt lat="45.3279767" lon="7.6957233"><ele>310.5</ele><time>2026-03-24T15:34:09.446Z</time></trkpt><trkpt lat="45.327945" lon="7.695565"><ele>310.25</ele><time>2026-03-24T15:34:11.445Z</time></trkpt><trkpt lat="45.32791" lon="7.6954117"><ele>310.0</ele><time>2026-03-24T15:34:13.436Z</time></trkpt><trkpt lat="45.327875" lon="7.69526"><ele>310.2</ele><time>2026-03-24T15:34:15.443Z</time></trkpt><trkpt lat="45.3278383" lon="7.6951083"><ele>310.4</ele><time>2026-03-24T15:34:17.442Z</time></trkpt><trkpt lat="45.3278033" lon="7.69497"><ele>310.6</ele><time>2026-03-24T15:34:19.445Z</time></trkpt><trkpt lat="45.3277683" lon="7.6948183"><ele>310.8</ele><time>2026-03-24T15:34:21.446Z</time></trkpt><trkpt lat="45.3277383" lon="7.6946617"><ele>311.0</ele><time>2026-03-24T15:34:23.443Z</time></trkpt><trkpt lat="45.327705" lon="7.6945017"><ele>311.0</ele><time>2026-03-24T15:34:25.444Z</time></trkpt><trkpt lat="45.32767" lon="7.6943467"><ele>311.0</ele><time>2026-03-24T15:34:27.443Z</time></trkpt><trkpt lat="45.3276383" lon="7.6941867"><ele>311.0</ele><time>2026-03-24T15:34:29.439Z</time></trkpt><trkpt lat="45.3276083" lon="7.694035"><ele>311.0</ele><time>2026-03-24T15:34:31.446Z</time></trkpt><trkpt lat="45.327575" lon="7.6938783"><ele>311.0</ele><time>2026-03-24T15:34:33.451Z</time></trkpt><trkpt lat="45.3275367" lon="7.6937183"><ele>311.0</ele><time>2026-03-24T15:34:35.442Z</time></trkpt><trkpt lat="45.3275017" lon="7.6935517"><ele>311.0</ele><time>2026-03-24T15:34:37.441Z</time></trkpt><trkpt lat="45.3274683" lon="7.6933867"><ele>311.0</ele><time>2026-03-24T15:34:39.448Z</time></trkpt><trkpt lat="45.3274433" lon="7.6932317"><ele>311.2</ele><time>2026-03-24T15:34:41.441Z</time></trkpt><trkpt lat="45.3274367" lon="7.6930817"><ele>311.40000000000003</ele><time>2026-03-24T15:34:43.441Z</time></trkpt><trkpt lat="45.3274333" lon="7.6929367"><ele>311.6</ele><time>2026-03-24T15:34:45.443Z</time></trkpt><trkpt lat="45.3274317" lon="7.692795"><ele>311.8</ele><time>2026-03-24T15:34:47.445Z</time></trkpt><trkpt lat="45.3274283" lon="7.69264"><ele>312.0</ele><time>2026-03-24T15:34:49.441Z</time></trkpt><trkpt lat="45.327425" lon="7.6924867"><ele>312.2</ele><time>2026-03-24T15:34:51.444Z</time></trkpt><trkpt lat="45.32742" lon="7.6923283"><ele>312.4</ele><time>2026-03-24T15:34:53.443Z</time></trkpt><trkpt lat="45.3274083" lon="7.69218"><ele>312.6</ele><time>2026-03-24T15:34:55.443Z</time></trkpt><trkpt lat="45.3274033" lon="7.6920367"><ele>312.8</ele><time>2026-03-24T15:34:57.445Z</time></trkpt><trkpt lat="45.3274067" lon="7.691895"><ele>313.0</ele><time>2026-03-24T15:34:59.446Z</time></trkpt><trkpt lat="45.3274067" lon="7.69175"><ele>313.0</ele><time>2026-03-24T15:35:01.44Z</time></trkpt><trkpt lat="45.327405" lon="7.69162"><ele>313.0</ele><time>2026-03-24T15:35:03.442Z</time></trkpt><trkpt lat="45.3274017" lon="7.69153"><ele>313.0</ele><time>2026-03-24T15:35:05.444Z</time></trkpt><trkpt lat="45.3273767" lon="7.6914417"><ele>313.0</ele><time>2026-03-24T15:35:09.442Z</time></trkpt><trkpt lat="45.32731" lon="7.6914183"><ele>313.0</ele><time>2026-03-24T15:35:11.439Z</time></trkpt><trkpt lat="45.3272167" lon="7.691405"><ele>313.0</ele><time>2026-03-24T15:35:13.444Z</time></trkpt><trkpt lat="45.3271133" lon="7.6914067"><ele>312.6</ele><time>2026-03-24T15:35:15.444Z</time></trkpt><trkpt lat="45.3270133" lon="7.6914083"><ele>312.20000000000005</ele><time>2026-03-24T15:35:17.441Z</time></trkpt><trkpt lat="45.3269083" lon="7.6914017"><ele>311.8</ele><time>2026-03-24T15:35:19.478Z</time></trkpt><trkpt lat="45.3267933" lon="7.691395"><ele>311.40000000000003</ele><time>2026-03-24T15:35:21.444Z</time></trkpt><trkpt lat="45.3266767" lon="7.6913867"><ele>311.0</ele><time>2026-03-24T15:35:23.439Z</time></trkpt><trkpt lat="45.3265617" lon="7.6913483"><ele>311.0</ele><time>2026-03-24T15:35:25.439Z</time></trkpt><trkpt lat="45.3264467" lon="7.69128"><ele>311.0</ele><time>2026-03-24T15:35:27.442Z</time></trkpt><trkpt lat="45.3263867" lon="7.691245"><ele>311.0</ele><time>2026-03-24T15:35:28.445Z</time></trkpt><trkpt lat="45.3263283" lon="7.691205"><ele>311.0</ele><time>2026-03-24T15:35:29.448Z</time></trkpt><trkpt lat="45.3262717" lon="7.691165"><ele>311.0</ele><time>2026-03-24T15:35:30.443Z</time></trkpt><trkpt lat="45.3261617" lon="7.6910833"><ele>311.0</ele><time>2026-03-24T15:35:32.44Z</time></trkpt><trkpt lat="45.3260517" lon="7.6910183"><ele>310.75</ele><time>2026-03-24T15:35:34.445Z</time></trkpt><trkpt lat="45.325945" lon="7.6909333"><ele>310.5</ele><time>2026-03-24T15:35:36.443Z</time></trkpt><trkpt lat="45.3258417" lon="7.6908517"><ele>310.25</ele><time>2026-03-24T15:35:38.444Z</time></trkpt><trkpt lat="45.3257417" lon="7.6907717"><ele>310.0</ele><time>2026-03-24T15:35:40.442Z</time></trkpt><trkpt lat="45.3256367" lon="7.6907067"><ele>309.5</ele><time>2026-03-24T15:35:42.439Z</time></trkpt><trkpt lat="45.32552" lon="7.6906517"><ele>309.0</ele><time>2026-03-24T15:35:44.442Z</time></trkpt><trkpt lat="45.3254133" lon="7.6905983"><ele>308.5</ele><time>2026-03-24T15:35:46.438Z</time></trkpt><trkpt lat="45.325305" lon="7.690545"><ele>308.0</ele><time>2026-03-24T15:35:48.442Z</time></trkpt><trkpt lat="45.325195" lon="7.6904883"><ele>308.0</ele><time>2026-03-24T15:35:50.443Z</time></trkpt><trkpt lat="45.3250817" lon="7.6904383"><ele>308.0</ele><time>2026-03-24T15:35:52.441Z</time></trkpt><trkpt lat="45.3249717" lon="7.69039"><ele>308.0</ele><time>2026-03-24T15:35:54.439Z</time></trkpt><trkpt lat="45.3248583" lon="7.69038"><ele>308.0</ele><time>2026-03-24T15:35:56.445Z</time></trkpt><trkpt lat="45.3247417" lon="7.6903817"><ele>308.25</ele><time>2026-03-24T15:35:58.441Z</time></trkpt><trkpt lat="45.3246233" lon="7.6903917"><ele>308.5</ele><time>2026-03-24T15:36:00.445Z</time></trkpt><trkpt lat="45.3245083" lon="7.6903967"><ele>308.75</ele><time>2026-03-24T15:36:02.444Z</time></trkpt><trkpt lat="45.3243883" lon="7.69041"><ele>309.0</ele><time>2026-03-24T15:36:04.439Z</time></trkpt><trkpt lat="45.32427" lon="7.6904267"><ele>309.0</ele><time>2026-03-24T15:36:06.442Z</time></trkpt><trkpt lat="45.3241533" lon="7.6904267"><ele>309.0</ele><time>2026-03-24T15:36:08.441Z</time></trkpt><trkpt lat="45.32404" lon="7.6904333"><ele>309.0</ele><time>2026-03-24T15:36:10.446Z</time></trkpt><trkpt lat="45.3239267" lon="7.6904467"><ele>309.0</ele><time>2026-03-24T15:36:12.446Z</time></trkpt><trkpt lat="45.3238083" lon="7.6904667"><ele>308.75</ele><time>2026-03-24T15:36:14.448Z</time></trkpt><trkpt lat="45.323685" lon="7.6904833"><ele>308.5</ele><time>2026-03-24T15:36:16.446Z</time></trkpt><trkpt lat="45.3235633" lon="7.6904917"><ele>308.25</ele><time>2026-03-24T15:36:18.441Z</time></trkpt><trkpt lat="45.3234433" lon="7.6905067"><ele>308.0</ele><time>2026-03-24T15:36:20.442Z</time></trkpt><trkpt lat="45.3233267" lon="7.69051"><ele>308.0</ele><time>2026-03-24T15:36:22.447Z</time></trkpt><trkpt lat="45.3232133" lon="7.69053"><ele>308.0</ele><time>2026-03-24T15:36:24.446Z</time></trkpt><trkpt lat="45.3231033" lon="7.6905383"><ele>308.0</ele><time>2026-03-24T15:36:26.443Z</time></trkpt><trkpt lat="45.3229933" lon="7.6905383"><ele>308.0</ele><time>2026-03-24T15:36:28.444Z</time></trkpt><trkpt lat="45.3228783" lon="7.6905483"><ele>307.5</ele><time>2026-03-24T15:36:30.443Z</time></trkpt><trkpt lat="45.3227633" lon="7.6905617"><ele>307.0</ele><time>2026-03-24T15:36:32.446Z</time></trkpt><trkpt lat="45.3226467" lon="7.6905867"><ele>306.5</ele><time>2026-03-24T15:36:34.444Z</time></trkpt><trkpt lat="45.3225317" lon="7.690615"><ele>306.0</ele><time>2026-03-24T15:36:36.44Z</time></trkpt><trkpt lat="45.3224217" lon="7.6906333"><ele>306.0</ele><time>2026-03-24T15:36:38.442Z</time></trkpt><trkpt lat="45.32231" lon="7.6906567"><ele>306.0</ele><time>2026-03-24T15:36:40.438Z</time></trkpt><trkpt lat="45.3221967" lon="7.6906833"><ele>306.0</ele><time>2026-03-24T15:36:42.443Z</time></trkpt><trkpt lat="45.3220883" lon="7.69072"><ele>306.0</ele><time>2026-03-24T15:36:44.443Z</time></trkpt><trkpt lat="45.321985" lon="7.6907733"><ele>306.0</ele><time>2026-03-24T15:36:46.443Z</time></trkpt><trkpt lat="45.3218783" lon="7.6908317"><ele>305.75</ele><time>2026-03-24T15:36:48.444Z</time></trkpt><trkpt lat="45.3217633" lon="7.6908817"><ele>305.5</ele><time>2026-03-24T15:36:50.443Z</time></trkpt><trkpt lat="45.3216483" lon="7.6909317"><ele>305.25</ele><time>2026-03-24T15:36:52.44Z</time></trkpt><trkpt lat="45.321535" lon="7.6909883"><ele>305.0</ele><time>2026-03-24T15:36:54.441Z</time></trkpt><trkpt lat="45.3214233" lon="7.6910317"><ele>305.25</ele><time>2026-03-24T15:36:56.441Z</time></trkpt><trkpt lat="45.321315" lon="7.691075"><ele>305.5</ele><time>2026-03-24T15:36:58.441Z</time></trkpt><trkpt lat="45.3212033" lon="7.691115"><ele>305.75</ele><time>2026-03-24T15:37:00.442Z</time></trkpt><trkpt lat="45.3210867" lon="7.6911567"><ele>306.0</ele><time>2026-03-24T15:37:02.439Z</time></trkpt><trkpt lat="45.32097" lon="7.6911817"><ele>305.5</ele><time>2026-03-24T15:37:04.44Z</time></trkpt><trkpt lat="45.3208567" lon="7.69121"><ele>305.0</ele><time>2026-03-24T15:37:06.441Z</time></trkpt><trkpt lat="45.32074" lon="7.691235"><ele>304.5</ele><time>2026-03-24T15:37:08.442Z</time></trkpt><trkpt lat="45.3206267" lon="7.69125"><ele>304.0</ele><time>2026-03-24T15:37:10.44Z</time></trkpt><trkpt lat="45.3205067" lon="7.6912517"><ele>303.5</ele><time>2026-03-24T15:37:12.441Z</time></trkpt><trkpt lat="45.3203883" lon="7.69125"><ele>303.0</ele><time>2026-03-24T15:37:14.438Z</time></trkpt><trkpt lat="45.32027" lon="7.6912433"><ele>302.5</ele><time>2026-03-24T15:37:16.442Z</time></trkpt><trkpt lat="45.3201567" lon="7.69124"><ele>302.0</ele><time>2026-03-24T15:37:18.441Z</time></trkpt><trkpt lat="45.320035" lon="7.6912433"><ele>302.0</ele><time>2026-03-24T15:37:20.444Z</time></trkpt><trkpt lat="45.3199117" lon="7.6912383"><ele>302.0</ele><time>2026-03-24T15:37:22.439Z</time></trkpt><trkpt lat="45.3197883" lon="7.691235"><ele>302.0</ele><time>2026-03-24T15:37:24.438Z</time></trkpt><trkpt lat="45.31967" lon="7.6912333"><ele>302.0</ele><time>2026-03-24T15:37:26.442Z</time></trkpt><trkpt lat="45.3195467" lon="7.6912383"><ele>302.25</ele><time>2026-03-24T15:37:28.445Z</time></trkpt><trkpt lat="45.3194333" lon="7.6912383"><ele>302.5</ele><time>2026-03-24T15:37:30.443Z</time></trkpt><trkpt lat="45.3193133" lon="7.6912583"><ele>302.75</ele><time>2026-03-24T15:37:32.442Z</time></trkpt><trkpt lat="45.3191967" lon="7.69129"><ele>303.0</ele><time>2026-03-24T15:37:34.437Z</time></trkpt><trkpt lat="45.3190783" lon="7.6913233"><ele>303.0</ele><time>2026-03-24T15:37:36.439Z</time></trkpt><trkpt lat="45.3189667" lon="7.6913567"><ele>303.0</ele><time>2026-03-24T15:37:38.443Z</time></trkpt><trkpt lat="45.3188467" lon="7.6913833"><ele>303.0</ele><time>2026-03-24T15:37:40.44Z</time></trkpt><trkpt lat="45.3187833" lon="7.6913967"><ele>303.0</ele><time>2026-03-24T15:37:41.445Z</time></trkpt><trkpt lat="45.3187167" lon="7.6914033"><ele>303.0</ele><time>2026-03-24T15:37:42.441Z</time></trkpt><trkpt lat="45.31865" lon="7.6914033"><ele>303.0</ele><time>2026-03-24T15:37:43.439Z</time></trkpt><trkpt lat="45.3185283" lon="7.69138"><ele>302.75</ele><time>2026-03-24T15:37:45.438Z</time></trkpt><trkpt lat="45.318415" lon="7.6913367"><ele>302.5</ele><time>2026-03-24T15:37:47.443Z</time></trkpt><trkpt lat="45.3183067" lon="7.6913"><ele>302.25</ele><time>2026-03-24T15:37:49.442Z</time></trkpt><trkpt lat="45.3181967" lon="7.6912617"><ele>302.0</ele><time>2026-03-24T15:37:51.441Z</time></trkpt><trkpt lat="45.31808" lon="7.6912283"><ele>301.6666666666667</ele><time>2026-03-24T15:37:53.44Z</time></trkpt><trkpt lat="45.3179583" lon="7.6911967"><ele>301.33333333333337</ele><time>2026-03-24T15:37:55.441Z</time></trkpt><trkpt lat="45.317835" lon="7.6911717"><ele>301.0</ele><time>2026-03-24T15:37:57.441Z</time></trkpt><trkpt lat="45.3177717" lon="7.691165"><ele>300.6666666666667</ele><time>2026-03-24T15:37:58.441Z</time></trkpt><trkpt lat="45.3177083" lon="7.6911617"><ele>300.3333333333333</ele><time>2026-03-24T15:37:59.451Z</time></trkpt><trkpt lat="45.317645" lon="7.691145"><ele>300.0</ele><time>2026-03-24T15:38:00.441Z</time></trkpt><trkpt lat="45.31753" lon="7.6911067"><ele>300.25</ele><time>2026-03-24T15:38:02.447Z</time></trkpt><trkpt lat="45.3174133" lon="7.69106"><ele>300.5</ele><time>2026-03-24T15:38:04.439Z</time></trkpt><trkpt lat="45.3173" lon="7.6910217"><ele>300.75</ele><time>2026-03-24T15:38:06.44Z</time></trkpt><trkpt lat="45.3171867" lon="7.6909933"><ele>301.0</ele><time>2026-03-24T15:38:08.437Z</time></trkpt><trkpt lat="45.3170683" lon="7.6909683"><ele>301.0</ele><time>2026-03-24T15:38:10.447Z</time></trkpt><trkpt lat="45.31695" lon="7.690935"><ele>301.0</ele><time>2026-03-24T15:38:12.438Z</time></trkpt><trkpt lat="45.3168333" lon="7.6909017"><ele>301.0</ele><time>2026-03-24T15:38:14.442Z</time></trkpt><trkpt lat="45.3167083" lon="7.690875"><ele>301.0</ele><time>2026-03-24T15:38:16.441Z</time></trkpt><trkpt lat="45.31659" lon="7.690845"><ele>301.0</ele><time>2026-03-24T15:38:18.438Z</time></trkpt><trkpt lat="45.3164683" lon="7.6908317"><ele>301.0</ele><time>2026-03-24T15:38:20.441Z</time></trkpt><trkpt lat="45.316405" lon="7.690825"><ele>301.0</ele><time>2026-03-24T15:38:21.437Z</time></trkpt><trkpt lat="45.3162833" lon="7.6908117"><ele>301.0</ele><time>2026-03-24T15:38:23.443Z</time></trkpt><trkpt lat="45.31622" lon="7.6908033"><ele>301.0</ele><time>2026-03-24T15:38:24.438Z</time></trkpt><trkpt lat="45.3161" lon="7.69077"><ele>300.75</ele><time>2026-03-24T15:38:26.444Z</time></trkpt><trkpt lat="45.31598" lon="7.6907467"><ele>300.5</ele><time>2026-03-24T15:38:28.438Z</time></trkpt><trkpt lat="45.3158667" lon="7.6907217"><ele>300.25</ele><time>2026-03-24T15:38:30.441Z</time></trkpt><trkpt lat="45.3157517" lon="7.6906733"><ele>300.0</ele><time>2026-03-24T15:38:32.443Z</time></trkpt><trkpt lat="45.31564" lon="7.690635"><ele>299.75</ele><time>2026-03-24T15:38:34.442Z</time></trkpt><trkpt lat="45.3155283" lon="7.6906033"><ele>299.5</ele><time>2026-03-24T15:38:36.447Z</time></trkpt><trkpt lat="45.3154167" lon="7.690565"><ele>299.25</ele><time>2026-03-24T15:38:38.445Z</time></trkpt><trkpt lat="45.3153033" lon="7.6905183"><ele>299.0</ele><time>2026-03-24T15:38:40.444Z</time></trkpt><trkpt lat="45.31519" lon="7.6904617"><ele>299.0</ele><time>2026-03-24T15:38:42.447Z</time></trkpt><trkpt lat="45.3150717" lon="7.6904167"><ele>299.0</ele><time>2026-03-24T15:38:44.44Z</time></trkpt><trkpt lat="45.314955" lon="7.6903783"><ele>299.0</ele><time>2026-03-24T15:38:46.445Z</time></trkpt><trkpt lat="45.3148933" lon="7.6903567"><ele>299.0</ele><time>2026-03-24T15:38:47.439Z</time></trkpt><trkpt lat="45.3147783" lon="7.6903233"><ele>299.0</ele><time>2026-03-24T15:38:49.442Z</time></trkpt><trkpt lat="45.3146517" lon="7.6902967"><ele>298.5</ele><time>2026-03-24T15:38:51.441Z</time></trkpt><trkpt lat="45.3145267" lon="7.6902733"><ele>298.0</ele><time>2026-03-24T15:38:53.443Z</time></trkpt><trkpt lat="45.31441" lon="7.6902467"><ele>297.5</ele><time>2026-03-24T15:38:55.439Z</time></trkpt><trkpt lat="45.3142933" lon="7.6902167"><ele>297.0</ele><time>2026-03-24T15:38:57.442Z</time></trkpt><trkpt lat="45.3141683" lon="7.6901933"><ele>297.0</ele><time>2026-03-24T15:38:59.439Z</time></trkpt><trkpt lat="45.3140483" lon="7.690155"><ele>297.0</ele><time>2026-03-24T15:39:01.442Z</time></trkpt><trkpt lat="45.3139317" lon="7.690125"><ele>297.0</ele><time>2026-03-24T15:39:03.443Z</time></trkpt><trkpt lat="45.3138217" lon="7.69009"><ele>297.0</ele><time>2026-03-24T15:39:05.439Z</time></trkpt><trkpt lat="45.3137067" lon="7.6900617"><ele>296.75</ele><time>2026-03-24T15:39:07.44Z</time></trkpt><trkpt lat="45.31359" lon="7.6900333"><ele>296.5</ele><time>2026-03-24T15:39:09.444Z</time></trkpt><trkpt lat="45.313475" lon="7.6899983"><ele>296.25</ele><time>2026-03-24T15:39:11.447Z</time></trkpt><trkpt lat="45.3133583" lon="7.689955"><ele>296.0</ele><time>2026-03-24T15:39:13.441Z</time></trkpt><trkpt lat="45.313245" lon="7.6899183"><ele>296.0</ele><time>2026-03-24T15:39:15.438Z</time></trkpt><trkpt lat="45.313125" lon="7.6898883"><ele>296.0</ele><time>2026-03-24T15:39:17.439Z</time></trkpt><trkpt lat="45.3130033" lon="7.6898667"><ele>296.0</ele><time>2026-03-24T15:39:19.443Z</time></trkpt><trkpt lat="45.3129383" lon="7.68986"><ele>296.0</ele><time>2026-03-24T15:39:20.443Z</time></trkpt><trkpt lat="45.312815" lon="7.6898383"><ele>296.0</ele><time>2026-03-24T15:39:22.442Z</time></trkpt><trkpt lat="45.3127033" lon="7.6898183"><ele>296.2</ele><time>2026-03-24T15:39:24.445Z</time></trkpt><trkpt lat="45.312585" lon="7.6898117"><ele>296.40000000000003</ele><time>2026-03-24T15:39:26.446Z</time></trkpt><trkpt lat="45.3125217" lon="7.689805"><ele>296.6</ele><time>2026-03-24T15:39:27.442Z</time></trkpt><trkpt lat="45.3124083" lon="7.6897883"><ele>296.8</ele><time>2026-03-24T15:39:29.439Z</time></trkpt><trkpt lat="45.3122967" lon="7.6897583"><ele>297.0</ele><time>2026-03-24T15:39:31.442Z</time></trkpt><trkpt lat="45.3121783" lon="7.689725"><ele>296.5</ele><time>2026-03-24T15:39:33.44Z</time></trkpt><trkpt lat="45.3120633" lon="7.68969"><ele>296.0</ele><time>2026-03-24T15:39:35.441Z</time></trkpt><trkpt lat="45.31195" lon="7.6896567"><ele>295.5</ele><time>2026-03-24T15:39:37.438Z</time></trkpt><trkpt lat="45.3118317" lon="7.6896383"><ele>295.0</ele><time>2026-03-24T15:39:39.439Z</time></trkpt><trkpt lat="45.311715" lon="7.6896033"><ele>295.0</ele><time>2026-03-24T15:39:41.44Z</time></trkpt><trkpt lat="45.3116" lon="7.6895733"><ele>295.0</ele><time>2026-03-24T15:39:43.438Z</time></trkpt><trkpt lat="45.31148" lon="7.6895433"><ele>295.0</ele><time>2026-03-24T15:39:45.441Z</time></trkpt><trkpt lat="45.3113567" lon="7.689515"><ele>295.0</ele><time>2026-03-24T15:39:47.442Z</time></trkpt><trkpt lat="45.31124" lon="7.689465"><ele>294.6</ele><time>2026-03-24T15:39:49.442Z</time></trkpt><trkpt lat="45.3111317" lon="7.68939"><ele>294.2</ele><time>2026-03-24T15:39:51.447Z</time></trkpt><trkpt lat="45.3110767" lon="7.6893417"><ele>293.8</ele><time>2026-03-24T15:39:52.44Z</time></trkpt><trkpt lat="45.3109667" lon="7.689255"><ele>293.4</ele><time>2026-03-24T15:39:54.442Z</time></trkpt><trkpt lat="45.3108517" lon="7.6891967"><ele>293.0</ele><time>2026-03-24T15:39:56.445Z</time></trkpt><trkpt lat="45.3107317" lon="7.6891633"><ele>293.0</ele><time>2026-03-24T15:39:58.44Z</time></trkpt><trkpt lat="45.31062" lon="7.6891433"><ele>293.0</ele><time>2026-03-24T15:40:00.438Z</time></trkpt><trkpt lat="45.3105033" lon="7.6891283"><ele>293.0</ele><time>2026-03-24T15:40:02.439Z</time></trkpt><trkpt lat="45.3103817" lon="7.68912"><ele>293.0</ele><time>2026-03-24T15:40:04.442Z</time></trkpt><trkpt lat="45.3102667" lon="7.6891167"><ele>292.83333333333337</ele><time>2026-03-24T15:40:06.439Z</time></trkpt><trkpt lat="45.3101433" lon="7.6891283"><ele>292.6666666666667</ele><time>2026-03-24T15:40:08.442Z</time></trkpt><trkpt lat="45.3100783" lon="7.6891317"><ele>292.5</ele><time>2026-03-24T15:40:09.441Z</time></trkpt><trkpt lat="45.310015" lon="7.689135"><ele>292.3333333333333</ele><time>2026-03-24T15:40:10.47Z</time></trkpt><trkpt lat="45.3099517" lon="7.6891417"><ele>292.16666666666663</ele><time>2026-03-24T15:40:11.442Z</time></trkpt><trkpt lat="45.3098883" lon="7.6891483"><ele>292.0</ele><time>2026-03-24T15:40:12.438Z</time></trkpt><trkpt lat="45.3097683" lon="7.6891483"><ele>291.66666666666663</ele><time>2026-03-24T15:40:14.442Z</time></trkpt><trkpt lat="45.309645" lon="7.68915"><ele>291.3333333333333</ele><time>2026-03-24T15:40:16.442Z</time></trkpt><trkpt lat="45.3095783" lon="7.6891533"><ele>291.0</ele><time>2026-03-24T15:40:17.444Z</time></trkpt><trkpt lat="45.3095133" lon="7.689155"><ele>290.6666666666667</ele><time>2026-03-24T15:40:18.44Z</time></trkpt><trkpt lat="45.30945" lon="7.6891583"><ele>290.33333333333337</ele><time>2026-03-24T15:40:19.441Z</time></trkpt><trkpt lat="45.3093283" lon="7.68917"><ele>290.0</ele><time>2026-03-24T15:40:21.443Z</time></trkpt><trkpt lat="45.3092083" lon="7.6891683"><ele>290.0</ele><time>2026-03-24T15:40:23.441Z</time></trkpt><trkpt lat="45.3090883" lon="7.689165"><ele>290.0</ele><time>2026-03-24T15:40:25.437Z</time></trkpt><trkpt lat="45.3089717" lon="7.68916"><ele>290.0</ele><time>2026-03-24T15:40:27.438Z</time></trkpt><trkpt lat="45.308855" lon="7.6891733"><ele>290.0</ele><time>2026-03-24T15:40:29.437Z</time></trkpt><trkpt lat="45.3087317" lon="7.68918"><ele>290.2</ele><time>2026-03-24T15:40:31.441Z</time></trkpt><trkpt lat="45.3086683" lon="7.689175"><ele>290.4</ele><time>2026-03-24T15:40:32.439Z</time></trkpt><trkpt lat="45.30855" lon="7.6891683"><ele>290.6</ele><time>2026-03-24T15:40:34.441Z</time></trkpt><trkpt lat="45.3084283" lon="7.6891533"><ele>290.8</ele><time>2026-03-24T15:40:36.44Z</time></trkpt><trkpt lat="45.3083067" lon="7.6891367"><ele>291.0</ele><time>2026-03-24T15:40:38.441Z</time></trkpt><trkpt lat="45.3081833" lon="7.68912"><ele>290.75</ele><time>2026-03-24T15:40:40.439Z</time></trkpt><trkpt lat="45.3080617" lon="7.6891033"><ele>290.5</ele><time>2026-03-24T15:40:42.438Z</time></trkpt><trkpt lat="45.30794" lon="7.689085"><ele>290.25</ele><time>2026-03-24T15:40:44.443Z</time></trkpt><trkpt lat="45.3078183" lon="7.6890667"><ele>290.0</ele><time>2026-03-24T15:40:46.439Z</time></trkpt><trkpt lat="45.3076983" lon="7.6890467"><ele>290.0</ele><time>2026-03-24T15:40:48.443Z</time></trkpt><trkpt lat="45.307585" lon="7.6890233"><ele>290.0</ele><time>2026-03-24T15:40:50.443Z</time></trkpt><trkpt lat="45.30747" lon="7.689005"><ele>290.0</ele><time>2026-03-24T15:40:52.44Z</time></trkpt><trkpt lat="45.30735" lon="7.6889867"><ele>290.0</ele><time>2026-03-24T15:40:54.437Z</time></trkpt><trkpt lat="45.307225" lon="7.68897"><ele>290.0</ele><time>2026-03-24T15:40:56.441Z</time></trkpt><trkpt lat="45.3071617" lon="7.68896"><ele>290.0</ele><time>2026-03-24T15:40:57.443Z</time></trkpt><trkpt lat="45.30704" lon="7.6889467"><ele>290.0</ele><time>2026-03-24T15:40:59.44Z</time></trkpt><trkpt lat="45.306975" lon="7.68894"><ele>290.0</ele><time>2026-03-24T15:41:00.449Z</time></trkpt><trkpt lat="45.3069117" lon="7.6889367"><ele>290.0</ele><time>2026-03-24T15:41:01.448Z</time></trkpt><trkpt lat="45.3067917" lon="7.68892"><ele>290.0</ele><time>2026-03-24T15:41:03.44Z</time></trkpt><trkpt lat="45.3066733" lon="7.688905"><ele>290.0</ele><time>2026-03-24T15:41:05.444Z</time></trkpt><trkpt lat="45.3065533" lon="7.6888983"><ele>290.0</ele><time>2026-03-24T15:41:07.44Z</time></trkpt><trkpt lat="45.3064283" lon="7.6889"><ele>290.0</ele><time>2026-03-24T15:41:09.442Z</time></trkpt><trkpt lat="45.306365" lon="7.688895"><ele>290.0</ele><time>2026-03-24T15:41:10.439Z</time></trkpt><trkpt lat="45.3062467" lon="7.6888767"><ele>290.0</ele><time>2026-03-24T15:41:12.437Z</time></trkpt><trkpt lat="45.30613" lon="7.6888617"><ele>289.4</ele><time>2026-03-24T15:41:14.44Z</time></trkpt><trkpt lat="45.3060117" lon="7.6888217"><ele>288.8</ele><time>2026-03-24T15:41:16.437Z</time></trkpt><trkpt lat="45.3058967" lon="7.6887783"><ele>288.2</ele><time>2026-03-24T15:41:18.445Z</time></trkpt><trkpt lat="45.305835" lon="7.6887583"><ele>287.6</ele><time>2026-03-24T15:41:19.443Z</time></trkpt><trkpt lat="45.30572" lon="7.6887133"><ele>287.0</ele><time>2026-03-24T15:41:21.441Z</time></trkpt><trkpt lat="45.30561" lon="7.6886567"><ele>287.0</ele><time>2026-03-24T15:41:23.44Z</time></trkpt><trkpt lat="45.3055" lon="7.6885983"><ele>287.0</ele><time>2026-03-24T15:41:25.44Z</time></trkpt><trkpt lat="45.30539" lon="7.6885433"><ele>287.0</ele><time>2026-03-24T15:41:27.438Z</time></trkpt><trkpt lat="45.30528" lon="7.6884683"><ele>287.0</ele><time>2026-03-24T15:41:29.439Z</time></trkpt><trkpt lat="45.3051883" lon="7.6883433"><ele>287.0</ele><time>2026-03-24T15:41:31.438Z</time></trkpt><trkpt lat="45.3051567" lon="7.6882617"><ele>287.0</ele><time>2026-03-24T15:41:32.443Z</time></trkpt><trkpt lat="45.3051167" lon="7.6880917"><ele>287.0</ele><time>2026-03-24T15:41:34.437Z</time></trkpt><trkpt lat="45.3050767" lon="7.6879317"><ele>287.0</ele><time>2026-03-24T15:41:36.438Z</time></trkpt><trkpt lat="45.30502" lon="7.6878133"><ele>287.0</ele><time>2026-03-24T15:41:38.439Z</time></trkpt><trkpt lat="45.30496" lon="7.6877767"><ele>287.0</ele><time>2026-03-24T15:41:40.44Z</time></trkpt><trkpt lat="45.3048517" lon="7.687775"><ele>287.0</ele><time>2026-03-24T15:41:42.44Z</time></trkpt><trkpt lat="45.30477" lon="7.6877733"><ele>287.0</ele><time>2026-03-24T15:41:43.443Z</time></trkpt><trkpt lat="45.3047033" lon="7.6877783"><ele>287.0</ele><time>2026-03-24T15:41:44.444Z</time></trkpt><trkpt lat="45.30464" lon="7.6877817"><ele>287.0</ele><time>2026-03-24T15:41:45.438Z</time></trkpt><trkpt lat="45.3045183" lon="7.6877867"><ele>287.0</ele><time>2026-03-24T15:41:47.443Z</time></trkpt><trkpt lat="45.3044517" lon="7.6877967"><ele>287.0</ele><time>2026-03-24T15:41:48.441Z</time></trkpt><trkpt lat="45.3043883" lon="7.6878133"><ele>287.0</ele><time>2026-03-24T15:41:49.439Z</time></trkpt><trkpt lat="45.3043233" lon="7.6878283"><ele>287.0</ele><time>2026-03-24T15:41:50.44Z</time></trkpt><trkpt lat="45.3042567" lon="7.68784"><ele>287.0</ele><time>2026-03-24T15:41:51.446Z</time></trkpt><trkpt lat="45.30419" lon="7.6878517"><ele>287.0</ele><time>2026-03-24T15:41:52.442Z</time></trkpt><trkpt lat="45.3041267" lon="7.687865"><ele>287.0</ele><time>2026-03-24T15:41:53.441Z</time></trkpt><trkpt lat="45.3040083" lon="7.6878867"><ele>287.0</ele><time>2026-03-24T15:41:55.438Z</time></trkpt><trkpt lat="45.3038917" lon="7.6878917"><ele>287.2</ele><time>2026-03-24T15:41:57.44Z</time></trkpt><trkpt lat="45.3038283" lon="7.6878967"><ele>287.4</ele><time>2026-03-24T15:41:58.439Z</time></trkpt><trkpt lat="45.3037083" lon="7.6878983"><ele>287.6</ele><time>2026-03-24T15:42:00.435Z</time></trkpt><trkpt lat="45.3035867" lon="7.687895"><ele>287.8</ele><time>2026-03-24T15:42:02.438Z</time></trkpt><trkpt lat="45.3034683" lon="7.6878733"><ele>288.0</ele><time>2026-03-24T15:42:04.437Z</time></trkpt><trkpt lat="45.3033533" lon="7.6878617"><ele>288.0</ele><time>2026-03-24T15:42:06.441Z</time></trkpt><trkpt lat="45.30324" lon="7.6878367"><ele>288.0</ele><time>2026-03-24T15:42:08.439Z</time></trkpt><trkpt lat="45.3031333" lon="7.68784"><ele>288.0</ele><time>2026-03-24T15:42:10.439Z</time></trkpt><trkpt lat="45.3030283" lon="7.6878583"><ele>288.0</ele><time>2026-03-24T15:42:12.441Z</time></trkpt><trkpt lat="45.302925" lon="7.687875"><ele>288.0</ele><time>2026-03-24T15:42:14.44Z</time></trkpt><trkpt lat="45.3028067" lon="7.6878933"><ele>287.6</ele><time>2026-03-24T15:42:16.443Z</time></trkpt><trkpt lat="45.3027383" lon="7.6878933"><ele>287.20000000000005</ele><time>2026-03-24T15:42:17.443Z</time></trkpt><trkpt lat="45.302675" lon="7.6879033"><ele>286.8</ele><time>2026-03-24T15:42:18.446Z</time></trkpt><trkpt lat="45.3025483" lon="7.6879217"><ele>286.40000000000003</ele><time>2026-03-24T15:42:20.442Z</time></trkpt><trkpt lat="45.3024833" lon="7.687925"><ele>286.0</ele><time>2026-03-24T15:42:21.441Z</time></trkpt><trkpt lat="45.3023583" lon="7.6879333"><ele>286.0</ele><time>2026-03-24T15:42:23.437Z</time></trkpt><trkpt lat="45.3022917" lon="7.687945"><ele>286.0</ele><time>2026-03-24T15:42:24.442Z</time></trkpt><trkpt lat="45.3021683" lon="7.6879667"><ele>286.0</ele><time>2026-03-24T15:42:26.444Z</time></trkpt><trkpt lat="45.3020533" lon="7.6879833"><ele>286.0</ele><time>2026-03-24T15:42:28.442Z</time></trkpt><trkpt lat="45.30194" lon="7.68798"><ele>286.0</ele><time>2026-03-24T15:42:30.439Z</time></trkpt><trkpt lat="45.3018217" lon="7.687985"><ele>285.99999999999994</ele><time>2026-03-24T15:42:32.445Z</time></trkpt><trkpt lat="45.3016983" lon="7.6879917"><ele>286.0</ele><time>2026-03-24T15:42:34.439Z</time></trkpt><trkpt lat="45.301635" lon="7.688"><ele>286.0</ele><time>2026-03-24T15:42:35.44Z</time></trkpt><trkpt lat="45.3015717" lon="7.6880117"><ele>286.0</ele><time>2026-03-24T15:42:36.442Z</time></trkpt><trkpt lat="45.3015083" lon="7.6880167"><ele>286.0</ele><time>2026-03-24T15:42:37.448Z</time></trkpt><trkpt lat="45.301445" lon="7.6880167"><ele>285.99999999999994</ele><time>2026-03-24T15:42:38.442Z</time></trkpt><trkpt lat="45.3013767" lon="7.6880167"><ele>286.0</ele><time>2026-03-24T15:42:39.442Z</time></trkpt><trkpt lat="45.3013133" lon="7.6880133"><ele>286.0</ele><time>2026-03-24T15:42:40.44Z</time></trkpt><trkpt lat="45.3011867" lon="7.6880183"><ele>286.0</ele><time>2026-03-24T15:42:42.444Z</time></trkpt><trkpt lat="45.3011217" lon="7.68802"><ele>286.0</ele><time>2026-03-24T15:42:43.438Z</time></trkpt><trkpt lat="45.3010583" lon="7.688015"><ele>286.0</ele><time>2026-03-24T15:42:44.443Z</time></trkpt><trkpt lat="45.300995" lon="7.6880083"><ele>286.0</ele><time>2026-03-24T15:42:45.437Z</time></trkpt><trkpt lat="45.30087" lon="7.68799"><ele>286.0</ele><time>2026-03-24T15:42:47.437Z</time></trkpt><trkpt lat="45.3007517" lon="7.6879833"><ele>286.0</ele><time>2026-03-24T15:42:49.438Z</time></trkpt><trkpt lat="45.30063" lon="7.6879717"><ele>286.0</ele><time>2026-03-24T15:42:51.44Z</time></trkpt><trkpt lat="45.3005183" lon="7.6879567"><ele>286.0</ele><time>2026-03-24T15:42:53.439Z</time></trkpt><trkpt lat="45.3004" lon="7.6879583"><ele>286.0</ele><time>2026-03-24T15:42:55.44Z</time></trkpt><trkpt lat="45.30028" lon="7.687965"><ele>285.75</ele><time>2026-03-24T15:42:57.436Z</time></trkpt><trkpt lat="45.3001683" lon="7.6879817"><ele>285.5</ele><time>2026-03-24T15:42:59.44Z</time></trkpt><trkpt lat="45.3000467" lon="7.687995"><ele>285.25</ele><time>2026-03-24T15:43:01.443Z</time></trkpt><trkpt lat="45.2999283" lon="7.688"><ele>285.0</ele><time>2026-03-24T15:43:03.445Z</time></trkpt><trkpt lat="45.29981" lon="7.6880117"><ele>284.4</ele><time>2026-03-24T15:43:05.442Z</time></trkpt><trkpt lat="45.299695" lon="7.6880217"><ele>283.8</ele><time>2026-03-24T15:43:07.446Z</time></trkpt><trkpt lat="45.299575" lon="7.6880383"><ele>283.2</ele><time>2026-03-24T15:43:09.44Z</time></trkpt><trkpt lat="45.2994533" lon="7.6880583"><ele>282.6</ele><time>2026-03-24T15:43:11.44Z</time></trkpt><trkpt lat="45.2993883" lon="7.6880667"><ele>282.0</ele><time>2026-03-24T15:43:12.445Z</time></trkpt><trkpt lat="45.29932" lon="7.6880817"><ele>282.0</ele><time>2026-03-24T15:43:13.441Z</time></trkpt><trkpt lat="45.2992533" lon="7.688095"><ele>282.0</ele><time>2026-03-24T15:43:14.447Z</time></trkpt><trkpt lat="45.2991883" lon="7.6881"><ele>282.0</ele><time>2026-03-24T15:43:15.445Z</time></trkpt><trkpt lat="45.2991233" lon="7.68811"><ele>282.0</ele><time>2026-03-24T15:43:16.44Z</time></trkpt><trkpt lat="45.2990583" lon="7.68812"><ele>282.0</ele><time>2026-03-24T15:43:17.439Z</time></trkpt><trkpt lat="45.298995" lon="7.68813"><ele>282.0</ele><time>2026-03-24T15:43:18.44Z</time></trkpt><trkpt lat="45.2989317" lon="7.688145"><ele>282.0</ele><time>2026-03-24T15:43:19.439Z</time></trkpt><trkpt lat="45.2988683" lon="7.6881533"><ele>282.25</ele><time>2026-03-24T15:43:20.444Z</time></trkpt><trkpt lat="45.2987467" lon="7.6881733"><ele>282.5</ele><time>2026-03-24T15:43:22.437Z</time></trkpt><trkpt lat="45.29863" lon="7.6881833"><ele>282.75</ele><time>2026-03-24T15:43:24.441Z</time></trkpt><trkpt lat="45.2985067" lon="7.6881867"><ele>283.0</ele><time>2026-03-24T15:43:26.439Z</time></trkpt><trkpt lat="45.298385" lon="7.688185"><ele>283.0</ele><time>2026-03-24T15:43:28.442Z</time></trkpt><trkpt lat="45.2982617" lon="7.6881817"><ele>283.0</ele><time>2026-03-24T15:43:30.441Z</time></trkpt><trkpt lat="45.29814" lon="7.6881683"><ele>283.0</ele><time>2026-03-24T15:43:32.443Z</time></trkpt><trkpt lat="45.2980167" lon="7.6881583"><ele>283.0</ele><time>2026-03-24T15:43:34.437Z</time></trkpt><trkpt lat="45.2979533" lon="7.688155"><ele>283.0</ele><time>2026-03-24T15:43:35.439Z</time></trkpt><trkpt lat="45.29789" lon="7.6881567"><ele>282.8</ele><time>2026-03-24T15:43:36.438Z</time></trkpt><trkpt lat="45.2977717" lon="7.6881583"><ele>282.6</ele><time>2026-03-24T15:43:38.443Z</time></trkpt><trkpt lat="45.2976483" lon="7.6881533"><ele>282.4</ele><time>2026-03-24T15:43:40.442Z</time></trkpt><trkpt lat="45.297585" lon="7.6881567"><ele>282.2</ele><time>2026-03-24T15:43:41.443Z</time></trkpt><trkpt lat="45.29746" lon="7.688165"><ele>282.0</ele><time>2026-03-24T15:43:43.443Z</time></trkpt><trkpt lat="45.29739" lon="7.6881717"><ele>282.0</ele><time>2026-03-24T15:43:44.442Z</time></trkpt><trkpt lat="45.2973233" lon="7.6881817"><ele>282.0</ele><time>2026-03-24T15:43:45.444Z</time></trkpt><trkpt lat="45.2972583" lon="7.6881967"><ele>282.0</ele><time>2026-03-24T15:43:46.443Z</time></trkpt><trkpt lat="45.2971867" lon="7.6882117"><ele>282.0</ele><time>2026-03-24T15:43:47.442Z</time></trkpt><trkpt lat="45.2971167" lon="7.6882217"><ele>282.0</ele><time>2026-03-24T15:43:48.441Z</time></trkpt><trkpt lat="45.2970483" lon="7.6882267"><ele>282.0</ele><time>2026-03-24T15:43:49.442Z</time></trkpt><trkpt lat="45.296935" lon="7.6882367"><ele>281.5</ele><time>2026-03-24T15:43:51.442Z</time></trkpt><trkpt lat="45.29682" lon="7.6882117"><ele>281.0</ele><time>2026-03-24T15:43:53.441Z</time></trkpt><trkpt lat="45.2967017" lon="7.6881867"><ele>280.5</ele><time>2026-03-24T15:43:55.438Z</time></trkpt><trkpt lat="45.2965867" lon="7.6881733"><ele>280.0</ele><time>2026-03-24T15:43:57.437Z</time></trkpt><trkpt lat="45.2964733" lon="7.6881783"><ele>279.8</ele><time>2026-03-24T15:43:59.444Z</time></trkpt><trkpt lat="45.29635" lon="7.6881783"><ele>279.6</ele><time>2026-03-24T15:44:01.437Z</time></trkpt><trkpt lat="45.296285" lon="7.68818"><ele>279.4</ele><time>2026-03-24T15:44:02.442Z</time></trkpt><trkpt lat="45.2961617" lon="7.688175"><ele>279.2</ele><time>2026-03-24T15:44:04.435Z</time></trkpt><trkpt lat="45.2960417" lon="7.6881733"><ele>279.0</ele><time>2026-03-24T15:44:06.436Z</time></trkpt><trkpt lat="45.295925" lon="7.6881717"><ele>279.0</ele><time>2026-03-24T15:44:08.444Z</time></trkpt><trkpt lat="45.295805" lon="7.688175"><ele>279.0</ele><time>2026-03-24T15:44:10.445Z</time></trkpt><trkpt lat="45.2956883" lon="7.6881767"><ele>279.0</ele><time>2026-03-24T15:44:12.441Z</time></trkpt><trkpt lat="45.2955717" lon="7.6881833"><ele>279.0</ele><time>2026-03-24T15:44:14.445Z</time></trkpt><trkpt lat="45.2954517" lon="7.688185"><ele>278.75</ele><time>2026-03-24T15:44:16.439Z</time></trkpt><trkpt lat="45.29534" lon="7.6881883"><ele>278.5</ele><time>2026-03-24T15:44:18.442Z</time></trkpt><trkpt lat="45.2952317" lon="7.68819"><ele>278.25</ele><time>2026-03-24T15:44:20.443Z</time></trkpt><trkpt lat="45.2951167" lon="7.6881917"><ele>278.0</ele><time>2026-03-24T15:44:22.439Z</time></trkpt><trkpt lat="45.2949983" lon="7.688195"><ele>278.0</ele><time>2026-03-24T15:44:24.439Z</time></trkpt><trkpt lat="45.29488" lon="7.6881867"><ele>278.0</ele><time>2026-03-24T15:44:26.442Z</time></trkpt><trkpt lat="45.2947617" lon="7.6881783"><ele>278.0</ele><time>2026-03-24T15:44:28.438Z</time></trkpt><trkpt lat="45.29464" lon="7.688185"><ele>278.0</ele><time>2026-03-24T15:44:30.441Z</time></trkpt><trkpt lat="45.2945183" lon="7.688185"><ele>277.8</ele><time>2026-03-24T15:44:32.442Z</time></trkpt><trkpt lat="45.2943983" lon="7.6881783"><ele>277.6</ele><time>2026-03-24T15:44:34.436Z</time></trkpt><trkpt lat="45.29428" lon="7.6881717"><ele>277.4</ele><time>2026-03-24T15:44:36.444Z</time></trkpt><trkpt lat="45.29417" lon="7.6881333"><ele>277.2</ele><time>2026-03-24T15:44:38.437Z</time></trkpt><trkpt lat="45.2941167" lon="7.688075"><ele>277.0</ele><time>2026-03-24T15:44:39.443Z</time></trkpt><trkpt lat="45.29408" lon="7.6879133"><ele>277.0</ele><time>2026-03-24T15:44:41.443Z</time></trkpt><trkpt lat="45.2940867" lon="7.6877683"><ele>277.0</ele><time>2026-03-24T15:44:43.442Z</time></trkpt><trkpt lat="45.2940883" lon="7.6876367"><ele>277.0</ele><time>2026-03-24T15:44:45.442Z</time></trkpt><trkpt lat="45.294085" lon="7.6874883"><ele>277.0</ele><time>2026-03-24T15:44:47.445Z</time></trkpt><trkpt lat="45.2940767" lon="7.6873317"><ele>277.0</ele><time>2026-03-24T15:44:49.441Z</time></trkpt><trkpt lat="45.2940667" lon="7.6871767"><ele>277.25</ele><time>2026-03-24T15:44:51.442Z</time></trkpt><trkpt lat="45.2940483" lon="7.6870183"><ele>277.5</ele><time>2026-03-24T15:44:53.442Z</time></trkpt><trkpt lat="45.2940317" lon="7.68685"><ele>277.75</ele><time>2026-03-24T15:44:55.445Z</time></trkpt><trkpt lat="45.2940217" lon="7.686685"><ele>278.0</ele><time>2026-03-24T15:44:57.444Z</time></trkpt><trkpt lat="45.2940133" lon="7.6865367"><ele>278.0</ele><time>2026-03-24T15:44:59.438Z</time></trkpt><trkpt lat="45.29401" lon="7.68639"><ele>278.0</ele><time>2026-03-24T15:45:01.444Z</time></trkpt><trkpt lat="45.2940017" lon="7.6862533"><ele>278.0</ele><time>2026-03-24T15:45:03.439Z</time></trkpt><trkpt lat="45.2940017" lon="7.6861033"><ele>278.0</ele><time>2026-03-24T15:45:05.443Z</time></trkpt><trkpt lat="45.2939917" lon="7.6859517"><ele>278.0</ele><time>2026-03-24T15:45:07.437Z</time></trkpt><trkpt lat="45.2939883" lon="7.6857917"><ele>278.0</ele><time>2026-03-24T15:45:09.44Z</time></trkpt><trkpt lat="45.293985" lon="7.685625"><ele>278.0</ele><time>2026-03-24T15:45:11.445Z</time></trkpt><trkpt lat="45.2939833" lon="7.6854633"><ele>278.0</ele><time>2026-03-24T15:45:13.442Z</time></trkpt><trkpt lat="45.29398" lon="7.6853067"><ele>278.0</ele><time>2026-03-24T15:45:15.441Z</time></trkpt><trkpt lat="45.29398" lon="7.6851433"><ele>277.8</ele><time>2026-03-24T15:45:17.441Z</time></trkpt><trkpt lat="45.2939833" lon="7.6849867"><ele>277.6</ele><time>2026-03-24T15:45:19.441Z</time></trkpt><trkpt lat="45.29398" lon="7.6848283"><ele>277.4</ele><time>2026-03-24T15:45:21.442Z</time></trkpt><trkpt lat="45.2939883" lon="7.6846683"><ele>277.2</ele><time>2026-03-24T15:45:23.446Z</time></trkpt><trkpt lat="45.29399" lon="7.6845083"><ele>277.0</ele><time>2026-03-24T15:45:25.439Z</time></trkpt><trkpt lat="45.293995" lon="7.6843483"><ele>277.5</ele><time>2026-03-24T15:45:27.441Z</time></trkpt><trkpt lat="45.2939933" lon="7.6841967"><ele>278.0</ele><time>2026-03-24T15:45:29.442Z</time></trkpt><trkpt lat="45.2939967" lon="7.6840367"><ele>278.5</ele><time>2026-03-24T15:45:31.442Z</time></trkpt><trkpt lat="45.2939983" lon="7.6838767"><ele>279.0</ele><time>2026-03-24T15:45:33.443Z</time></trkpt><trkpt lat="45.2939967" lon="7.6837067"><ele>278.75</ele><time>2026-03-24T15:45:35.439Z</time></trkpt><trkpt lat="45.294" lon="7.6835417"><ele>278.5</ele><time>2026-03-24T15:45:37.44Z</time></trkpt><trkpt lat="45.294005" lon="7.68337"><ele>278.25</ele><time>2026-03-24T15:45:39.442Z</time></trkpt><trkpt lat="45.29401" lon="7.6831967"><ele>278.0</ele><time>2026-03-24T15:45:41.442Z</time></trkpt><trkpt lat="45.2940133" lon="7.6830283"><ele>278.0</ele><time>2026-03-24T15:45:43.446Z</time></trkpt><trkpt lat="45.294015" lon="7.6828583"><ele>278.0</ele><time>2026-03-24T15:45:45.439Z</time></trkpt><trkpt lat="45.2940233" lon="7.6827"><ele>278.0</ele><time>2026-03-24T15:45:47.442Z</time></trkpt><trkpt lat="45.2940233" lon="7.6825317"><ele>278.0</ele><time>2026-03-24T15:45:49.446Z</time></trkpt><trkpt lat="45.2940267" lon="7.6823633"><ele>278.0</ele><time>2026-03-24T15:45:51.445Z</time></trkpt><trkpt lat="45.2940283" lon="7.6821917"><ele>278.0</ele><time>2026-03-24T15:45:53.447Z</time></trkpt><trkpt lat="45.29403" lon="7.68203"><ele>278.0</ele><time>2026-03-24T15:45:55.444Z</time></trkpt><trkpt lat="45.294035" lon="7.6818683"><ele>278.0</ele><time>2026-03-24T15:45:57.439Z</time></trkpt><trkpt lat="45.2940367" lon="7.681715"><ele>278.5</ele><time>2026-03-24T15:45:59.446Z</time></trkpt><trkpt lat="45.29404" lon="7.681555"><ele>279.0</ele><time>2026-03-24T15:46:01.442Z</time></trkpt><trkpt lat="45.2940433" lon="7.6813967"><ele>279.5</ele><time>2026-03-24T15:46:03.441Z</time></trkpt><trkpt lat="45.2940417" lon="7.6812333"><ele>280.0</ele><time>2026-03-24T15:46:05.444Z</time></trkpt><trkpt lat="45.294045" lon="7.681075"><ele>280.0</ele><time>2026-03-24T15:46:07.446Z</time></trkpt><trkpt lat="45.2940483" lon="7.680915"><ele>280.0</ele><time>2026-03-24T15:46:09.437Z</time></trkpt><trkpt lat="45.2940517" lon="7.68075"><ele>280.0</ele><time>2026-03-24T15:46:11.438Z</time></trkpt><trkpt lat="45.2940533" lon="7.6805833"><ele>280.0</ele><time>2026-03-24T15:46:13.447Z</time></trkpt><trkpt lat="45.2940567" lon="7.6804167"><ele>280.25</ele><time>2026-03-24T15:46:15.441Z</time></trkpt><trkpt lat="45.2940617" lon="7.6802567"><ele>280.5</ele><time>2026-03-24T15:46:17.443Z</time></trkpt><trkpt lat="45.2940617" lon="7.6800867"><ele>280.75</ele><time>2026-03-24T15:46:19.443Z</time></trkpt><trkpt lat="45.2940683" lon="7.679925"><ele>281.0</ele><time>2026-03-24T15:46:21.442Z</time></trkpt><trkpt lat="45.2940683" lon="7.6797683"><ele>281.0</ele><time>2026-03-24T15:46:23.443Z</time></trkpt><trkpt lat="45.29407" lon="7.6796"><ele>281.0</ele><time>2026-03-24T15:46:25.439Z</time></trkpt><trkpt lat="45.2940733" lon="7.679435"><ele>281.0</ele><time>2026-03-24T15:46:27.444Z</time></trkpt><trkpt lat="45.2940717" lon="7.6792717"><ele>281.0</ele><time>2026-03-24T15:46:29.447Z</time></trkpt><trkpt lat="45.2940767" lon="7.67911"><ele>281.0</ele><time>2026-03-24T15:46:31.445Z</time></trkpt><trkpt lat="45.2940767" lon="7.678945"><ele>281.0</ele><time>2026-03-24T15:46:33.445Z</time></trkpt><trkpt lat="45.2940833" lon="7.678775"><ele>281.0</ele><time>2026-03-24T15:46:35.446Z</time></trkpt><trkpt lat="45.294085" lon="7.6786067"><ele>281.0</ele><time>2026-03-24T15:46:37.442Z</time></trkpt><trkpt lat="45.2940933" lon="7.67845"><ele>280.75</ele><time>2026-03-24T15:46:39.439Z</time></trkpt><trkpt lat="45.2940967" lon="7.6782883"><ele>280.5</ele><time>2026-03-24T15:46:41.435Z</time></trkpt><trkpt lat="45.2940967" lon="7.6781183"><ele>280.25</ele><time>2026-03-24T15:46:43.441Z</time></trkpt><trkpt lat="45.2941" lon="7.677955"><ele>280.0</ele><time>2026-03-24T15:46:45.44Z</time></trkpt><trkpt lat="45.2941067" lon="7.6777983"><ele>280.0</ele><time>2026-03-24T15:46:47.44Z</time></trkpt><trkpt lat="45.2941117" lon="7.67764"><ele>280.0</ele><time>2026-03-24T15:46:49.441Z</time></trkpt><trkpt lat="45.294115" lon="7.6774717"><ele>280.0</ele><time>2026-03-24T15:46:51.445Z</time></trkpt><trkpt lat="45.2941183" lon="7.6773033"><ele>280.0</ele><time>2026-03-24T15:46:53.44Z</time></trkpt><trkpt lat="45.2941217" lon="7.6771367"><ele>280.0</ele><time>2026-03-24T15:46:55.436Z</time></trkpt><trkpt lat="45.2941283" lon="7.676965"><ele>280.0</ele><time>2026-03-24T15:46:57.436Z</time></trkpt><trkpt lat="45.2941333" lon="7.6767867"><ele>280.0</ele><time>2026-03-24T15:46:59.441Z</time></trkpt><trkpt lat="45.294135" lon="7.67662"><ele>280.0</ele><time>2026-03-24T15:47:01.442Z</time></trkpt><trkpt lat="45.2941383" lon="7.6764533"><ele>280.2</ele><time>2026-03-24T15:47:03.442Z</time></trkpt><trkpt lat="45.29414" lon="7.6762983"><ele>280.4</ele><time>2026-03-24T15:47:05.438Z</time></trkpt><trkpt lat="45.29414" lon="7.6761383"><ele>280.6</ele><time>2026-03-24T15:47:07.442Z</time></trkpt><trkpt lat="45.2941417" lon="7.6759767"><ele>280.8</ele><time>2026-03-24T15:47:09.436Z</time></trkpt><trkpt lat="45.2941417" lon="7.6758867"><ele>281.0</ele><time>2026-03-24T15:47:10.443Z</time></trkpt><trkpt lat="45.2941433" lon="7.6757083"><ele>281.0</ele><time>2026-03-24T15:47:12.436Z</time></trkpt><trkpt lat="45.2941483" lon="7.6755317"><ele>281.0</ele><time>2026-03-24T15:47:14.441Z</time></trkpt><trkpt lat="45.2941533" lon="7.6753583"><ele>281.0</ele><time>2026-03-24T15:47:16.439Z</time></trkpt><trkpt lat="45.29416" lon="7.6751883"><ele>281.0</ele><time>2026-03-24T15:47:18.439Z</time></trkpt><trkpt lat="45.2941617" lon="7.6750183"><ele>280.75</ele><time>2026-03-24T15:47:20.444Z</time></trkpt><trkpt lat="45.29417" lon="7.6748467"><ele>280.5</ele><time>2026-03-24T15:47:22.446Z</time></trkpt><trkpt lat="45.2941717" lon="7.6746867"><ele>280.25</ele><time>2026-03-24T15:47:24.445Z</time></trkpt><trkpt lat="45.2941733" lon="7.6745267"><ele>280.0</ele><time>2026-03-24T15:47:26.445Z</time></trkpt><trkpt lat="45.294175" lon="7.6743633"><ele>280.0</ele><time>2026-03-24T15:47:28.44Z</time></trkpt><trkpt lat="45.2941667" lon="7.67421"><ele>280.0</ele><time>2026-03-24T15:47:30.442Z</time></trkpt><trkpt lat="45.29417" lon="7.6740817"><ele>280.0</ele><time>2026-03-24T15:47:32.441Z</time></trkpt><trkpt lat="45.2941733" lon="7.6739767"><ele>280.0</ele><time>2026-03-24T15:47:34.445Z</time></trkpt><trkpt lat="45.2941617" lon="7.67388"><ele>280.0</ele><time>2026-03-24T15:47:37.446Z</time></trkpt><trkpt lat="45.29411" lon="7.6738283"><ele>280.0</ele><time>2026-03-24T15:47:39.444Z</time></trkpt><trkpt lat="45.2940267" lon="7.673785"><ele>280.0</ele><time>2026-03-24T15:47:41.445Z</time></trkpt><trkpt lat="45.2939283" lon="7.6737533"><ele>280.0</ele><time>2026-03-24T15:47:43.442Z</time></trkpt><trkpt lat="45.2938217" lon="7.6737183"><ele>280.0</ele><time>2026-03-24T15:47:45.44Z</time></trkpt><trkpt lat="45.29371" lon="7.6736933"><ele>280.0</ele><time>2026-03-24T15:47:47.446Z</time></trkpt><trkpt lat="45.2935983" lon="7.6736617"><ele>280.0</ele><time>2026-03-24T15:47:49.44Z</time></trkpt><trkpt lat="45.2934867" lon="7.6736333"><ele>280.25</ele><time>2026-03-24T15:47:51.443Z</time></trkpt><trkpt lat="45.2933717" lon="7.673605"><ele>280.5</ele><time>2026-03-24T15:47:53.445Z</time></trkpt><trkpt lat="45.2932533" lon="7.6735783"><ele>280.75</ele><time>2026-03-24T15:47:55.441Z</time></trkpt><trkpt lat="45.2931317" lon="7.6735533"><ele>281.0</ele><time>2026-03-24T15:47:57.442Z</time></trkpt><trkpt lat="45.29301" lon="7.6735233"><ele>280.5</ele><time>2026-03-24T15:47:59.441Z</time></trkpt><trkpt lat="45.2928933" lon="7.67349"><ele>280.0</ele><time>2026-03-24T15:48:01.443Z</time></trkpt><trkpt lat="45.2927767" lon="7.6734583"><ele>279.5</ele><time>2026-03-24T15:48:03.44Z</time></trkpt><trkpt lat="45.2926617" lon="7.6734267"><ele>279.0</ele><time>2026-03-24T15:48:05.442Z</time></trkpt><trkpt lat="45.292545" lon="7.6733983"><ele>279.0</ele><time>2026-03-24T15:48:07.445Z</time></trkpt><trkpt lat="45.2924233" lon="7.6733667"><ele>279.0</ele><time>2026-03-24T15:48:09.443Z</time></trkpt><trkpt lat="45.2923033" lon="7.673335"><ele>279.0</ele><time>2026-03-24T15:48:11.444Z</time></trkpt><trkpt lat="45.2921833" lon="7.6733083"><ele>279.0</ele><time>2026-03-24T15:48:13.442Z</time></trkpt><trkpt lat="45.2920633" lon="7.67328"><ele>278.75</ele><time>2026-03-24T15:48:15.44Z</time></trkpt><trkpt lat="45.2919433" lon="7.6732583"><ele>278.5</ele><time>2026-03-24T15:48:17.44Z</time></trkpt><trkpt lat="45.2918217" lon="7.67323"><ele>278.25</ele><time>2026-03-24T15:48:19.442Z</time></trkpt><trkpt lat="45.2917" lon="7.673205"><ele>278.0</ele><time>2026-03-24T15:48:21.441Z</time></trkpt><trkpt lat="45.29158" lon="7.6731767"><ele>278.0</ele><time>2026-03-24T15:48:23.442Z</time></trkpt><trkpt lat="45.2914583" lon="7.673145"><ele>278.0</ele><time>2026-03-24T15:48:25.441Z</time></trkpt><trkpt lat="45.29134" lon="7.6731133"><ele>278.0</ele><time>2026-03-24T15:48:27.444Z</time></trkpt><trkpt lat="45.29122" lon="7.6730833"><ele>278.0</ele><time>2026-03-24T15:48:29.444Z</time></trkpt><trkpt lat="45.2911" lon="7.6730483"><ele>278.0</ele><time>2026-03-24T15:48:31.439Z</time></trkpt><trkpt lat="45.2909767" lon="7.6730167"><ele>278.0</ele><time>2026-03-24T15:48:33.44Z</time></trkpt><trkpt lat="45.2908583" lon="7.67299"><ele>278.0</ele><time>2026-03-24T15:48:35.44Z</time></trkpt><trkpt lat="45.2907367" lon="7.6729633"><ele>278.0</ele><time>2026-03-24T15:48:37.44Z</time></trkpt><trkpt lat="45.2906167" lon="7.6729383"><ele>277.75</ele><time>2026-03-24T15:48:39.442Z</time></trkpt><trkpt lat="45.290495" lon="7.6729117"><ele>277.5</ele><time>2026-03-24T15:48:41.445Z</time></trkpt><trkpt lat="45.290375" lon="7.6728883"><ele>277.25</ele><time>2026-03-24T15:48:43.446Z</time></trkpt><trkpt lat="45.290255" lon="7.6728567"><ele>277.0</ele><time>2026-03-24T15:48:45.439Z</time></trkpt><trkpt lat="45.2901367" lon="7.672825"><ele>277.0</ele><time>2026-03-24T15:48:47.444Z</time></trkpt><trkpt lat="45.2900183" lon="7.6727917"><ele>277.0</ele><time>2026-03-24T15:48:49.44Z</time></trkpt><trkpt lat="45.2899" lon="7.6727533"><ele>277.0</ele><time>2026-03-24T15:48:51.439Z</time></trkpt><trkpt lat="45.28978" lon="7.6727217"><ele>277.0</ele><time>2026-03-24T15:48:53.443Z</time></trkpt><trkpt lat="45.28966" lon="7.6726917"><ele>277.25</ele><time>2026-03-24T15:48:55.442Z</time></trkpt><trkpt lat="45.28954" lon="7.672665"><ele>277.5</ele><time>2026-03-24T15:48:57.44Z</time></trkpt><trkpt lat="45.2894167" lon="7.6726333"><ele>277.75</ele><time>2026-03-24T15:48:59.438Z</time></trkpt><trkpt lat="45.2892983" lon="7.6726"><ele>278.0</ele><time>2026-03-24T15:49:01.441Z</time></trkpt><trkpt lat="45.2891767" lon="7.6725667"><ele>278.0</ele><time>2026-03-24T15:49:03.442Z</time></trkpt><trkpt lat="45.289115" lon="7.6725433"><ele>278.0</ele><time>2026-03-24T15:49:04.441Z</time></trkpt><trkpt lat="45.2890533" lon="7.672515"><ele>278.0</ele><time>2026-03-24T15:49:05.444Z</time></trkpt><trkpt lat="45.2889917" lon="7.6724833"><ele>278.0</ele><time>2026-03-24T15:49:06.439Z</time></trkpt><trkpt lat="45.2888733" lon="7.6724183"><ele>278.0</ele><time>2026-03-24T15:49:08.441Z</time></trkpt><trkpt lat="45.2888133" lon="7.6723817"><ele>278.0</ele><time>2026-03-24T15:49:09.438Z</time></trkpt><trkpt lat="45.2887" lon="7.6723"><ele>278.0</ele><time>2026-03-24T15:49:11.444Z</time></trkpt><trkpt lat="45.28859" lon="7.6722183"><ele>278.0</ele><time>2026-03-24T15:49:13.443Z</time></trkpt><trkpt lat="45.2884833" lon="7.6721283"><ele>278.0</ele><time>2026-03-24T15:49:15.438Z</time></trkpt><trkpt lat="45.2883767" lon="7.67203"><ele>278.0</ele><time>2026-03-24T15:49:17.439Z</time></trkpt><trkpt lat="45.2882733" lon="7.6719217"><ele>277.7142857142857</ele><time>2026-03-24T15:49:19.44Z</time></trkpt><trkpt lat="45.288225" lon="7.6718617"><ele>277.42857142857144</ele><time>2026-03-24T15:49:20.441Z</time></trkpt><trkpt lat="45.2881783" lon="7.6717983"><ele>277.14285714285717</ele><time>2026-03-24T15:49:21.439Z</time></trkpt><trkpt lat="45.2881317" lon="7.6717367"><ele>276.8571428571429</ele><time>2026-03-24T15:49:22.439Z</time></trkpt><trkpt lat="45.288085" lon="7.6716733"><ele>276.5714285714286</ele><time>2026-03-24T15:49:23.444Z</time></trkpt><trkpt lat="45.2880383" lon="7.67161"><ele>276.2857142857143</ele><time>2026-03-24T15:49:24.439Z</time></trkpt><trkpt lat="45.287995" lon="7.67154"><ele>276.0</ele><time>2026-03-24T15:49:25.44Z</time></trkpt><trkpt lat="45.2879467" lon="7.671475"><ele>275.8571428571429</ele><time>2026-03-24T15:49:26.442Z</time></trkpt><trkpt lat="45.2879033" lon="7.6714067"><ele>275.7142857142857</ele><time>2026-03-24T15:49:27.438Z</time></trkpt><trkpt lat="45.2878617" lon="7.671335"><ele>275.57142857142856</ele><time>2026-03-24T15:49:28.442Z</time></trkpt><trkpt lat="45.2878167" lon="7.67127"><ele>275.42857142857144</ele><time>2026-03-24T15:49:29.44Z</time></trkpt><trkpt lat="45.28777" lon="7.671205"><ele>275.2857142857143</ele><time>2026-03-24T15:49:30.44Z</time></trkpt><trkpt lat="45.2877267" lon="7.6711367"><ele>275.14285714285717</ele><time>2026-03-24T15:49:31.441Z</time></trkpt><trkpt lat="45.2876867" lon="7.6710617"><ele>275.0</ele><time>2026-03-24T15:49:32.442Z</time></trkpt><trkpt lat="45.28765" lon="7.6709833"><ele>274.83333333333337</ele><time>2026-03-24T15:49:33.441Z</time></trkpt><trkpt lat="45.2876167" lon="7.670905"><ele>274.6666666666667</ele><time>2026-03-24T15:49:34.439Z</time></trkpt><trkpt lat="45.287585" lon="7.670825"><ele>274.5</ele><time>2026-03-24T15:49:35.439Z</time></trkpt><trkpt lat="45.2875217" lon="7.6706683"><ele>274.3333333333333</ele><time>2026-03-24T15:49:37.438Z</time></trkpt><trkpt lat="45.28749" lon="7.67059"><ele>274.16666666666663</ele><time>2026-03-24T15:49:38.441Z</time></trkpt><trkpt lat="45.2874617" lon="7.67051"><ele>274.0</ele><time>2026-03-24T15:49:39.442Z</time></trkpt><trkpt lat="45.2874033" lon="7.6703533"><ele>274.0</ele><time>2026-03-24T15:49:41.439Z</time></trkpt><trkpt lat="45.2873733" lon="7.6702717"><ele>274.0</ele><time>2026-03-24T15:49:42.439Z</time></trkpt><trkpt lat="45.287345" lon="7.67019"><ele>274.0</ele><time>2026-03-24T15:49:43.439Z</time></trkpt><trkpt lat="45.287315" lon="7.6701067"><ele>274.0</ele><time>2026-03-24T15:49:44.444Z</time></trkpt><trkpt lat="45.2872617" lon="7.6699467"><ele>274.0</ele><time>2026-03-24T15:49:46.445Z</time></trkpt><trkpt lat="45.2872033" lon="7.669795"><ele>274.0</ele><time>2026-03-24T15:49:48.438Z</time></trkpt><trkpt lat="45.2871717" lon="7.6697167"><ele>274.00000000000006</ele><time>2026-03-24T15:49:49.441Z</time></trkpt><trkpt lat="45.28711" lon="7.6695633"><ele>274.0</ele><time>2026-03-24T15:49:51.438Z</time></trkpt><trkpt lat="45.2870783" lon="7.6694833"><ele>274.0</ele><time>2026-03-24T15:49:52.441Z</time></trkpt><trkpt lat="45.287045" lon="7.6694017"><ele>274.0</ele><time>2026-03-24T15:49:53.442Z</time></trkpt><trkpt lat="45.2870133" lon="7.6693233"><ele>274.0</ele><time>2026-03-24T15:49:54.441Z</time></trkpt><trkpt lat="45.2869817" lon="7.6692433"><ele>274.00000000000006</ele><time>2026-03-24T15:49:55.442Z</time></trkpt><trkpt lat="45.28695" lon="7.6691633"><ele>274.0</ele><time>2026-03-24T15:49:56.441Z</time></trkpt><trkpt lat="45.2869183" lon="7.669085"><ele>274.0</ele><time>2026-03-24T15:49:57.439Z</time></trkpt><trkpt lat="45.2868883" lon="7.669005"><ele>274.0</ele><time>2026-03-24T15:49:58.44Z</time></trkpt><trkpt lat="45.286825" lon="7.668865"><ele>274.0</ele><time>2026-03-24T15:50:00.441Z</time></trkpt><trkpt lat="45.286765" lon="7.668725"><ele>274.0</ele><time>2026-03-24T15:50:02.441Z</time></trkpt><trkpt lat="45.2867133" lon="7.6685767"><ele>274.0</ele><time>2026-03-24T15:50:04.442Z</time></trkpt><trkpt lat="45.2866733" lon="7.668445"><ele>273.8333333333333</ele><time>2026-03-24T15:50:06.445Z</time></trkpt><trkpt lat="45.2866417" lon="7.668355"><ele>273.66666666666663</ele><time>2026-03-24T15:50:08.44Z</time></trkpt><trkpt lat="45.286615" lon="7.6682733"><ele>273.5</ele><time>2026-03-24T15:50:10.441Z</time></trkpt><trkpt lat="45.286575" lon="7.6681617"><ele>273.3333333333333</ele><time>2026-03-24T15:50:13.441Z</time></trkpt><trkpt lat="45.2865183" lon="7.66808"><ele>273.1666666666667</ele><time>2026-03-24T15:50:15.441Z</time></trkpt><trkpt lat="45.2864383" lon="7.6680117"><ele>273.0</ele><time>2026-03-24T15:50:17.443Z</time></trkpt><trkpt lat="45.2863317" lon="7.6679717"><ele>272.8</ele><time>2026-03-24T15:50:19.438Z</time></trkpt><trkpt lat="45.2862167" lon="7.6679183"><ele>272.6</ele><time>2026-03-24T15:50:21.438Z</time></trkpt><trkpt lat="45.2861017" lon="7.66785"><ele>272.4</ele><time>2026-03-24T15:50:23.44Z</time></trkpt><trkpt lat="45.2860433" lon="7.6678133"><ele>272.2</ele><time>2026-03-24T15:50:24.441Z</time></trkpt><trkpt lat="45.285935" lon="7.667725"><ele>272.0</ele><time>2026-03-24T15:50:26.443Z</time></trkpt><trkpt lat="45.2858267" lon="7.66765"><ele>271.6666666666667</ele><time>2026-03-24T15:50:28.446Z</time></trkpt><trkpt lat="45.2857183" lon="7.6675633"><ele>271.33333333333337</ele><time>2026-03-24T15:50:30.44Z</time></trkpt><trkpt lat="45.2856583" lon="7.6675233"><ele>271.0</ele><time>2026-03-24T15:50:31.44Z</time></trkpt><trkpt lat="45.2856017" lon="7.6674833"><ele>270.6666666666667</ele><time>2026-03-24T15:50:32.441Z</time></trkpt><trkpt lat="45.285545" lon="7.6674417"><ele>270.3333333333333</ele><time>2026-03-24T15:50:33.44Z</time></trkpt><trkpt lat="45.28544" lon="7.66735"><ele>270.0</ele><time>2026-03-24T15:50:35.441Z</time></trkpt><trkpt lat="45.2853367" lon="7.667265"><ele>270.0</ele><time>2026-03-24T15:50:37.442Z</time></trkpt><trkpt lat="45.28523" lon="7.66719"><ele>270.0</ele><time>2026-03-24T15:50:39.442Z</time></trkpt><trkpt lat="45.2851217" lon="7.667115"><ele>270.0</ele><time>2026-03-24T15:50:41.44Z</time></trkpt><trkpt lat="45.2850133" lon="7.6670417"><ele>270.0</ele><time>2026-03-24T15:50:43.442Z</time></trkpt><trkpt lat="45.2849067" lon="7.6669667"><ele>270.0</ele><time>2026-03-24T15:50:45.442Z</time></trkpt><trkpt lat="45.2848" lon="7.6668933"><ele>270.0</ele><time>2026-03-24T15:50:47.444Z</time></trkpt><trkpt lat="45.2846933" lon="7.66681"><ele>270.0</ele><time>2026-03-24T15:50:49.439Z</time></trkpt><trkpt lat="45.2845933" lon="7.6667267"><ele>270.0</ele><time>2026-03-24T15:50:51.438Z</time></trkpt><trkpt lat="45.28449" lon="7.6666483"><ele>270.0</ele><time>2026-03-24T15:50:53.438Z</time></trkpt><trkpt lat="45.284385" lon="7.6665667"><ele>270.0</ele><time>2026-03-24T15:50:55.44Z</time></trkpt><trkpt lat="45.2842783" lon="7.6664933"><ele>270.0</ele><time>2026-03-24T15:50:57.441Z</time></trkpt><trkpt lat="45.2841683" lon="7.6664317"><ele>270.0</ele><time>2026-03-24T15:50:59.439Z</time></trkpt><trkpt lat="45.28406" lon="7.6663567"><ele>270.0</ele><time>2026-03-24T15:51:01.44Z</time></trkpt><trkpt lat="45.2839533" lon="7.6662783"><ele>270.0</ele><time>2026-03-24T15:51:03.439Z</time></trkpt><trkpt lat="45.2838483" lon="7.666205"><ele>270.0</ele><time>2026-03-24T15:51:05.443Z</time></trkpt><trkpt lat="45.2837417" lon="7.6661267"><ele>270.0</ele><time>2026-03-24T15:51:07.443Z</time></trkpt><trkpt lat="45.2836367" lon="7.6660483"><ele>269.5</ele><time>2026-03-24T15:51:09.438Z</time></trkpt><trkpt lat="45.2835333" lon="7.66597"><ele>269.0</ele><time>2026-03-24T15:51:11.441Z</time></trkpt><trkpt lat="45.2834333" lon="7.6658867"><ele>268.5</ele><time>2026-03-24T15:51:13.438Z</time></trkpt><trkpt lat="45.28333" lon="7.6658033"><ele>268.0</ele><time>2026-03-24T15:51:15.441Z</time></trkpt><trkpt lat="45.28323" lon="7.6657133"><ele>268.0</ele><time>2026-03-24T15:51:17.443Z</time></trkpt><trkpt lat="45.2831367" lon="7.665615"><ele>268.0</ele><time>2026-03-24T15:51:19.445Z</time></trkpt><trkpt lat="45.2830367" lon="7.6655217"><ele>268.0</ele><time>2026-03-24T15:51:21.443Z</time></trkpt><trkpt lat="45.2829333" lon="7.6654267"><ele>268.0</ele><time>2026-03-24T15:51:23.441Z</time></trkpt><trkpt lat="45.28284" lon="7.6653267"><ele>267.8</ele><time>2026-03-24T15:51:25.439Z</time></trkpt><trkpt lat="45.2827733" lon="7.6651833"><ele>267.6</ele><time>2026-03-24T15:51:27.441Z</time></trkpt><trkpt lat="45.2827517" lon="7.6650217"><ele>267.4</ele><time>2026-03-24T15:51:29.442Z</time></trkpt><trkpt lat="45.28275" lon="7.6648417"><ele>267.2</ele><time>2026-03-24T15:51:31.44Z</time></trkpt><trkpt lat="45.2827583" lon="7.66475"><ele>267.0</ele><time>2026-03-24T15:51:32.442Z</time></trkpt><trkpt lat="45.28277" lon="7.66466"><ele>267.0</ele><time>2026-03-24T15:51:33.442Z</time></trkpt><trkpt lat="45.2827917" lon="7.6644867"><ele>267.0</ele><time>2026-03-24T15:51:35.441Z</time></trkpt><trkpt lat="45.2828017" lon="7.6643967"><ele>267.0</ele><time>2026-03-24T15:51:36.441Z</time></trkpt><trkpt lat="45.2828117" lon="7.6643083"><ele>267.0</ele><time>2026-03-24T15:51:37.443Z</time></trkpt><trkpt lat="45.2828417" lon="7.66413"><ele>267.0</ele><time>2026-03-24T15:51:39.442Z</time></trkpt><trkpt lat="45.2828617" lon="7.66404"><ele>267.0</ele><time>2026-03-24T15:51:40.442Z</time></trkpt><trkpt lat="45.282885" lon="7.66395"><ele>267.1666666666667</ele><time>2026-03-24T15:51:41.438Z</time></trkpt><trkpt lat="45.2829117" lon="7.66386"><ele>267.3333333333333</ele><time>2026-03-24T15:51:42.443Z</time></trkpt><trkpt lat="45.2829467" lon="7.6637783"><ele>267.5</ele><time>2026-03-24T15:51:43.44Z</time></trkpt><trkpt lat="45.2829867" lon="7.6637017"><ele>267.66666666666663</ele><time>2026-03-24T15:51:44.443Z</time></trkpt><trkpt lat="45.2830283" lon="7.66363"><ele>267.8333333333333</ele><time>2026-03-24T15:51:45.446Z</time></trkpt><trkpt lat="45.28311" lon="7.6635017"><ele>268.0</ele><time>2026-03-24T15:51:47.439Z</time></trkpt><trkpt lat="45.2831933" lon="7.6633783"><ele>268.2</ele><time>2026-03-24T15:51:49.442Z</time></trkpt><trkpt lat="45.28328" lon="7.6632567"><ele>268.4</ele><time>2026-03-24T15:51:51.444Z</time></trkpt><trkpt lat="45.2833283" lon="7.6631983"><ele>268.59999999999997</ele><time>2026-03-24T15:51:52.44Z</time></trkpt><trkpt lat="45.2834283" lon="7.6630967"><ele>268.8</ele><time>2026-03-24T15:51:54.441Z</time></trkpt><trkpt lat="45.2835317" lon="7.6630167"><ele>269.0</ele><time>2026-03-24T15:51:56.444Z</time></trkpt><trkpt lat="45.2836317" lon="7.6629417"><ele>269.0</ele><time>2026-03-24T15:51:58.447Z</time></trkpt><trkpt lat="45.2837333" lon="7.662865"><ele>269.0</ele><time>2026-03-24T15:52:00.442Z</time></trkpt><trkpt lat="45.2838367" lon="7.66279"><ele>269.0</ele><time>2026-03-24T15:52:02.441Z</time></trkpt><trkpt lat="45.283955" lon="7.6627533"><ele>269.0</ele><time>2026-03-24T15:52:04.442Z</time></trkpt><trkpt lat="45.2840667" lon="7.6627317"><ele>268.8</ele><time>2026-03-24T15:52:06.442Z</time></trkpt><trkpt lat="45.28415" lon="7.6626717"><ele>268.59999999999997</ele><time>2026-03-24T15:52:08.445Z</time></trkpt><trkpt lat="45.28417" lon="7.662565"><ele>268.4</ele><time>2026-03-24T15:52:10.439Z</time></trkpt><trkpt lat="45.284135" lon="7.662435"><ele>268.2</ele><time>2026-03-24T15:52:12.439Z</time></trkpt><trkpt lat="45.28405" lon="7.66234"><ele>268.0</ele><time>2026-03-24T15:52:14.443Z</time></trkpt><trkpt lat="45.2839583" lon="7.66223"><ele>268.25</ele><time>2026-03-24T15:52:16.442Z</time></trkpt><trkpt lat="45.2838767" lon="7.6621"><ele>268.5</ele><time>2026-03-24T15:52:18.439Z</time></trkpt><trkpt lat="45.2838067" lon="7.6619717"><ele>268.75</ele><time>2026-03-24T15:52:20.441Z</time></trkpt><trkpt lat="45.28374" lon="7.661845"><ele>269.0</ele><time>2026-03-24T15:52:22.445Z</time></trkpt><trkpt lat="45.28368" lon="7.6617117"><ele>269.2</ele><time>2026-03-24T15:52:24.44Z</time></trkpt><trkpt lat="45.283615" lon="7.661585"><ele>269.4</ele><time>2026-03-24T15:52:26.445Z</time></trkpt><trkpt lat="45.2835417" lon="7.661455"><ele>269.6</ele><time>2026-03-24T15:52:28.445Z</time></trkpt><trkpt lat="45.2834767" lon="7.661325"><ele>269.8</ele><time>2026-03-24T15:52:30.442Z</time></trkpt><trkpt lat="45.283415" lon="7.66121"><ele>270.0</ele><time>2026-03-24T15:52:32.445Z</time></trkpt><trkpt lat="45.2833633" lon="7.6611017"><ele>271.0</ele><time>2026-03-24T15:52:34.442Z</time></trkpt><trkpt lat="45.2833117" lon="7.6610017"><ele>272.0</ele><time>2026-03-24T15:52:36.442Z</time></trkpt><trkpt lat="45.2832617" lon="7.6609083"><ele>273.0</ele><time>2026-03-24T15:52:38.441Z</time></trkpt><trkpt lat="45.2832183" lon="7.6608183"><ele>274.0</ele><time>2026-03-24T15:52:40.447Z</time></trkpt><trkpt lat="45.2831733" lon="7.6607517"><ele>275.0</ele><time>2026-03-24T15:52:42.444Z</time></trkpt><trkpt lat="45.2831217" lon="7.6606833"><ele>276.0</ele><time>2026-03-24T15:52:44.442Z</time></trkpt><trkpt lat="45.283025" lon="7.6606767"><ele>275.6666666666667</ele><time>2026-03-24T15:52:47.439Z</time></trkpt><trkpt lat="45.2829633" lon="7.66074"><ele>275.3333333333333</ele><time>2026-03-24T15:52:49.441Z</time></trkpt><trkpt lat="45.2829067" lon="7.66084"><ele>275.0</ele><time>2026-03-24T15:52:51.439Z</time></trkpt><trkpt lat="45.2828433" lon="7.660935"><ele>274.66666666666663</ele><time>2026-03-24T15:52:53.44Z</time></trkpt><trkpt lat="45.282805" lon="7.6610233"><ele>274.3333333333333</ele><time>2026-03-24T15:52:55.443Z</time></trkpt><trkpt lat="45.2828117" lon="7.6611133"><ele>274.0</ele><time>2026-03-24T15:52:57.443Z</time></trkpt><trkpt lat="45.282865" lon="7.6612233"><ele>274.0</ele><time>2026-03-24T15:52:59.441Z</time></trkpt><trkpt lat="45.2829433" lon="7.6613717"><ele>274.0</ele><time>2026-03-24T15:53:01.444Z</time></trkpt><trkpt lat="45.28299" lon="7.66145"><ele>274.0</ele><time>2026-03-24T15:53:02.442Z</time></trkpt><trkpt lat="45.283035" lon="7.6615367"><ele>274.0</ele><time>2026-03-24T15:53:03.44Z</time></trkpt><trkpt lat="45.2830767" lon="7.661625"><ele>274.0</ele><time>2026-03-24T15:53:04.442Z</time></trkpt><trkpt lat="45.2831117" lon="7.6617067"><ele>274.0</ele><time>2026-03-24T15:53:05.441Z</time></trkpt><trkpt lat="45.2831683" lon="7.66185"><ele>270.0</ele><time>2026-03-24T15:53:07.441Z</time></trkpt><trkpt lat="45.2831983" lon="7.6619717"><ele>269.0</ele><time>2026-03-24T15:53:09.441Z</time></trkpt><trkpt lat="45.2831983" lon="7.6620933"><ele>269.0</ele><time>2026-03-24T15:53:11.441Z</time></trkpt><trkpt lat="45.283185" lon="7.6621933"><ele>269.0</ele><time>2026-03-24T15:53:13.441Z</time></trkpt></trkseg></trk></gpx>